<?xml version="1.0" encoding="UTF-8" standalone="no" ?>
<gpx xmlns="http://www.topografix.com/GPX/1/1" creator="MapSource 6.16.3" version="1.1" xmlns:xsi="http://www.w3.org/2001/XMLSchema-instance" xsi:schemaLocation="http://www.topografix.com/GPX/1/1 http://www.topografix.com/GPX/1/1/gpx.xsd">

  <metadata>
    <link href="http://www.garmin.com">
      <text>Garmin International</text>
    </link>
    <time>2016-09-17T07:59:25Z</time>
    <bounds maxlat="45.764674991369247" maxlon="9.05527132563293" minlat="45.703883562237024" minlon="8.939266204833984"/>
  </metadata>

  <wpt lat="45.763721466064453" lon="8.939266204833984">
    <name>001 INIZIO</name>
    <cmt>VIA ANTONIO STOPPANI</cmt>
    <desc>VIA ANTONIO STOPPANI</desc>
    <sym>Trail Head</sym>
    <extensions>
      <gpxx:WaypointExtension xmlns:gpxx="http://www.garmin.com/xmlschemas/GpxExtensions/v3">
        <gpxx:DisplayMode>SymbolAndName</gpxx:DisplayMode>
      </gpxx:WaypointExtension>
    </extensions>
  </wpt>

  <wpt lat="45.704035274684429" lon="9.051258573308587">
    <name>C.NA MENEGARDO</name>
    <sym>Building</sym>
    <extensions>
      <gpxx:WaypointExtension xmlns:gpxx="http://www.garmin.com/xmlschemas/GpxExtensions/v3">
        <gpxx:DisplayMode>SymbolAndName</gpxx:DisplayMode>
      </gpxx:WaypointExtension>
    </extensions>
  </wpt>

  <wpt lat="45.763313602656126" lon="8.941568462178111">
    <name>FONTANELLA</name>
    <cmt>19-DIC-04 12:40:05</cmt>
    <desc>19-DIC-04 12:40:05</desc>
    <sym>Drinking Water</sym>
    <extensions>
      <gpxx:WaypointExtension xmlns:gpxx="http://www.garmin.com/xmlschemas/GpxExtensions/v3">
        <gpxx:DisplayMode>SymbolAndName</gpxx:DisplayMode>
      </gpxx:WaypointExtension>
    </extensions>
  </wpt>

  <wpt lat="45.758874714374542" lon="8.958119116723537">
    <name>STAGNO 1</name>
    <cmt>PARCO PINETA DI APPIANO GENTIL</cmt>
    <desc>PARCO PINETA DI APPIANO GENTIL</desc>
    <sym>Beach</sym>
    <extensions>
      <gpxx:WaypointExtension xmlns:gpxx="http://www.garmin.com/xmlschemas/GpxExtensions/v3">
        <gpxx:DisplayMode>SymbolAndName</gpxx:DisplayMode>
      </gpxx:WaypointExtension>
    </extensions>
  </wpt>

  <trk>
    <name>ACTIVE LOG</name>
    <trkseg>
      <trkpt lat="45.763722974807024" lon="8.93927039578557">
        <ele>392.3553466796875</ele>
        <time>2005-09-04T07:05:47Z</time>
      </trkpt>
      <trkpt lat="45.763722974807024" lon="8.93927039578557">
        <ele>392.8359375</ele>
        <time>2005-09-04T07:08:15Z</time>
      </trkpt>
      <trkpt lat="45.763806374743581" lon="8.939496707171202">
        <ele>393.3165283203125</ele>
        <time>2005-09-04T07:08:22Z</time>
      </trkpt>
      <trkpt lat="45.763864209875464" lon="8.939653532579541">
        <ele>392.8359375</ele>
        <time>2005-09-04T07:08:28Z</time>
      </trkpt>
      <trkpt lat="45.763915004208684" lon="8.939791331067681">
        <ele>392.8359375</ele>
        <time>2005-09-04T07:08:34Z</time>
      </trkpt>
      <trkpt lat="45.763961859047413" lon="8.939918568357825">
        <ele>393.3165283203125</ele>
        <time>2005-09-04T07:08:40Z</time>
      </trkpt>
      <trkpt lat="45.764011815190315" lon="8.940054355189204">
        <ele>393.3165283203125</ele>
        <time>2005-09-04T07:08:46Z</time>
      </trkpt>
      <trkpt lat="45.76395146548748" lon="8.940152088180184">
        <ele>393.3165283203125</ele>
        <time>2005-09-04T07:08:52Z</time>
      </trkpt>
      <trkpt lat="45.763854654505849" lon="8.940232554450631">
        <ele>393.7972412109375</ele>
        <time>2005-09-04T07:08:57Z</time>
      </trkpt>
      <trkpt lat="45.76377309858799" lon="8.940297765657306">
        <ele>394.758544921875</ele>
        <time>2005-09-04T07:09:01Z</time>
      </trkpt>
      <trkpt lat="45.763694643974304" lon="8.940360629931092">
        <ele>394.2779541015625</ele>
        <time>2005-09-04T07:09:05Z</time>
      </trkpt>
      <trkpt lat="45.763958841562271" lon="8.940219394862652">
        <ele>394.2779541015625</ele>
        <time>2005-09-04T07:09:09Z</time>
      </trkpt>
      <trkpt lat="45.764014748856425" lon="8.940347386524081">
        <ele>394.758544921875</ele>
        <time>2005-09-04T07:09:13Z</time>
      </trkpt>
      <trkpt lat="45.764068393036723" lon="8.940469929948449">
        <ele>395.2391357421875</ele>
        <time>2005-09-04T07:09:17Z</time>
      </trkpt>
      <trkpt lat="45.764124384149909" lon="8.940597921609879">
        <ele>395.2391357421875</ele>
        <time>2005-09-04T07:09:21Z</time>
      </trkpt>
      <trkpt lat="45.764175849035382" lon="8.940715352073312">
        <ele>395.7198486328125</ele>
        <time>2005-09-04T07:09:25Z</time>
      </trkpt>
      <trkpt lat="45.764236450195313" lon="8.941136877983809">
        <ele>396.68115234375</ele>
        <time>2005-09-04T07:09:29Z</time>
      </trkpt>
      <trkpt lat="45.763764381408691" lon="8.94136905670166">
        <ele>396.2005615234375</ele>
        <time>2005-09-04T07:09:33Z</time>
      </trkpt>
      <trkpt lat="45.763762453570962" lon="8.941407613456249">
        <ele>396.2005615234375</ele>
        <time>2005-09-04T07:09:37Z</time>
      </trkpt>
      <trkpt lat="45.7638019323349" lon="8.941358914598823">
        <ele>396.2005615234375</ele>
        <time>2005-09-04T07:09:42Z</time>
      </trkpt>
      <trkpt lat="45.763703612610698" lon="8.94136905670166">
        <ele>395.7198486328125</ele>
        <time>2005-09-04T07:09:46Z</time>
      </trkpt>
      <trkpt lat="45.763587355613708" lon="8.94136905670166">
        <ele>395.7198486328125</ele>
        <time>2005-09-04T07:09:49Z</time>
      </trkpt>
      <trkpt lat="45.763437319546938" lon="8.941459078341723">
        <ele>395.7198486328125</ele>
        <time>2005-09-04T07:09:52Z</time>
      </trkpt>
      <trkpt lat="45.763354673981667" lon="8.941525295376778">
        <ele>395.2391357421875</ele>
        <time>2005-09-04T07:09:55Z</time>
      </trkpt>
      <trkpt lat="45.763262137770653" lon="8.941603330895305">
        <ele>395.7198486328125</ele>
        <time>2005-09-04T07:09:59Z</time>
      </trkpt>
      <trkpt lat="45.76317748054862" lon="8.94167591817677">
        <ele>395.7198486328125</ele>
        <time>2005-09-04T07:10:03Z</time>
      </trkpt>
      <trkpt lat="45.763096092268825" lon="8.941745739430189">
        <ele>395.2391357421875</ele>
        <time>2005-09-04T07:10:07Z</time>
      </trkpt>
      <trkpt lat="45.763014871627092" lon="8.94181321375072">
        <ele>394.758544921875</ele>
        <time>2005-09-04T07:10:11Z</time>
      </trkpt>
      <trkpt lat="45.762930130586028" lon="8.94187674857676">
        <ele>395.2391357421875</ele>
        <time>2005-09-04T07:10:15Z</time>
      </trkpt>
      <trkpt lat="45.762818735092878" lon="8.941962495446205">
        <ele>394.758544921875</ele>
        <time>2005-09-04T07:10:19Z</time>
      </trkpt>
      <trkpt lat="45.762731060385704" lon="8.942032735794783">
        <ele>394.758544921875</ele>
        <time>2005-09-04T07:10:22Z</time>
      </trkpt>
      <trkpt lat="45.76264388859272" lon="8.942099288105965">
        <ele>395.2391357421875</ele>
        <time>2005-09-04T07:10:25Z</time>
      </trkpt>
      <trkpt lat="45.762537438422441" lon="8.942114543169737">
        <ele>394.758544921875</ele>
        <time>2005-09-04T07:10:28Z</time>
      </trkpt>
      <trkpt lat="45.762438112869859" lon="8.942128708586097">
        <ele>394.2779541015625</ele>
        <time>2005-09-04T07:10:31Z</time>
      </trkpt>
      <trkpt lat="45.762334512546659" lon="8.942149663344026">
        <ele>394.2779541015625</ele>
        <time>2005-09-04T07:10:34Z</time>
      </trkpt>
      <trkpt lat="45.762241557240486" lon="8.942205486819148">
        <ele>394.2779541015625</ele>
        <time>2005-09-04T07:10:37Z</time>
      </trkpt>
      <trkpt lat="45.762151619419456" lon="8.942259466275573">
        <ele>394.2779541015625</ele>
        <time>2005-09-04T07:10:40Z</time>
      </trkpt>
      <trkpt lat="45.76206536963582" lon="8.942311266437173">
        <ele>393.7972412109375</ele>
        <time>2005-09-04T07:10:43Z</time>
      </trkpt>
      <trkpt lat="45.761977611109614" lon="8.942363988608122">
        <ele>393.3165283203125</ele>
        <time>2005-09-04T07:10:46Z</time>
      </trkpt>
      <trkpt lat="45.761897983029485" lon="8.942462140694261">
        <ele>393.3165283203125</ele>
        <time>2005-09-04T07:10:49Z</time>
      </trkpt>
      <trkpt lat="45.761860767379403" lon="8.942573787644506">
        <ele>393.3165283203125</ele>
        <time>2005-09-04T07:10:52Z</time>
      </trkpt>
      <trkpt lat="45.761826485395432" lon="8.942687781527638">
        <ele>392.8359375</ele>
        <time>2005-09-04T07:10:55Z</time>
      </trkpt>
      <trkpt lat="45.76180100440979" lon="8.942806469276547">
        <ele>392.8359375</ele>
        <time>2005-09-04T07:10:58Z</time>
      </trkpt>
      <trkpt lat="45.761766219511628" lon="8.942968742921948">
        <ele>393.3165283203125</ele>
        <time>2005-09-04T07:11:02Z</time>
      </trkpt>
      <trkpt lat="45.761736044660211" lon="8.94310955889523">
        <ele>392.8359375</ele>
        <time>2005-09-04T07:11:05Z</time>
      </trkpt>
      <trkpt lat="45.761679047718644" lon="8.943302426487207">
        <ele>392.8359375</ele>
        <time>2005-09-04T07:11:09Z</time>
      </trkpt>
      <trkpt lat="45.761624146252871" lon="8.943400159478188">
        <ele>393.3165283203125</ele>
        <time>2005-09-04T07:11:12Z</time>
      </trkpt>
      <trkpt lat="45.76154887676239" lon="8.943533850833774">
        <ele>392.8359375</ele>
        <time>2005-09-04T07:11:16Z</time>
      </trkpt>
      <trkpt lat="45.761493220925331" lon="8.94363284111023">
        <ele>393.3165283203125</ele>
        <time>2005-09-04T07:11:19Z</time>
      </trkpt>
      <trkpt lat="45.761433290317655" lon="8.94373937509954">
        <ele>392.3553466796875</ele>
        <time>2005-09-04T07:11:22Z</time>
      </trkpt>
      <trkpt lat="45.761374114081264" lon="8.943844567984343">
        <ele>392.8359375</ele>
        <time>2005-09-04T07:11:25Z</time>
      </trkpt>
      <trkpt lat="45.761309405788779" lon="8.943948419764638">
        <ele>393.7972412109375</ele>
        <time>2005-09-04T07:11:28Z</time>
      </trkpt>
      <trkpt lat="45.761204631999135" lon="8.944000890478492">
        <ele>393.7972412109375</ele>
        <time>2005-09-04T07:11:32Z</time>
      </trkpt>
      <trkpt lat="45.76113648712635" lon="8.944021090865135">
        <ele>394.758544921875</ele>
        <time>2005-09-04T07:11:36Z</time>
      </trkpt>
      <trkpt lat="45.761091895401478" lon="8.943982869386673">
        <ele>395.2391357421875</ele>
        <time>2005-09-04T07:11:40Z</time>
      </trkpt>
      <trkpt lat="45.761049734428525" lon="8.943946743384004">
        <ele>396.2005615234375</ele>
        <time>2005-09-04T07:11:44Z</time>
      </trkpt>
      <trkpt lat="45.760573642328382" lon="8.944552754983306">
        <ele>396.68115234375</ele>
        <time>2005-09-04T07:11:49Z</time>
      </trkpt>
      <trkpt lat="45.760763911530375" lon="8.94427883438766">
        <ele>398.1231689453125</ele>
        <time>2005-09-04T07:11:54Z</time>
      </trkpt>
      <trkpt lat="45.760635333135724" lon="8.944418728351593">
        <ele>398.1231689453125</ele>
        <time>2005-09-04T07:11:59Z</time>
      </trkpt>
      <trkpt lat="45.760519746690989" lon="8.94439953379333">
        <ele>399.0843505859375</ele>
        <time>2005-09-04T07:12:04Z</time>
      </trkpt>
      <trkpt lat="45.760482531040907" lon="8.944491567090154">
        <ele>401.48779296875</ele>
        <time>2005-09-04T07:12:11Z</time>
      </trkpt>
      <trkpt lat="45.760386642068624" lon="8.944557951763272">
        <ele>401.968505859375</ele>
        <time>2005-09-04T07:12:18Z</time>
      </trkpt>
      <trkpt lat="45.76028672978282" lon="8.944620899856091">
        <ele>402.4490966796875</ele>
        <time>2005-09-04T07:12:24Z</time>
      </trkpt>
      <trkpt lat="45.760191176086664" lon="8.944665407761931">
        <ele>402.4490966796875</ele>
        <time>2005-09-04T07:12:31Z</time>
      </trkpt>
      <trkpt lat="45.760098807513714" lon="8.944714860990644">
        <ele>403.89111328125</ele>
        <time>2005-09-04T07:12:37Z</time>
      </trkpt>
      <trkpt lat="45.759995877742767" lon="8.944750064983964">
        <ele>404.852294921875</ele>
        <time>2005-09-04T07:12:43Z</time>
      </trkpt>
      <trkpt lat="45.759882554411888" lon="8.944827346131206">
        <ele>404.3717041015625</ele>
        <time>2005-09-04T07:12:50Z</time>
      </trkpt>
      <trkpt lat="45.759771158918738" lon="8.944883169606328">
        <ele>404.852294921875</ele>
        <time>2005-09-04T07:12:57Z</time>
      </trkpt>
      <trkpt lat="45.759667307138443" lon="8.944874033331871">
        <ele>404.3717041015625</ele>
        <time>2005-09-04T07:13:07Z</time>
      </trkpt>
      <trkpt lat="45.759548954665661" lon="8.944913763552904">
        <ele>403.410400390625</ele>
        <time>2005-09-04T07:13:14Z</time>
      </trkpt>
      <trkpt lat="45.759434541687369" lon="8.944957014173269">
        <ele>403.410400390625</ele>
        <time>2005-09-04T07:13:20Z</time>
      </trkpt>
      <trkpt lat="45.759322894737124" lon="8.945040665566921">
        <ele>403.410400390625</ele>
        <time>2005-09-04T07:13:25Z</time>
      </trkpt>
      <trkpt lat="45.759218037128448" lon="8.945124987512827">
        <ele>403.89111328125</ele>
        <time>2005-09-04T07:13:29Z</time>
      </trkpt>
      <trkpt lat="45.7591169513762" lon="8.945194976404309">
        <ele>403.89111328125</ele>
        <time>2005-09-04T07:13:33Z</time>
      </trkpt>
      <trkpt lat="45.758995749056339" lon="8.94526731222868">
        <ele>403.89111328125</ele>
        <time>2005-09-04T07:13:38Z</time>
      </trkpt>
      <trkpt lat="45.758881419897079" lon="8.945324560627341">
        <ele>403.89111328125</ele>
        <time>2005-09-04T07:13:43Z</time>
      </trkpt>
      <trkpt lat="45.758759044110775" lon="8.945383820682764">
        <ele>404.3717041015625</ele>
        <time>2005-09-04T07:13:48Z</time>
      </trkpt>
      <trkpt lat="45.758657455444336" lon="8.945427155122161">
        <ele>403.410400390625</ele>
        <time>2005-09-04T07:13:53Z</time>
      </trkpt>
      <trkpt lat="45.758559973910451" lon="8.945464538410306">
        <ele>402.9296875</ele>
        <time>2005-09-04T07:13:58Z</time>
      </trkpt>
      <trkpt lat="45.758460061624646" lon="8.945523211732507">
        <ele>402.4490966796875</ele>
        <time>2005-09-04T07:14:03Z</time>
      </trkpt>
      <trkpt lat="45.758360149338841" lon="8.945566881448031">
        <ele>402.4490966796875</ele>
        <time>2005-09-04T07:14:08Z</time>
      </trkpt>
      <trkpt lat="45.7582569681108" lon="8.945627650246024">
        <ele>401.968505859375</ele>
        <time>2005-09-04T07:14:13Z</time>
      </trkpt>
      <trkpt lat="45.758153032511473" lon="8.94568950869143">
        <ele>401.48779296875</ele>
        <time>2005-09-04T07:14:18Z</time>
      </trkpt>
      <trkpt lat="45.758049935102463" lon="8.945747930556536">
        <ele>401.007080078125</ele>
        <time>2005-09-04T07:14:23Z</time>
      </trkpt>
      <trkpt lat="45.757934767752886" lon="8.945826720446348">
        <ele>401.007080078125</ele>
        <time>2005-09-04T07:14:28Z</time>
      </trkpt>
      <trkpt lat="45.757852457463741" lon="8.945902409031987">
        <ele>401.48779296875</ele>
        <time>2005-09-04T07:14:33Z</time>
      </trkpt>
      <trkpt lat="45.757755395025015" lon="8.945974661037326">
        <ele>401.48779296875</ele>
        <time>2005-09-04T07:14:38Z</time>
      </trkpt>
      <trkpt lat="45.757665038108826" lon="8.946024365723133">
        <ele>401.007080078125</ele>
        <time>2005-09-04T07:14:43Z</time>
      </trkpt>
      <trkpt lat="45.757569232955575" lon="8.946106424555183">
        <ele>400.5264892578125</ele>
        <time>2005-09-04T07:14:48Z</time>
      </trkpt>
      <trkpt lat="45.757502261549234" lon="8.946184124797583">
        <ele>400.0458984375</ele>
        <time>2005-09-04T07:14:52Z</time>
      </trkpt>
      <trkpt lat="45.757421040907502" lon="8.946288730949163">
        <ele>400.0458984375</ele>
        <time>2005-09-04T07:14:57Z</time>
      </trkpt>
      <trkpt lat="45.757343089208007" lon="8.946395600214601">
        <ele>400.0458984375</ele>
        <time>2005-09-04T07:15:02Z</time>
      </trkpt>
      <trkpt lat="45.757286930456758" lon="8.946500960737467">
        <ele>400.0458984375</ele>
        <time>2005-09-04T07:15:06Z</time>
      </trkpt>
      <trkpt lat="45.757220042869449" lon="8.94663599319756">
        <ele>400.5264892578125</ele>
        <time>2005-09-04T07:15:11Z</time>
      </trkpt>
      <trkpt lat="45.757168577983975" lon="8.946749232709408">
        <ele>400.5264892578125</ele>
        <time>2005-09-04T07:15:15Z</time>
      </trkpt>
      <trkpt lat="45.75710822828114" lon="8.946850737556815">
        <ele>401.007080078125</ele>
        <time>2005-09-04T07:15:19Z</time>
      </trkpt>
      <trkpt lat="45.757032539695501" lon="8.94695945084095">
        <ele>400.5264892578125</ele>
        <time>2005-09-04T07:15:25Z</time>
      </trkpt>
      <trkpt lat="45.75694939121604" lon="8.947043521329761">
        <ele>400.5264892578125</ele>
        <time>2005-09-04T07:15:34Z</time>
      </trkpt>
      <trkpt lat="45.756884934380651" lon="8.947184756398201">
        <ele>401.968505859375</ele>
        <time>2005-09-04T07:15:41Z</time>
      </trkpt>
      <trkpt lat="45.756831038743258" lon="8.947329763323069">
        <ele>402.4490966796875</ele>
        <time>2005-09-04T07:15:47Z</time>
      </trkpt>
      <trkpt lat="45.756787788122892" lon="8.947471501305699">
        <ele>402.9296875</ele>
        <time>2005-09-04T07:15:54Z</time>
      </trkpt>
      <trkpt lat="45.756751578301191" lon="8.947622710838914">
        <ele>401.968505859375</ele>
        <time>2005-09-04T07:16:00Z</time>
      </trkpt>
      <trkpt lat="45.756667759269476" lon="8.947742320597172">
        <ele>401.007080078125</ele>
        <time>2005-09-04T07:16:08Z</time>
      </trkpt>
      <trkpt lat="45.756557369604707" lon="8.947746427729726">
        <ele>401.007080078125</ele>
        <time>2005-09-04T07:16:17Z</time>
      </trkpt>
      <trkpt lat="45.756556112319231" lon="8.947876766324043">
        <ele>401.968505859375</ele>
        <time>2005-09-04T07:16:23Z</time>
      </trkpt>
      <trkpt lat="45.756557285785675" lon="8.948097880929709">
        <ele>401.48779296875</ele>
        <time>2005-09-04T07:16:30Z</time>
      </trkpt>
      <trkpt lat="45.756558375433087" lon="8.948272727429867">
        <ele>401.968505859375</ele>
        <time>2005-09-04T07:16:37Z</time>
      </trkpt>
      <trkpt lat="45.756560051813722" lon="8.948443718254566">
        <ele>402.4490966796875</ele>
        <time>2005-09-04T07:16:44Z</time>
      </trkpt>
      <trkpt lat="45.75657363049686" lon="8.948610685765743">
        <ele>402.4490966796875</ele>
        <time>2005-09-04T07:16:51Z</time>
      </trkpt>
      <trkpt lat="45.756610929965973" lon="8.948797266930342">
        <ele>401.48779296875</ele>
        <time>2005-09-04T07:17:04Z</time>
      </trkpt>
      <trkpt lat="45.756630292162299" lon="8.948993152007461">
        <ele>400.0458984375</ele>
        <time>2005-09-04T07:17:11Z</time>
      </trkpt>
      <trkpt lat="45.756642781198025" lon="8.949124328792095">
        <ele>399.0843505859375</ele>
        <time>2005-09-04T07:17:17Z</time>
      </trkpt>
      <trkpt lat="45.756656443700194" lon="8.949335720390081">
        <ele>395.2391357421875</ele>
        <time>2005-09-04T07:17:25Z</time>
      </trkpt>
      <trkpt lat="45.756577989086509" lon="8.949515344575048">
        <ele>393.7972412109375</ele>
        <time>2005-09-04T07:17:32Z</time>
      </trkpt>
      <trkpt lat="45.756506742909551" lon="8.949642749503255">
        <ele>393.7972412109375</ele>
        <time>2005-09-04T07:17:37Z</time>
      </trkpt>
      <trkpt lat="45.756419654935598" lon="8.949778452515602">
        <ele>394.2779541015625</ele>
        <time>2005-09-04T07:17:43Z</time>
      </trkpt>
      <trkpt lat="45.756324017420411" lon="8.949887501075864">
        <ele>395.2391357421875</ele>
        <time>2005-09-04T07:17:51Z</time>
      </trkpt>
      <trkpt lat="45.756235336884856" lon="8.95002462901175">
        <ele>396.2005615234375</ele>
        <time>2005-09-04T07:17:58Z</time>
      </trkpt>
      <trkpt lat="45.756146153435111" lon="8.950118506327272">
        <ele>396.2005615234375</ele>
        <time>2005-09-04T07:18:05Z</time>
      </trkpt>
      <trkpt lat="45.756046995520592" lon="8.950216323137283">
        <ele>395.7198486328125</ele>
        <time>2005-09-04T07:18:12Z</time>
      </trkpt>
      <trkpt lat="45.755926128476858" lon="8.950316570699215">
        <ele>396.68115234375</ele>
        <time>2005-09-04T07:18:19Z</time>
      </trkpt>
      <trkpt lat="45.75579478405416" lon="8.950346494093537">
        <ele>396.68115234375</ele>
        <time>2005-09-04T07:18:27Z</time>
      </trkpt>
      <trkpt lat="45.755659248679876" lon="8.950366443023086">
        <ele>396.2005615234375</ele>
        <time>2005-09-04T07:18:34Z</time>
      </trkpt>
      <trkpt lat="45.755536537617445" lon="8.950360575690866">
        <ele>395.2391357421875</ele>
        <time>2005-09-04T07:18:41Z</time>
      </trkpt>
      <trkpt lat="45.755415335297585" lon="8.950356971472502">
        <ele>395.2391357421875</ele>
        <time>2005-09-04T07:18:47Z</time>
      </trkpt>
      <trkpt lat="45.755272004753351" lon="8.950359737500548">
        <ele>394.758544921875</ele>
        <time>2005-09-04T07:18:53Z</time>
      </trkpt>
      <trkpt lat="45.755143510177732" lon="8.950404413044453">
        <ele>395.2391357421875</ele>
        <time>2005-09-04T07:18:59Z</time>
      </trkpt>
      <trkpt lat="45.755012836307287" lon="8.950486471876502">
        <ele>394.758544921875</ele>
        <time>2005-09-04T07:19:04Z</time>
      </trkpt>
      <trkpt lat="45.754888700321317" lon="8.950529135763645">
        <ele>394.758544921875</ele>
        <time>2005-09-04T07:19:10Z</time>
      </trkpt>
      <trkpt lat="45.754774119704962" lon="8.950565261766315">
        <ele>395.2391357421875</ele>
        <time>2005-09-04T07:19:15Z</time>
      </trkpt>
      <trkpt lat="45.754656437784433" lon="8.950614631175995">
        <ele>395.7198486328125</ele>
        <time>2005-09-04T07:19:21Z</time>
      </trkpt>
      <trkpt lat="45.754538252949715" lon="8.950653523206711">
        <ele>395.7198486328125</ele>
        <time>2005-09-04T07:19:26Z</time>
      </trkpt>
      <trkpt lat="45.754402298480272" lon="8.950676573440433">
        <ele>395.2391357421875</ele>
        <time>2005-09-04T07:19:33Z</time>
      </trkpt>
      <trkpt lat="45.754263997077942" lon="8.950690235942602">
        <ele>395.2391357421875</ele>
        <time>2005-09-04T07:19:41Z</time>
      </trkpt>
      <trkpt lat="45.754132736474276" lon="8.950712364166975">
        <ele>394.758544921875</ele>
        <time>2005-09-04T07:19:52Z</time>
      </trkpt>
      <trkpt lat="45.753995273262262" lon="8.950699288398027">
        <ele>393.3165283203125</ele>
        <time>2005-09-04T07:20:01Z</time>
      </trkpt>
      <trkpt lat="45.75386862270534" lon="8.950723093003035">
        <ele>393.3165283203125</ele>
        <time>2005-09-04T07:20:08Z</time>
      </trkpt>
      <trkpt lat="45.753749348223209" lon="8.950755195692182">
        <ele>393.3165283203125</ele>
        <time>2005-09-04T07:20:15Z</time>
      </trkpt>
      <trkpt lat="45.753622949123383" lon="8.950799368321896">
        <ele>393.3165283203125</ele>
        <time>2005-09-04T07:20:22Z</time>
      </trkpt>
      <trkpt lat="45.753501830622554" lon="8.950833398848772">
        <ele>393.3165283203125</ele>
        <time>2005-09-04T07:20:29Z</time>
      </trkpt>
      <trkpt lat="45.753366714343429" lon="8.950824849307537">
        <ele>392.8359375</ele>
        <time>2005-09-04T07:20:35Z</time>
      </trkpt>
      <trkpt lat="45.753224724903703" lon="8.950795596465468">
        <ele>393.7972412109375</ele>
        <time>2005-09-04T07:20:41Z</time>
      </trkpt>
      <trkpt lat="45.753101343289018" lon="8.950776737183332">
        <ele>393.3165283203125</ele>
        <time>2005-09-04T07:20:47Z</time>
      </trkpt>
      <trkpt lat="45.752956671640277" lon="8.950782939791679">
        <ele>392.8359375</ele>
        <time>2005-09-04T07:20:53Z</time>
      </trkpt>
      <trkpt lat="45.752838319167495" lon="8.950788052752614">
        <ele>393.3165283203125</ele>
        <time>2005-09-04T07:20:59Z</time>
      </trkpt>
      <trkpt lat="45.752723487094045" lon="8.950741700828075">
        <ele>392.3553466796875</ele>
        <time>2005-09-04T07:21:07Z</time>
      </trkpt>
      <trkpt lat="45.752570852637291" lon="8.950751591473818">
        <ele>390.4326171875</ele>
        <time>2005-09-04T07:21:15Z</time>
      </trkpt>
      <trkpt lat="45.752428192645311" lon="8.950796350836754">
        <ele>389.951904296875</ele>
        <time>2005-09-04T07:21:21Z</time>
      </trkpt>
      <trkpt lat="45.752304308116436" lon="8.950847312808037">
        <ele>390.4326171875</ele>
        <time>2005-09-04T07:21:26Z</time>
      </trkpt>
      <trkpt lat="45.752149997279048" lon="8.95097597502172">
        <ele>389.951904296875</ele>
        <time>2005-09-04T07:21:31Z</time>
      </trkpt>
      <trkpt lat="45.752014545723796" lon="8.951041689142585">
        <ele>389.951904296875</ele>
        <time>2005-09-04T07:21:36Z</time>
      </trkpt>
      <trkpt lat="45.751897701993585" lon="8.951085861772299">
        <ele>389.951904296875</ele>
        <time>2005-09-04T07:21:41Z</time>
      </trkpt>
      <trkpt lat="45.751778930425644" lon="8.951127771288157">
        <ele>389.47119140625</ele>
        <time>2005-09-04T07:21:46Z</time>
      </trkpt>
      <trkpt lat="45.7516482565552" lon="8.95116507075727">
        <ele>389.47119140625</ele>
        <time>2005-09-04T07:21:51Z</time>
      </trkpt>
      <trkpt lat="45.751616237685084" lon="8.95109323784709">
        <ele>388.9906005859375</ele>
        <time>2005-09-04T07:21:56Z</time>
      </trkpt>
      <trkpt lat="45.751537950709462" lon="8.951256349682808">
        <ele>388.510009765625</ele>
        <time>2005-09-04T07:21:59Z</time>
      </trkpt>
      <trkpt lat="45.751463770866394" lon="8.951337151229382">
        <ele>388.510009765625</ele>
        <time>2005-09-04T07:22:03Z</time>
      </trkpt>
      <trkpt lat="45.75135849416256" lon="8.95143773406744">
        <ele>388.029296875</ele>
        <time>2005-09-04T07:22:07Z</time>
      </trkpt>
      <trkpt lat="45.751260593533516" lon="8.951524067670107">
        <ele>387.548583984375</ele>
        <time>2005-09-04T07:22:11Z</time>
      </trkpt>
      <trkpt lat="45.751143163070083" lon="8.9516556635499">
        <ele>388.029296875</ele>
        <time>2005-09-04T07:22:15Z</time>
      </trkpt>
      <trkpt lat="45.751065295189619" lon="8.951777452602983">
        <ele>388.029296875</ele>
        <time>2005-09-04T07:22:20Z</time>
      </trkpt>
      <trkpt lat="45.750942835584283" lon="8.951892871409655">
        <ele>387.548583984375</ele>
        <time>2005-09-04T07:22:27Z</time>
      </trkpt>
      <trkpt lat="45.75083177536726" lon="8.951986497268081">
        <ele>387.548583984375</ele>
        <time>2005-09-04T07:22:33Z</time>
      </trkpt>
      <trkpt lat="45.750718787312508" lon="8.95206511951983">
        <ele>387.548583984375</ele>
        <time>2005-09-04T07:22:39Z</time>
      </trkpt>
      <trkpt lat="45.750568164512515" lon="8.952065203338862">
        <ele>387.0679931640625</ele>
        <time>2005-09-04T07:22:46Z</time>
      </trkpt>
      <trkpt lat="45.750420726835728" lon="8.952081715688109">
        <ele>387.0679931640625</ele>
        <time>2005-09-04T07:22:53Z</time>
      </trkpt>
      <trkpt lat="45.750294746831059" lon="8.952086241915822">
        <ele>387.548583984375</ele>
        <time>2005-09-04T07:22:59Z</time>
      </trkpt>
      <trkpt lat="45.750206485390663" lon="8.952151872217655">
        <ele>388.029296875</ele>
        <time>2005-09-04T07:23:07Z</time>
      </trkpt>
      <trkpt lat="45.75017019174993" lon="8.952289586886764">
        <ele>388.510009765625</ele>
        <time>2005-09-04T07:23:15Z</time>
      </trkpt>
      <trkpt lat="45.750162648037076" lon="8.952439790591598">
        <ele>389.951904296875</ele>
        <time>2005-09-04T07:23:22Z</time>
      </trkpt>
      <trkpt lat="45.750165749341249" lon="8.952579097822309">
        <ele>390.4326171875</ele>
        <time>2005-09-04T07:23:29Z</time>
      </trkpt>
      <trkpt lat="45.750189051032066" lon="8.952737599611282">
        <ele>389.47119140625</ele>
        <time>2005-09-04T07:23:37Z</time>
      </trkpt>
      <trkpt lat="45.750248059630394" lon="8.952914541587234">
        <ele>388.9906005859375</ele>
        <time>2005-09-04T07:23:44Z</time>
      </trkpt>
      <trkpt lat="45.750279240310192" lon="8.953086705878377">
        <ele>389.47119140625</ele>
        <time>2005-09-04T07:23:50Z</time>
      </trkpt>
      <trkpt lat="45.750296423211694" lon="8.953233975917101">
        <ele>388.9906005859375</ele>
        <time>2005-09-04T07:23:56Z</time>
      </trkpt>
      <trkpt lat="45.750347469002008" lon="8.953380156308413">
        <ele>388.510009765625</ele>
        <time>2005-09-04T07:24:03Z</time>
      </trkpt>
      <trkpt lat="45.750435059890151" lon="8.953516697511077">
        <ele>388.510009765625</ele>
        <time>2005-09-04T07:24:11Z</time>
      </trkpt>
      <trkpt lat="45.750800259411335" lon="8.954186076298356">
        <ele>388.510009765625</ele>
        <time>2005-09-04T07:24:19Z</time>
      </trkpt>
      <trkpt lat="45.751055153086782" lon="8.954008212313056">
        <ele>388.9906005859375</ele>
        <time>2005-09-04T07:24:26Z</time>
      </trkpt>
      <trkpt lat="45.751107288524508" lon="8.954120026901364">
        <ele>388.510009765625</ele>
        <time>2005-09-04T07:24:33Z</time>
      </trkpt>
      <trkpt lat="45.751280458644032" lon="8.954084906727076">
        <ele>388.510009765625</ele>
        <time>2005-09-04T07:24:40Z</time>
      </trkpt>
      <trkpt lat="45.751331755891442" lon="8.95422781817615">
        <ele>388.9906005859375</ele>
        <time>2005-09-04T07:24:47Z</time>
      </trkpt>
      <trkpt lat="45.751504004001617" lon="8.95443007349968">
        <ele>388.9906005859375</ele>
        <time>2005-09-04T07:24:54Z</time>
      </trkpt>
      <trkpt lat="45.751576004549861" lon="8.954551611095667">
        <ele>388.9906005859375</ele>
        <time>2005-09-04T07:25:00Z</time>
      </trkpt>
      <trkpt lat="45.751667115837336" lon="8.954701982438564">
        <ele>389.47119140625</ele>
        <time>2005-09-04T07:25:06Z</time>
      </trkpt>
      <trkpt lat="45.751733249053359" lon="8.954827878624201">
        <ele>388.9906005859375</ele>
        <time>2005-09-04T07:25:12Z</time>
      </trkpt>
      <trkpt lat="45.751784965395927" lon="8.954941118136048">
        <ele>388.9906005859375</ele>
        <time>2005-09-04T07:25:18Z</time>
      </trkpt>
      <trkpt lat="45.751839028671384" lon="8.95507900044322">
        <ele>388.9906005859375</ele>
        <time>2005-09-04T07:25:24Z</time>
      </trkpt>
      <trkpt lat="45.75188621878624" lon="8.955229036509991">
        <ele>388.9906005859375</ele>
        <time>2005-09-04T07:25:30Z</time>
      </trkpt>
      <trkpt lat="45.751916896551847" lon="8.955372534692287">
        <ele>388.9906005859375</ele>
        <time>2005-09-04T07:25:36Z</time>
      </trkpt>
      <trkpt lat="45.751958722248673" lon="8.955532712861896">
        <ele>389.47119140625</ele>
        <time>2005-09-04T07:25:42Z</time>
      </trkpt>
      <trkpt lat="45.751986717805266" lon="8.955676127225161">
        <ele>389.47119140625</ele>
        <time>2005-09-04T07:25:47Z</time>
      </trkpt>
      <trkpt lat="45.752017898485065" lon="8.955833790823817">
        <ele>388.9906005859375</ele>
        <time>2005-09-04T07:25:53Z</time>
      </trkpt>
      <trkpt lat="45.752038601785898" lon="8.955981899052858">
        <ele>388.029296875</ele>
        <time>2005-09-04T07:25:59Z</time>
      </trkpt>
      <trkpt lat="45.752064920961857" lon="8.956132605671883">
        <ele>388.510009765625</ele>
        <time>2005-09-04T07:26:05Z</time>
      </trkpt>
      <trkpt lat="45.752080762758851" lon="8.956297561526299">
        <ele>388.029296875</ele>
        <time>2005-09-04T07:26:12Z</time>
      </trkpt>
      <trkpt lat="45.752114290371537" lon="8.956479700282216">
        <ele>387.548583984375</ele>
        <time>2005-09-04T07:26:20Z</time>
      </trkpt>
      <trkpt lat="45.752136753872037" lon="8.956637615337968">
        <ele>386.106689453125</ele>
        <time>2005-09-04T07:26:28Z</time>
      </trkpt>
      <trkpt lat="45.752155864611268" lon="8.956821849569678">
        <ele>385.1453857421875</ele>
        <time>2005-09-04T07:26:35Z</time>
      </trkpt>
      <trkpt lat="45.752177573740482" lon="8.956978842616081">
        <ele>384.664794921875</ele>
        <time>2005-09-04T07:26:40Z</time>
      </trkpt>
      <trkpt lat="45.752200456336141" lon="8.95714052952826">
        <ele>384.18408203125</ele>
        <time>2005-09-04T07:26:45Z</time>
      </trkpt>
      <trkpt lat="45.752226440235972" lon="8.957311604171991">
        <ele>384.18408203125</ele>
        <time>2005-09-04T07:26:50Z</time>
      </trkpt>
      <trkpt lat="45.752269690856338" lon="8.957518050447106">
        <ele>384.18408203125</ele>
        <time>2005-09-04T07:26:56Z</time>
      </trkpt>
      <trkpt lat="45.752318389713764" lon="8.957687364891172">
        <ele>383.7032470703125</ele>
        <time>2005-09-04T07:27:02Z</time>
      </trkpt>
      <trkpt lat="45.752366837114096" lon="8.957826169207692">
        <ele>382.7420654296875</ele>
        <time>2005-09-04T07:27:07Z</time>
      </trkpt>
      <trkpt lat="45.752421487122774" lon="8.958021299913526">
        <ele>382.7420654296875</ele>
        <time>2005-09-04T07:27:12Z</time>
      </trkpt>
      <trkpt lat="45.752450907602906" lon="8.95817837677896">
        <ele>382.7420654296875</ele>
        <time>2005-09-04T07:27:17Z</time>
      </trkpt>
      <trkpt lat="45.752497343346477" lon="8.958367221057415">
        <ele>383.22265625</ele>
        <time>2005-09-04T07:27:22Z</time>
      </trkpt>
      <trkpt lat="45.752518801018596" lon="8.958501582965255">
        <ele>382.7420654296875</ele>
        <time>2005-09-04T07:27:27Z</time>
      </trkpt>
      <trkpt lat="45.752557860687375" lon="8.958679614588618">
        <ele>383.7032470703125</ele>
        <time>2005-09-04T07:27:32Z</time>
      </trkpt>
      <trkpt lat="45.752595830708742" lon="8.958849515765905">
        <ele>383.7032470703125</ele>
        <time>2005-09-04T07:27:37Z</time>
      </trkpt>
      <trkpt lat="45.752627179026604" lon="8.958997540175915">
        <ele>384.664794921875</ele>
        <time>2005-09-04T07:27:42Z</time>
      </trkpt>
      <trkpt lat="45.752998581156135" lon="8.959747804328799">
        <ele>385.1453857421875</ele>
        <time>2005-09-04T07:27:48Z</time>
      </trkpt>
      <trkpt lat="45.753023307770491" lon="8.959893649443984">
        <ele>386.106689453125</ele>
        <time>2005-09-04T07:27:54Z</time>
      </trkpt>
      <trkpt lat="45.753136044368148" lon="8.960036393254995">
        <ele>386.58740234375</ele>
        <time>2005-09-04T07:28:00Z</time>
      </trkpt>
      <trkpt lat="45.753285996615887" lon="8.960123984143138">
        <ele>386.58740234375</ele>
        <time>2005-09-04T07:28:06Z</time>
      </trkpt>
      <trkpt lat="45.753342071548104" lon="8.960261447355151">
        <ele>386.58740234375</ele>
        <time>2005-09-04T07:28:12Z</time>
      </trkpt>
      <trkpt lat="45.753466626629233" lon="8.96036496385932">
        <ele>387.0679931640625</ele>
        <time>2005-09-04T07:28:18Z</time>
      </trkpt>
      <trkpt lat="45.753492275252938" lon="8.960460098460317">
        <ele>386.58740234375</ele>
        <time>2005-09-04T07:28:25Z</time>
      </trkpt>
      <trkpt lat="45.753597300499678" lon="8.960499744862318">
        <ele>387.0679931640625</ele>
        <time>2005-09-04T07:28:34Z</time>
      </trkpt>
      <trkpt lat="45.753716072067618" lon="8.960477281361818">
        <ele>387.0679931640625</ele>
        <time>2005-09-04T07:28:43Z</time>
      </trkpt>
      <trkpt lat="45.753824030980468" lon="8.960445849224925">
        <ele>387.548583984375</ele>
        <time>2005-09-04T07:28:50Z</time>
      </trkpt>
      <trkpt lat="45.753923943266273" lon="8.96039480343461">
        <ele>387.0679931640625</ele>
        <time>2005-09-04T07:28:56Z</time>
      </trkpt>
      <trkpt lat="45.754024609923363" lon="8.960344847291708">
        <ele>387.0679931640625</ele>
        <time>2005-09-04T07:29:02Z</time>
      </trkpt>
      <trkpt lat="45.754128294065595" lon="8.960291119292378">
        <ele>387.548583984375</ele>
        <time>2005-09-04T07:29:07Z</time>
      </trkpt>
      <trkpt lat="45.75423751026392" lon="8.960222387686372">
        <ele>387.0679931640625</ele>
        <time>2005-09-04T07:29:12Z</time>
      </trkpt>
      <trkpt lat="45.754335494711995" lon="8.960156589746475">
        <ele>387.548583984375</ele>
        <time>2005-09-04T07:29:17Z</time>
      </trkpt>
      <trkpt lat="45.754426354542375" lon="8.960089115425944">
        <ele>387.548583984375</ele>
        <time>2005-09-04T07:29:22Z</time>
      </trkpt>
      <trkpt lat="45.754519226029515" lon="8.960032369941473">
        <ele>387.548583984375</ele>
        <time>2005-09-04T07:29:27Z</time>
      </trkpt>
      <trkpt lat="45.754632716998458" lon="8.959970930591226">
        <ele>387.548583984375</ele>
        <time>2005-09-04T07:29:33Z</time>
      </trkpt>
      <trkpt lat="45.754740424454212" lon="8.959925500676036">
        <ele>387.548583984375</ele>
        <time>2005-09-04T07:29:38Z</time>
      </trkpt>
      <trkpt lat="45.754837151616812" lon="8.959885351359844">
        <ele>388.029296875</ele>
        <time>2005-09-04T07:29:43Z</time>
      </trkpt>
      <trkpt lat="45.754943937063217" lon="8.95984117873013">
        <ele>388.029296875</ele>
        <time>2005-09-04T07:29:48Z</time>
      </trkpt>
      <trkpt lat="45.755041167140007" lon="8.959799604490399">
        <ele>388.510009765625</ele>
        <time>2005-09-04T07:29:53Z</time>
      </trkpt>
      <trkpt lat="45.75516052544117" lon="8.959747217595577">
        <ele>388.029296875</ele>
        <time>2005-09-04T07:29:59Z</time>
      </trkpt>
      <trkpt lat="45.755250127986073" lon="8.959715198725462">
        <ele>388.029296875</ele>
        <time>2005-09-04T07:30:04Z</time>
      </trkpt>
      <trkpt lat="45.755366804078221" lon="8.959691394120455">
        <ele>388.9906005859375</ele>
        <time>2005-09-04T07:30:10Z</time>
      </trkpt>
      <trkpt lat="45.755497058853507" lon="8.959666918963194">
        <ele>389.951904296875</ele>
        <time>2005-09-04T07:30:17Z</time>
      </trkpt>
      <trkpt lat="45.755624547600746" lon="8.959626602008939">
        <ele>389.951904296875</ele>
        <time>2005-09-04T07:30:24Z</time>
      </trkpt>
      <trkpt lat="45.755740804597735" lon="8.959591146558523">
        <ele>390.9132080078125</ele>
        <time>2005-09-04T07:30:30Z</time>
      </trkpt>
      <trkpt lat="45.755861084908247" lon="8.959538256749511">
        <ele>390.9132080078125</ele>
        <time>2005-09-04T07:30:36Z</time>
      </trkpt>
      <trkpt lat="45.755979605019093" lon="8.959483355283737">
        <ele>392.3553466796875</ele>
        <time>2005-09-04T07:30:42Z</time>
      </trkpt>
      <trkpt lat="45.756103238090873" lon="8.959389813244343">
        <ele>392.3553466796875</ele>
        <time>2005-09-04T07:30:49Z</time>
      </trkpt>
      <trkpt lat="45.756207928061485" lon="8.959310101345182">
        <ele>392.8359375</ele>
        <time>2005-09-04T07:30:56Z</time>
      </trkpt>
      <trkpt lat="45.756308007985353" lon="8.959210021421313">
        <ele>392.8359375</ele>
        <time>2005-09-04T07:31:02Z</time>
      </trkpt>
      <trkpt lat="45.756399035453796" lon="8.95910038612783">
        <ele>393.7972412109375</ele>
        <time>2005-09-04T07:31:09Z</time>
      </trkpt>
      <trkpt lat="45.756509592756629" lon="8.959001060575247">
        <ele>394.758544921875</ele>
        <time>2005-09-04T07:31:16Z</time>
      </trkpt>
      <trkpt lat="45.756596010178328" lon="8.958930736407638">
        <ele>394.758544921875</ele>
        <time>2005-09-04T07:31:22Z</time>
      </trkpt>
      <trkpt lat="45.756718721240759" lon="8.958851275965571">
        <ele>394.2779541015625</ele>
        <time>2005-09-04T07:31:28Z</time>
      </trkpt>
      <trkpt lat="45.756823746487498" lon="8.95878866314888">
        <ele>394.758544921875</ele>
        <time>2005-09-04T07:31:34Z</time>
      </trkpt>
      <trkpt lat="45.756926760077477" lon="8.958726972341538">
        <ele>394.758544921875</ele>
        <time>2005-09-04T07:31:39Z</time>
      </trkpt>
      <trkpt lat="45.757043603807688" lon="8.958667628467083">
        <ele>395.2391357421875</ele>
        <time>2005-09-04T07:31:45Z</time>
      </trkpt>
      <trkpt lat="45.757151897996664" lon="8.95857123658061">
        <ele>394.758544921875</ele>
        <time>2005-09-04T07:31:51Z</time>
      </trkpt>
      <trkpt lat="45.757252732291818" lon="8.958492111414671">
        <ele>394.758544921875</ele>
        <time>2005-09-04T07:31:56Z</time>
      </trkpt>
      <trkpt lat="45.757357506081462" lon="8.95842706784606">
        <ele>395.7198486328125</ele>
        <time>2005-09-04T07:32:02Z</time>
      </trkpt>
      <trkpt lat="45.757459094747901" lon="8.958364874124527">
        <ele>395.2391357421875</ele>
        <time>2005-09-04T07:32:08Z</time>
      </trkpt>
      <trkpt lat="45.757560934871435" lon="8.958323886618018">
        <ele>395.2391357421875</ele>
        <time>2005-09-04T07:32:14Z</time>
      </trkpt>
      <trkpt lat="45.757663529366255" lon="8.958282228559256">
        <ele>395.2391357421875</ele>
        <time>2005-09-04T07:32:20Z</time>
      </trkpt>
      <trkpt lat="45.757761765271425" lon="8.958230763673782">
        <ele>395.7198486328125</ele>
        <time>2005-09-04T07:32:25Z</time>
      </trkpt>
      <trkpt lat="45.757877686992288" lon="8.958155997097492">
        <ele>395.7198486328125</ele>
        <time>2005-09-04T07:32:30Z</time>
      </trkpt>
      <trkpt lat="45.757986903190613" lon="8.958106124773622">
        <ele>395.7198486328125</ele>
        <time>2005-09-04T07:32:36Z</time>
      </trkpt>
      <trkpt lat="45.758091257885098" lon="8.958052480593324">
        <ele>395.7198486328125</ele>
        <time>2005-09-04T07:32:42Z</time>
      </trkpt>
      <trkpt lat="45.758196618407965" lon="8.957990035414696">
        <ele>395.7198486328125</ele>
        <time>2005-09-04T07:32:48Z</time>
      </trkpt>
      <trkpt lat="45.758296698331833" lon="8.957936055958271">
        <ele>396.68115234375</ele>
        <time>2005-09-04T07:32:54Z</time>
      </trkpt>
      <trkpt lat="45.758402226492763" lon="8.957868749275804">
        <ele>396.2005615234375</ele>
        <time>2005-09-04T07:32:59Z</time>
      </trkpt>
      <trkpt lat="45.758499624207616" lon="8.957789791747928">
        <ele>395.7198486328125</ele>
        <time>2005-09-04T07:33:04Z</time>
      </trkpt>
      <trkpt lat="45.758601296693087" lon="8.957714438438416">
        <ele>395.7198486328125</ele>
        <time>2005-09-04T07:33:10Z</time>
      </trkpt>
      <trkpt lat="45.75871336273849" lon="8.95760421641171">
        <ele>395.7198486328125</ele>
        <time>2005-09-04T07:33:16Z</time>
      </trkpt>
      <trkpt lat="45.758816627785563" lon="8.957525175064802">
        <ele>396.2005615234375</ele>
        <time>2005-09-04T07:33:22Z</time>
      </trkpt>
      <trkpt lat="45.758927017450333" lon="8.957467759028077">
        <ele>396.2005615234375</ele>
        <time>2005-09-04T07:33:28Z</time>
      </trkpt>
      <trkpt lat="45.759038832038641" lon="8.957439260557294">
        <ele>396.2005615234375</ele>
        <time>2005-09-04T07:33:35Z</time>
      </trkpt>
      <trkpt lat="45.759125920012593" lon="8.957494413480163">
        <ele>395.2391357421875</ele>
        <time>2005-09-04T07:33:43Z</time>
      </trkpt>
      <trkpt lat="45.759249972179532" lon="8.957444289699197">
        <ele>397.6424560546875</ele>
        <time>2005-09-04T07:38:14Z</time>
      </trkpt>
      <trkpt lat="45.759334126487374" lon="8.957363152876496">
        <ele>397.6424560546875</ele>
        <time>2005-09-04T07:38:20Z</time>
      </trkpt>
      <trkpt lat="45.759465806186199" lon="8.957313364371657">
        <ele>397.6424560546875</ele>
        <time>2005-09-04T07:38:27Z</time>
      </trkpt>
      <trkpt lat="45.759554402902722" lon="8.957360051572323">
        <ele>396.68115234375</ele>
        <time>2005-09-04T07:38:37Z</time>
      </trkpt>
      <trkpt lat="45.759645095095038" lon="8.957428280264139">
        <ele>395.7198486328125</ele>
        <time>2005-09-04T07:38:47Z</time>
      </trkpt>
      <trkpt lat="45.759718772023916" lon="8.957554427906871">
        <ele>394.758544921875</ele>
        <time>2005-09-04T07:38:56Z</time>
      </trkpt>
      <trkpt lat="45.759775601327419" lon="8.95776498131454">
        <ele>393.7972412109375</ele>
        <time>2005-09-04T07:39:04Z</time>
      </trkpt>
      <trkpt lat="45.759857157245278" lon="8.958584731444717">
        <ele>393.3165283203125</ele>
        <time>2005-09-04T07:39:11Z</time>
      </trkpt>
      <trkpt lat="45.759896971285343" lon="8.958808863535523">
        <ele>392.3553466796875</ele>
        <time>2005-09-04T07:39:26Z</time>
      </trkpt>
      <trkpt lat="45.759973665699363" lon="8.958952780812979">
        <ele>391.87451171875</ele>
        <time>2005-09-04T07:39:34Z</time>
      </trkpt>
      <trkpt lat="45.760005936026573" lon="8.959074569866061">
        <ele>390.9132080078125</ele>
        <time>2005-09-04T07:39:41Z</time>
      </trkpt>
      <trkpt lat="45.7600287348032" lon="8.95920985378325">
        <ele>389.951904296875</ele>
        <time>2005-09-04T07:39:46Z</time>
      </trkpt>
      <trkpt lat="45.760079612955451" lon="8.959357123821974">
        <ele>388.9906005859375</ele>
        <time>2005-09-04T07:39:50Z</time>
      </trkpt>
      <trkpt lat="45.760125461965799" lon="8.959489390254021">
        <ele>387.0679931640625</ele>
        <time>2005-09-04T07:39:54Z</time>
      </trkpt>
      <trkpt lat="45.760188745334744" lon="8.959612185135484">
        <ele>386.58740234375</ele>
        <time>2005-09-04T07:39:59Z</time>
      </trkpt>
      <trkpt lat="45.760269714519382" lon="8.959688376635313">
        <ele>386.106689453125</ele>
        <time>2005-09-04T07:40:03Z</time>
      </trkpt>
      <trkpt lat="45.760386474430561" lon="8.959694411605597">
        <ele>386.106689453125</ele>
        <time>2005-09-04T07:40:08Z</time>
      </trkpt>
      <trkpt lat="45.760501306504011" lon="8.959686700254679">
        <ele>384.18408203125</ele>
        <time>2005-09-04T07:40:13Z</time>
      </trkpt>
      <trkpt lat="45.760601302608848" lon="8.959723161533475">
        <ele>384.18408203125</ele>
        <time>2005-09-04T07:40:18Z</time>
      </trkpt>
      <trkpt lat="45.760706076398492" lon="8.959758952260017">
        <ele>383.22265625</ele>
        <time>2005-09-04T07:40:23Z</time>
      </trkpt>
      <trkpt lat="45.760799199342728" lon="8.959790971130133">
        <ele>382.2613525390625</ele>
        <time>2005-09-04T07:40:27Z</time>
      </trkpt>
      <trkpt lat="45.760887628421187" lon="8.959820559248328">
        <ele>382.7420654296875</ele>
        <time>2005-09-04T07:40:31Z</time>
      </trkpt>
      <trkpt lat="45.760992737486959" lon="8.959893565624952">
        <ele>383.22265625</ele>
        <time>2005-09-04T07:40:36Z</time>
      </trkpt>
      <trkpt lat="45.761086028069258" lon="8.959973612800241">
        <ele>384.664794921875</ele>
        <time>2005-09-04T07:40:41Z</time>
      </trkpt>
      <trkpt lat="45.76117068529129" lon="8.960059946402907">
        <ele>385.6259765625</ele>
        <time>2005-09-04T07:40:46Z</time>
      </trkpt>
      <trkpt lat="45.761252408847213" lon="8.960137646645308">
        <ele>386.58740234375</ele>
        <time>2005-09-04T07:40:51Z</time>
      </trkpt>
      <trkpt lat="45.761338658630848" lon="8.960196487605572">
        <ele>386.58740234375</ele>
        <time>2005-09-04T07:40:56Z</time>
      </trkpt>
      <trkpt lat="45.761436056345701" lon="8.960222722962499">
        <ele>387.0679931640625</ele>
        <time>2005-09-04T07:41:01Z</time>
      </trkpt>
      <trkpt lat="45.761548206210136" lon="8.960224064067006">
        <ele>387.0679931640625</ele>
        <time>2005-09-04T07:41:06Z</time>
      </trkpt>
      <trkpt lat="45.761646442115307" lon="8.960219454020262">
        <ele>386.58740234375</ele>
        <time>2005-09-04T07:41:10Z</time>
      </trkpt>
      <trkpt lat="45.761755155399442" lon="8.960210904479027">
        <ele>386.58740234375</ele>
        <time>2005-09-04T07:41:14Z</time>
      </trkpt>
      <trkpt lat="45.761862024664879" lon="8.960191961377859">
        <ele>386.58740234375</ele>
        <time>2005-09-04T07:41:18Z</time>
      </trkpt>
      <trkpt lat="45.761960595846176" lon="8.960172850638628">
        <ele>386.58740234375</ele>
        <time>2005-09-04T07:41:22Z</time>
      </trkpt>
      <trkpt lat="45.762025052681565" lon="8.960255328565836">
        <ele>386.58740234375</ele>
        <time>2005-09-04T07:41:30Z</time>
      </trkpt>
      <trkpt lat="45.762037206441164" lon="8.960426906123757">
        <ele>386.106689453125</ele>
        <time>2005-09-04T07:41:37Z</time>
      </trkpt>
      <trkpt lat="45.762032764032483" lon="8.960604434832931">
        <ele>386.106689453125</ele>
        <time>2005-09-04T07:41:44Z</time>
      </trkpt>
      <trkpt lat="45.762033769860864" lon="8.960822448134422">
        <ele>386.58740234375</ele>
        <time>2005-09-04T07:41:50Z</time>
      </trkpt>
      <trkpt lat="45.762033937498927" lon="8.960995702072978">
        <ele>386.106689453125</ele>
        <time>2005-09-04T07:41:55Z</time>
      </trkpt>
      <trkpt lat="45.762051958590746" lon="8.961186055094004">
        <ele>386.106689453125</ele>
        <time>2005-09-04T07:42:01Z</time>
      </trkpt>
      <trkpt lat="45.762070817872882" lon="8.961374647915363">
        <ele>386.58740234375</ele>
        <time>2005-09-04T07:42:06Z</time>
      </trkpt>
      <trkpt lat="45.762079283595085" lon="8.961595091968775">
        <ele>386.58740234375</ele>
        <time>2005-09-04T07:42:10Z</time>
      </trkpt>
      <trkpt lat="45.762100825086236" lon="8.961730962619185">
        <ele>387.0679931640625</ele>
        <time>2005-09-04T07:42:14Z</time>
      </trkpt>
      <trkpt lat="45.76211909763515" lon="8.961914526298642">
        <ele>389.47119140625</ele>
        <time>2005-09-04T07:42:18Z</time>
      </trkpt>
      <trkpt lat="45.762138543650508" lon="8.962073028087616">
        <ele>390.4326171875</ele>
        <time>2005-09-04T07:42:22Z</time>
      </trkpt>
      <trkpt lat="45.76221976429224" lon="8.962242091074586">
        <ele>390.4326171875</ele>
        <time>2005-09-04T07:42:27Z</time>
      </trkpt>
      <trkpt lat="45.762272989377379" lon="8.962422637268901">
        <ele>391.393798828125</ele>
        <time>2005-09-04T07:42:32Z</time>
      </trkpt>
      <trkpt lat="45.762315904721618" lon="8.962599327787757">
        <ele>391.87451171875</ele>
        <time>2005-09-04T07:42:37Z</time>
      </trkpt>
      <trkpt lat="45.762364771217108" lon="8.962775096297264">
        <ele>392.3553466796875</ele>
        <time>2005-09-04T07:42:42Z</time>
      </trkpt>
      <trkpt lat="45.762414140626788" lon="8.962944997474551">
        <ele>393.3165283203125</ele>
        <time>2005-09-04T07:42:47Z</time>
      </trkpt>
      <trkpt lat="45.762463426217437" lon="8.963096039369702">
        <ele>394.2779541015625</ele>
        <time>2005-09-04T07:42:52Z</time>
      </trkpt>
      <trkpt lat="45.762504832819104" lon="8.963230568915606">
        <ele>395.7198486328125</ele>
        <time>2005-09-04T07:42:57Z</time>
      </trkpt>
      <trkpt lat="45.762548921629786" lon="8.963374150916934">
        <ele>396.68115234375</ele>
        <time>2005-09-04T07:43:03Z</time>
      </trkpt>
      <trkpt lat="45.762550178915262" lon="8.963628122583032">
        <ele>399.0843505859375</ele>
        <time>2005-09-04T07:46:12Z</time>
      </trkpt>
      <trkpt lat="45.762566272169352" lon="8.963782098144293">
        <ele>400.0458984375</ele>
        <time>2005-09-04T07:46:21Z</time>
      </trkpt>
      <trkpt lat="45.762570546939969" lon="8.963801711797714">
        <ele>400.0458984375</ele>
        <time>2005-09-04T07:46:52Z</time>
      </trkpt>
      <trkpt lat="45.762643553316593" lon="8.96393439732492">
        <ele>400.5264892578125</ele>
        <time>2005-09-04T07:47:17Z</time>
      </trkpt>
      <trkpt lat="45.762734161689878" lon="8.964256597682834">
        <ele>398.1231689453125</ele>
        <time>2005-09-04T07:47:57Z</time>
      </trkpt>
      <trkpt lat="45.762802558019757" lon="8.964396575465798">
        <ele>397.6424560546875</ele>
        <time>2005-09-04T07:48:07Z</time>
      </trkpt>
      <trkpt lat="45.762890316545963" lon="8.964514676481485">
        <ele>398.1231689453125</ele>
        <time>2005-09-04T07:48:17Z</time>
      </trkpt>
      <trkpt lat="45.762938093394041" lon="8.964675525203347">
        <ele>397.6424560546875</ele>
        <time>2005-09-04T07:48:27Z</time>
      </trkpt>
      <trkpt lat="45.762966759502888" lon="8.9648471865803">
        <ele>395.2391357421875</ele>
        <time>2005-09-04T07:48:34Z</time>
      </trkpt>
      <trkpt lat="45.762996096163988" lon="8.965040305629373">
        <ele>394.2779541015625</ele>
        <time>2005-09-04T07:48:39Z</time>
      </trkpt>
      <trkpt lat="45.762900710105896" lon="8.965518912300468">
        <ele>392.8359375</ele>
        <time>2005-09-04T07:48:54Z</time>
      </trkpt>
      <trkpt lat="45.762814460322261" lon="8.965567778795958">
        <ele>392.8359375</ele>
        <time>2005-09-04T07:48:59Z</time>
      </trkpt>
      <trkpt lat="45.762647576630116" lon="8.965826109051704">
        <ele>392.8359375</ele>
        <time>2005-09-04T07:49:03Z</time>
      </trkpt>
      <trkpt lat="45.762311043217778" lon="8.966441676020622">
        <ele>392.8359375</ele>
        <time>2005-09-04T07:49:07Z</time>
      </trkpt>
      <trkpt lat="45.762201575562358" lon="8.966447459533811">
        <ele>392.8359375</ele>
        <time>2005-09-04T07:49:11Z</time>
      </trkpt>
      <trkpt lat="45.762091185897589" lon="8.966516861692071">
        <ele>392.3553466796875</ele>
        <time>2005-09-04T07:49:15Z</time>
      </trkpt>
      <trkpt lat="45.761993704363704" lon="8.966545695438981">
        <ele>392.3553466796875</ele>
        <time>2005-09-04T07:49:20Z</time>
      </trkpt>
      <trkpt lat="45.761900413781404" lon="8.966588024049997">
        <ele>392.8359375</ele>
        <time>2005-09-04T07:49:24Z</time>
      </trkpt>
      <trkpt lat="45.76180100440979" lon="8.966633705422282">
        <ele>392.8359375</ele>
        <time>2005-09-04T07:49:28Z</time>
      </trkpt>
      <trkpt lat="45.761725902557373" lon="8.966698162257671">
        <ele>392.8359375</ele>
        <time>2005-09-04T07:49:32Z</time>
      </trkpt>
      <trkpt lat="45.761634036898613" lon="8.966764966025949">
        <ele>393.3165283203125</ele>
        <time>2005-09-04T07:49:37Z</time>
      </trkpt>
      <trkpt lat="45.761541165411472" lon="8.966863201931119">
        <ele>392.8359375</ele>
        <time>2005-09-04T07:49:42Z</time>
      </trkpt>
      <trkpt lat="45.761477798223495" lon="8.966954899951816">
        <ele>391.393798828125</ele>
        <time>2005-09-04T07:49:47Z</time>
      </trkpt>
      <trkpt lat="45.761397918686271" lon="8.967030588537455">
        <ele>390.9132080078125</ele>
        <time>2005-09-04T07:49:53Z</time>
      </trkpt>
      <trkpt lat="45.761318122968078" lon="8.967106360942125">
        <ele>389.47119140625</ele>
        <time>2005-09-04T07:49:59Z</time>
      </trkpt>
      <trkpt lat="45.762192523106933" lon="8.968140436336398">
        <ele>387.0679931640625</ele>
        <time>2005-09-04T07:50:06Z</time>
      </trkpt>
      <trkpt lat="45.762260165065527" lon="8.968254933133721">
        <ele>384.664794921875</ele>
        <time>2005-09-04T07:50:13Z</time>
      </trkpt>
      <trkpt lat="45.762514723464847" lon="8.96805795840919">
        <ele>382.2613525390625</ele>
        <time>2005-09-04T07:50:18Z</time>
      </trkpt>
      <trkpt lat="45.762738436460495" lon="8.968085618689656">
        <ele>379.37744140625</ele>
        <time>2005-09-04T07:50:23Z</time>
      </trkpt>
      <trkpt lat="45.762747321277857" lon="8.968322239816189">
        <ele>379.37744140625</ele>
        <time>2005-09-04T07:50:29Z</time>
      </trkpt>
      <trkpt lat="45.762826027348638" lon="8.968390636146069">
        <ele>376.9742431640625</ele>
        <time>2005-09-04T07:50:36Z</time>
      </trkpt>
      <trkpt lat="45.762863242998719" lon="8.968529859557748">
        <ele>376.4935302734375</ele>
        <time>2005-09-04T07:50:43Z</time>
      </trkpt>
      <trkpt lat="45.762891490012407" lon="8.968654498457909">
        <ele>375.051513671875</ele>
        <time>2005-09-04T07:50:49Z</time>
      </trkpt>
      <trkpt lat="45.762895261868834" lon="8.968808641657233">
        <ele>374.57080078125</ele>
        <time>2005-09-04T07:50:56Z</time>
      </trkpt>
      <trkpt lat="45.762873468920588" lon="8.968953564763069">
        <ele>374.090087890625</ele>
        <time>2005-09-04T07:51:04Z</time>
      </trkpt>
      <trkpt lat="45.76282812282443" lon="8.969079293310642">
        <ele>374.090087890625</ele>
        <time>2005-09-04T07:51:12Z</time>
      </trkpt>
      <trkpt lat="45.762789230793715" lon="8.969194544479251">
        <ele>374.090087890625</ele>
        <time>2005-09-04T07:51:20Z</time>
      </trkpt>
      <trkpt lat="45.762683786451817" lon="8.969287667423487">
        <ele>373.6094970703125</ele>
        <time>2005-09-04T07:52:24Z</time>
      </trkpt>
      <trkpt lat="45.762536097317934" lon="8.969397889450193">
        <ele>374.090087890625</ele>
        <time>2005-09-04T07:53:06Z</time>
      </trkpt>
      <trkpt lat="45.762443225830793" lon="8.969368301331997">
        <ele>374.090087890625</ele>
        <time>2005-09-04T07:53:23Z</time>
      </trkpt>
      <trkpt lat="45.762241473421454" lon="8.969674492254853">
        <ele>374.57080078125</ele>
        <time>2005-09-04T07:55:18Z</time>
      </trkpt>
      <trkpt lat="45.762150194495916" lon="8.969722185283899">
        <ele>374.090087890625</ele>
        <time>2005-09-04T07:55:24Z</time>
      </trkpt>
      <trkpt lat="45.762072242796421" lon="8.969773063436151">
        <ele>374.090087890625</ele>
        <time>2005-09-04T07:55:28Z</time>
      </trkpt>
      <trkpt lat="45.761965624988079" lon="8.969834418967366">
        <ele>373.6094970703125</ele>
        <time>2005-09-04T07:55:33Z</time>
      </trkpt>
      <trkpt lat="45.761860432103276" lon="8.96984288468957">
        <ele>373.6094970703125</ele>
        <time>2005-09-04T07:55:37Z</time>
      </trkpt>
      <trkpt lat="45.761748449876904" lon="8.969851098954678">
        <ele>373.6094970703125</ele>
        <time>2005-09-04T07:55:41Z</time>
      </trkpt>
      <trkpt lat="45.761648453772068" lon="8.969848165288568">
        <ele>373.12890625</ele>
        <time>2005-09-04T07:55:44Z</time>
      </trkpt>
      <trkpt lat="45.761548290029168" lon="8.969839951023459">
        <ele>372.648193359375</ele>
        <time>2005-09-04T07:55:47Z</time>
      </trkpt>
      <trkpt lat="45.761450808495283" lon="8.969842968508601">
        <ele>372.648193359375</ele>
        <time>2005-09-04T07:55:50Z</time>
      </trkpt>
      <trkpt lat="45.761339915916324" lon="8.969832742586732">
        <ele>372.648193359375</ele>
        <time>2005-09-04T07:55:54Z</time>
      </trkpt>
      <trkpt lat="45.761177306994796" lon="8.969941874966025">
        <ele>372.648193359375</ele>
        <time>2005-09-04T07:56:23Z</time>
      </trkpt>
      <trkpt lat="45.761125925928354" lon="8.970081433653832">
        <ele>373.12890625</ele>
        <time>2005-09-04T07:56:27Z</time>
      </trkpt>
      <trkpt lat="45.761091895401478" lon="8.970370106399059">
        <ele>375.051513671875</ele>
        <time>2005-09-04T07:57:02Z</time>
      </trkpt>
      <trkpt lat="45.761081334203482" lon="8.970614522695541">
        <ele>380.8194580078125</ele>
        <time>2005-09-04T07:57:19Z</time>
      </trkpt>
      <trkpt lat="45.761152161285281" lon="8.970791632309556">
        <ele>383.22265625</ele>
        <time>2005-09-04T07:57:30Z</time>
      </trkpt>
      <trkpt lat="45.761233465746045" lon="8.970921132713556">
        <ele>383.7032470703125</ele>
        <time>2005-09-04T07:57:38Z</time>
      </trkpt>
      <trkpt lat="45.761313429102302" lon="8.971049878746271">
        <ele>384.18408203125</ele>
        <time>2005-09-04T07:57:45Z</time>
      </trkpt>
      <trkpt lat="45.761373862624168" lon="8.971199244260788">
        <ele>385.6259765625</ele>
        <time>2005-09-04T07:57:52Z</time>
      </trkpt>
      <trkpt lat="45.761425998061895" lon="8.971336372196674">
        <ele>387.0679931640625</ele>
        <time>2005-09-04T07:57:58Z</time>
      </trkpt>
      <trkpt lat="45.761470338329673" lon="8.971455814316869">
        <ele>387.0679931640625</ele>
        <time>2005-09-04T07:58:04Z</time>
      </trkpt>
      <trkpt lat="45.761515935882926" lon="8.97163912653923">
        <ele>386.58740234375</ele>
        <time>2005-09-04T07:58:10Z</time>
      </trkpt>
      <trkpt lat="45.761572765186429" lon="8.971820343285799">
        <ele>386.58740234375</ele>
        <time>2005-09-04T07:58:15Z</time>
      </trkpt>
      <trkpt lat="45.761607550084591" lon="8.971965434029698">
        <ele>387.0679931640625</ele>
        <time>2005-09-04T07:58:20Z</time>
      </trkpt>
      <trkpt lat="45.761660607531667" lon="8.972192583605647">
        <ele>386.58740234375</ele>
        <time>2005-09-04T07:58:25Z</time>
      </trkpt>
      <trkpt lat="45.76172330416739" lon="8.97240037098527">
        <ele>386.58740234375</ele>
        <time>2005-09-04T07:58:29Z</time>
      </trkpt>
      <trkpt lat="45.761787677183747" lon="8.972605559974909">
        <ele>386.58740234375</ele>
        <time>2005-09-04T07:58:33Z</time>
      </trkpt>
      <trkpt lat="45.761844338849187" lon="8.972798846662045">
        <ele>386.106689453125</ele>
        <time>2005-09-04T07:58:37Z</time>
      </trkpt>
      <trkpt lat="45.761903347447515" lon="8.972988445311785">
        <ele>386.106689453125</ele>
        <time>2005-09-04T07:58:41Z</time>
      </trkpt>
      <trkpt lat="45.761953135952353" lon="8.973156921565533">
        <ele>386.58740234375</ele>
        <time>2005-09-04T07:58:45Z</time>
      </trkpt>
      <trkpt lat="45.762014240026474" lon="8.973327241837978">
        <ele>387.0679931640625</ele>
        <time>2005-09-04T07:58:49Z</time>
      </trkpt>
      <trkpt lat="45.76207316480577" lon="8.973500579595566">
        <ele>387.0679931640625</ele>
        <time>2005-09-04T07:58:53Z</time>
      </trkpt>
      <trkpt lat="45.762125886976719" lon="8.973681963980198">
        <ele>386.58740234375</ele>
        <time>2005-09-04T07:58:57Z</time>
      </trkpt>
      <trkpt lat="45.762183303013444" lon="8.973841052502394">
        <ele>387.0679931640625</ele>
        <time>2005-09-04T07:59:01Z</time>
      </trkpt>
      <trkpt lat="45.762240635231137" lon="8.974001733586192">
        <ele>387.0679931640625</ele>
        <time>2005-09-04T07:59:05Z</time>
      </trkpt>
      <trkpt lat="45.762294111773372" lon="8.974143974483013">
        <ele>387.0679931640625</ele>
        <time>2005-09-04T07:59:09Z</time>
      </trkpt>
      <trkpt lat="45.762353036552668" lon="8.974300213158131">
        <ele>387.0679931640625</ele>
        <time>2005-09-04T07:59:13Z</time>
      </trkpt>
      <trkpt lat="45.762371895834804" lon="8.97449123673141">
        <ele>386.106689453125</ele>
        <time>2005-09-04T07:59:17Z</time>
      </trkpt>
      <trkpt lat="45.762369548901916" lon="8.974646301940084">
        <ele>386.58740234375</ele>
        <time>2005-09-04T07:59:20Z</time>
      </trkpt>
      <trkpt lat="45.762363597750664" lon="8.974795080721378">
        <ele>386.58740234375</ele>
        <time>2005-09-04T07:59:24Z</time>
      </trkpt>
      <trkpt lat="45.762354712933302" lon="8.975047208368778">
        <ele>386.106689453125</ele>
        <time>2005-09-04T08:00:04Z</time>
      </trkpt>
      <trkpt lat="45.76249728910625" lon="8.975179474800825">
        <ele>387.0679931640625</ele>
        <time>2005-09-04T08:03:00Z</time>
      </trkpt>
      <trkpt lat="45.762556130066514" lon="8.975272430106998">
        <ele>386.58740234375</ele>
        <time>2005-09-04T08:03:08Z</time>
      </trkpt>
      <trkpt lat="45.762568116188049" lon="8.975413581356406">
        <ele>385.6259765625</ele>
        <time>2005-09-04T08:03:13Z</time>
      </trkpt>
      <trkpt lat="45.76256618835032" lon="8.975571244955063">
        <ele>384.18408203125</ele>
        <time>2005-09-04T08:03:18Z</time>
      </trkpt>
      <trkpt lat="45.76257205568254" lon="8.975737458094955">
        <ele>381.7806396484375</ele>
        <time>2005-09-04T08:03:23Z</time>
      </trkpt>
      <trkpt lat="45.762582449242473" lon="8.97587550804019">
        <ele>379.8580322265625</ele>
        <time>2005-09-04T08:03:27Z</time>
      </trkpt>
      <trkpt lat="45.762603487819433" lon="8.976025963202119">
        <ele>378.8968505859375</ele>
        <time>2005-09-04T08:03:31Z</time>
      </trkpt>
      <trkpt lat="45.762602649629116" lon="8.976201144978404">
        <ele>376.9742431640625</ele>
        <time>2005-09-04T08:03:35Z</time>
      </trkpt>
      <trkpt lat="45.762594938278198" lon="8.976357635110617">
        <ele>376.0128173828125</ele>
        <time>2005-09-04T08:03:38Z</time>
      </trkpt>
      <trkpt lat="45.762587981298566" lon="8.976520327851176">
        <ele>374.090087890625</ele>
        <time>2005-09-04T08:03:41Z</time>
      </trkpt>
      <trkpt lat="45.762582616880536" lon="8.976676650345326">
        <ele>372.648193359375</ele>
        <time>2005-09-04T08:03:44Z</time>
      </trkpt>
      <trkpt lat="45.762585885822773" lon="8.976830961182714">
        <ele>371.6868896484375</ele>
        <time>2005-09-04T08:03:47Z</time>
      </trkpt>
      <trkpt lat="45.762586137279868" lon="8.976992983371019">
        <ele>370.244873046875</ele>
        <time>2005-09-04T08:03:50Z</time>
      </trkpt>
      <trkpt lat="45.762583706527948" lon="8.977179061621428">
        <ele>369.7642822265625</ele>
        <time>2005-09-04T08:03:53Z</time>
      </trkpt>
      <trkpt lat="45.762581694871187" lon="8.977351980283856">
        <ele>369.28369140625</ele>
        <time>2005-09-04T08:03:56Z</time>
      </trkpt>
      <trkpt lat="45.762567361816764" lon="8.977529592812061">
        <ele>368.802978515625</ele>
        <time>2005-09-04T08:03:59Z</time>
      </trkpt>
      <trkpt lat="45.762555962428451" lon="8.977697733789682">
        <ele>368.322265625</ele>
        <time>2005-09-04T08:04:02Z</time>
      </trkpt>
      <trkpt lat="45.762547329068184" lon="8.977852379903197">
        <ele>368.322265625</ele>
        <time>2005-09-04T08:04:05Z</time>
      </trkpt>
      <trkpt lat="45.762526458129287" lon="8.978015491738915">
        <ele>368.322265625</ele>
        <time>2005-09-04T08:04:08Z</time>
      </trkpt>
      <trkpt lat="45.762511705979705" lon="8.978164186701179">
        <ele>367.841552734375</ele>
        <time>2005-09-04T08:04:11Z</time>
      </trkpt>
      <trkpt lat="45.76248899102211" lon="8.978316988795996">
        <ele>367.3609619140625</ele>
        <time>2005-09-04T08:04:14Z</time>
      </trkpt>
      <trkpt lat="45.762471221387386" lon="8.978453362360597">
        <ele>367.841552734375</ele>
        <time>2005-09-04T08:04:17Z</time>
      </trkpt>
      <trkpt lat="45.762456217780709" lon="8.978616390377283">
        <ele>367.3609619140625</ele>
        <time>2005-09-04T08:04:21Z</time>
      </trkpt>
      <trkpt lat="45.762437023222446" lon="8.978777155280113">
        <ele>367.3609619140625</ele>
        <time>2005-09-04T08:04:25Z</time>
      </trkpt>
      <trkpt lat="45.762411206960678" lon="8.978929705917835">
        <ele>366.8802490234375</ele>
        <time>2005-09-04T08:04:29Z</time>
      </trkpt>
      <trkpt lat="45.762383295223117" lon="8.979089800268412">
        <ele>366.8802490234375</ele>
        <time>2005-09-04T08:04:33Z</time>
      </trkpt>
      <trkpt lat="45.762374326586723" lon="8.979226760566235">
        <ele>365.9189453125</ele>
        <time>2005-09-04T08:04:37Z</time>
      </trkpt>
      <trkpt lat="45.762352114543319" lon="8.979392638429999">
        <ele>364.4769287109375</ele>
        <time>2005-09-04T08:04:41Z</time>
      </trkpt>
      <trkpt lat="45.762330237776041" lon="8.979547452181578">
        <ele>364.4769287109375</ele>
        <time>2005-09-04T08:04:45Z</time>
      </trkpt>
      <trkpt lat="45.762322107329965" lon="8.979684161022306">
        <ele>364.9576416015625</ele>
        <time>2005-09-04T08:04:49Z</time>
      </trkpt>
      <trkpt lat="45.762314479798079" lon="8.979819277301431">
        <ele>363.996337890625</ele>
        <time>2005-09-04T08:04:54Z</time>
      </trkpt>
      <trkpt lat="45.762304421514273" lon="8.979968391358852">
        <ele>363.996337890625</ele>
        <time>2005-09-04T08:04:59Z</time>
      </trkpt>
      <trkpt lat="45.762287070974708" lon="8.980131419375539">
        <ele>364.4769287109375</ele>
        <time>2005-09-04T08:05:04Z</time>
      </trkpt>
      <trkpt lat="45.762267792597413" lon="8.980272151529789">
        <ele>363.5157470703125</ele>
        <time>2005-09-04T08:05:08Z</time>
      </trkpt>
      <trkpt lat="45.762247173115611" lon="8.980444064363837">
        <ele>363.0350341796875</ele>
        <time>2005-09-04T08:05:12Z</time>
      </trkpt>
      <trkpt lat="45.762226721271873" lon="8.980619329959154">
        <ele>363.0350341796875</ele>
        <time>2005-09-04T08:05:16Z</time>
      </trkpt>
      <trkpt lat="45.762208281084895" lon="8.980783112347126">
        <ele>362.5543212890625</ele>
        <time>2005-09-04T08:05:20Z</time>
      </trkpt>
      <trkpt lat="45.762189840897918" lon="8.980946810916066">
        <ele>362.07373046875</ele>
        <time>2005-09-04T08:05:24Z</time>
      </trkpt>
      <trkpt lat="45.762163856998086" lon="8.981125093996525">
        <ele>360.151123046875</ele>
        <time>2005-09-04T08:05:28Z</time>
      </trkpt>
      <trkpt lat="45.762132257223129" lon="8.981256019324064">
        <ele>359.67041015625</ele>
        <time>2005-09-04T08:05:31Z</time>
      </trkpt>
      <trkpt lat="45.762096717953682" lon="8.981410078704357">
        <ele>358.708984375</ele>
        <time>2005-09-04T08:05:35Z</time>
      </trkpt>
      <trkpt lat="45.762048689648509" lon="8.981572184711695">
        <ele>357.26708984375</ele>
        <time>2005-09-04T08:05:39Z</time>
      </trkpt>
      <trkpt lat="45.762016335502267" lon="8.98171660490334">
        <ele>356.3057861328125</ele>
        <time>2005-09-04T08:05:43Z</time>
      </trkpt>
      <trkpt lat="45.761983897536993" lon="8.981861025094986">
        <ele>355.344482421875</ele>
        <time>2005-09-04T08:05:47Z</time>
      </trkpt>
      <trkpt lat="45.761951459571719" lon="8.982005445286632">
        <ele>354.86376953125</ele>
        <time>2005-09-04T08:05:51Z</time>
      </trkpt>
      <trkpt lat="45.761919105425477" lon="8.982149865478277">
        <ele>353.902587890625</ele>
        <time>2005-09-04T08:05:55Z</time>
      </trkpt>
      <trkpt lat="45.761886667460203" lon="8.982294285669923">
        <ele>354.3831787109375</ele>
        <time>2005-09-04T08:05:59Z</time>
      </trkpt>
      <trkpt lat="45.761854313313961" lon="8.982438705861569">
        <ele>352.941162109375</ele>
        <time>2005-09-04T08:06:03Z</time>
      </trkpt>
      <trkpt lat="45.761821875348687" lon="8.982583126053214">
        <ele>351.4991455078125</ele>
        <time>2005-09-04T08:06:07Z</time>
      </trkpt>
      <trkpt lat="45.761789437383413" lon="8.982727630063891">
        <ele>351.4991455078125</ele>
        <time>2005-09-04T08:06:11Z</time>
      </trkpt>
      <trkpt lat="45.761757083237171" lon="8.982872050255537">
        <ele>351.0184326171875</ele>
        <time>2005-09-04T08:06:15Z</time>
      </trkpt>
      <trkpt lat="45.761725399643183" lon="8.983009681105614">
        <ele>350.537841796875</ele>
        <time>2005-09-04T08:06:19Z</time>
      </trkpt>
      <trkpt lat="45.761702600866556" lon="8.983124848455191">
        <ele>349.5765380859375</ele>
        <time>2005-09-04T08:06:23Z</time>
      </trkpt>
      <trkpt lat="45.761663457378745" lon="8.983267173171043">
        <ele>349.5765380859375</ele>
        <time>2005-09-04T08:06:27Z</time>
      </trkpt>
      <trkpt lat="45.761624230071902" lon="8.983409581705928">
        <ele>347.6539306640625</ele>
        <time>2005-09-04T08:06:31Z</time>
      </trkpt>
      <trkpt lat="45.761572094634175" lon="8.983551906421781">
        <ele>346.2120361328125</ele>
        <time>2005-09-04T08:06:35Z</time>
      </trkpt>
      <trkpt lat="45.761501183733344" lon="8.983663637191057">
        <ele>345.7313232421875</ele>
        <time>2005-09-04T08:06:39Z</time>
      </trkpt>
      <trkpt lat="45.761462124064565" lon="8.983783414587379">
        <ele>345.7313232421875</ele>
        <time>2005-09-04T08:06:43Z</time>
      </trkpt>
      <trkpt lat="45.761438235640526" lon="8.983905371278524">
        <ele>345.7313232421875</ele>
        <time>2005-09-04T08:06:47Z</time>
      </trkpt>
      <trkpt lat="45.761414933949709" lon="8.984034452587366">
        <ele>345.7313232421875</ele>
        <time>2005-09-04T08:06:52Z</time>
      </trkpt>
      <trkpt lat="45.761415017768741" lon="8.984171329066157">
        <ele>344.77001953125</ele>
        <time>2005-09-04T08:06:57Z</time>
      </trkpt>
      <trkpt lat="45.761412335559726" lon="8.984311474487186">
        <ele>344.77001953125</ele>
        <time>2005-09-04T08:07:02Z</time>
      </trkpt>
      <trkpt lat="45.761427422985435" lon="8.984436197206378">
        <ele>343.80859375</ele>
        <time>2005-09-04T08:07:06Z</time>
      </trkpt>
      <trkpt lat="45.76148827560246" lon="8.984522614628077">
        <ele>344.2894287109375</ele>
        <time>2005-09-04T08:07:12Z</time>
      </trkpt>
      <trkpt lat="45.761575363576412" lon="8.984534349292517">
        <ele>344.2894287109375</ele>
        <time>2005-09-04T08:07:18Z</time>
      </trkpt>
      <trkpt lat="45.761696314439178" lon="8.984499145299196">
        <ele>344.2894287109375</ele>
        <time>2005-09-04T08:07:24Z</time>
      </trkpt>
      <trkpt lat="45.761797819286585" lon="8.984511969611049">
        <ele>343.80859375</ele>
        <time>2005-09-04T08:07:30Z</time>
      </trkpt>
      <trkpt lat="45.76191189698875" lon="8.984465366229415">
        <ele>343.80859375</ele>
        <time>2005-09-04T08:07:36Z</time>
      </trkpt>
      <trkpt lat="45.762027315795422" lon="8.984422869980335">
        <ele>344.2894287109375</ele>
        <time>2005-09-04T08:07:41Z</time>
      </trkpt>
      <trkpt lat="45.762126306071877" lon="8.984369980171323">
        <ele>344.2894287109375</ele>
        <time>2005-09-04T08:07:46Z</time>
      </trkpt>
      <trkpt lat="45.762236528098583" lon="8.984291106462479">
        <ele>344.77001953125</ele>
        <time>2005-09-04T08:07:52Z</time>
      </trkpt>
      <trkpt lat="45.76235462911427" lon="8.984232684597373">
        <ele>345.2506103515625</ele>
        <time>2005-09-04T08:07:58Z</time>
      </trkpt>
      <trkpt lat="45.762464012950659" lon="8.984181974083185">
        <ele>344.77001953125</ele>
        <time>2005-09-04T08:08:04Z</time>
      </trkpt>
      <trkpt lat="45.762578258290887" lon="8.984144674614072">
        <ele>344.77001953125</ele>
        <time>2005-09-04T08:08:10Z</time>
      </trkpt>
      <trkpt lat="45.762704070657492" lon="8.984106620773673">
        <ele>344.77001953125</ele>
        <time>2005-09-04T08:08:16Z</time>
      </trkpt>
      <trkpt lat="45.762867350131273" lon="8.98404928855598">
        <ele>344.77001953125</ele>
        <time>2005-09-04T08:08:24Z</time>
      </trkpt>
      <trkpt lat="45.762979332357645" lon="8.984021292999387">
        <ele>344.77001953125</ele>
        <time>2005-09-04T08:08:30Z</time>
      </trkpt>
      <trkpt lat="45.763107324019074" lon="8.983999667689204">
        <ele>344.77001953125</ele>
        <time>2005-09-04T08:08:37Z</time>
      </trkpt>
      <trkpt lat="45.76321117579937" lon="8.98412405513227">
        <ele>344.77001953125</ele>
        <time>2005-09-04T08:08:48Z</time>
      </trkpt>
      <trkpt lat="45.763279404491186" lon="8.984291525557637">
        <ele>344.2894287109375</ele>
        <time>2005-09-04T08:08:56Z</time>
      </trkpt>
      <trkpt lat="45.763304214924574" lon="8.984459498897195">
        <ele>343.80859375</ele>
        <time>2005-09-04T08:09:03Z</time>
      </trkpt>
      <trkpt lat="45.76338074170053" lon="8.984579611569643">
        <ele>343.327880859375</ele>
        <time>2005-09-04T08:09:08Z</time>
      </trkpt>
      <trkpt lat="45.763496328145266" lon="8.984597297385335">
        <ele>343.327880859375</ele>
        <time>2005-09-04T08:09:12Z</time>
      </trkpt>
      <trkpt lat="45.763603784143925" lon="8.984602326527238">
        <ele>343.327880859375</ele>
        <time>2005-09-04T08:09:16Z</time>
      </trkpt>
      <trkpt lat="45.763725657016039" lon="8.984578689560294">
        <ele>343.80859375</ele>
        <time>2005-09-04T08:09:21Z</time>
      </trkpt>
      <trkpt lat="45.763831268996" lon="8.984565613791347">
        <ele>344.2894287109375</ele>
        <time>2005-09-04T08:09:27Z</time>
      </trkpt>
      <trkpt lat="45.763955572620034" lon="8.98459754884243">
        <ele>344.77001953125</ele>
        <time>2005-09-04T08:09:33Z</time>
      </trkpt>
      <trkpt lat="45.764035284519196" lon="8.984695533290505">
        <ele>344.2894287109375</ele>
        <time>2005-09-04T08:09:37Z</time>
      </trkpt>
      <trkpt lat="45.764077696949244" lon="8.984825788065791">
        <ele>343.80859375</ele>
        <time>2005-09-04T08:09:41Z</time>
      </trkpt>
      <trkpt lat="45.764121199026704" lon="8.984973225742579">
        <ele>343.80859375</ele>
        <time>2005-09-04T08:09:46Z</time>
      </trkpt>
      <trkpt lat="45.764151960611343" lon="8.985132984817028">
        <ele>343.80859375</ele>
        <time>2005-09-04T08:09:51Z</time>
      </trkpt>
      <trkpt lat="45.764189846813679" lon="8.985289055854082">
        <ele>343.80859375</ele>
        <time>2005-09-04T08:09:56Z</time>
      </trkpt>
      <trkpt lat="45.764233600348234" lon="8.985440600663424">
        <ele>343.80859375</ele>
        <time>2005-09-04T08:10:01Z</time>
      </trkpt>
      <trkpt lat="45.764269474893808" lon="8.985560042783618">
        <ele>344.2894287109375</ele>
        <time>2005-09-04T08:10:05Z</time>
      </trkpt>
      <trkpt lat="45.764315072447062" lon="8.985715443268418">
        <ele>343.80859375</ele>
        <time>2005-09-04T08:10:10Z</time>
      </trkpt>
      <trkpt lat="45.764348767697811" lon="8.985846620053053">
        <ele>344.2894287109375</ele>
        <time>2005-09-04T08:10:14Z</time>
      </trkpt>
      <trkpt lat="45.764377182349563" lon="8.985986681655049">
        <ele>344.77001953125</ele>
        <time>2005-09-04T08:10:18Z</time>
      </trkpt>
      <trkpt lat="45.76440928503871" lon="8.986128838732839">
        <ele>344.2894287109375</ele>
        <time>2005-09-04T08:10:22Z</time>
      </trkpt>
      <trkpt lat="45.76444155536592" lon="8.986259680241346">
        <ele>344.2894287109375</ele>
        <time>2005-09-04T08:10:26Z</time>
      </trkpt>
      <trkpt lat="45.764479944482446" lon="8.986391359940171">
        <ele>344.77001953125</ele>
        <time>2005-09-04T08:10:30Z</time>
      </trkpt>
      <trkpt lat="45.764506766572595" lon="8.986544497311115">
        <ele>344.77001953125</ele>
        <time>2005-09-04T08:10:34Z</time>
      </trkpt>
      <trkpt lat="45.764548340812325" lon="8.986682966351509">
        <ele>344.77001953125</ele>
        <time>2005-09-04T08:10:38Z</time>
      </trkpt>
      <trkpt lat="45.764583544805646" lon="8.986804923042655">
        <ele>344.77001953125</ele>
        <time>2005-09-04T08:10:42Z</time>
      </trkpt>
      <trkpt lat="45.764540964737535" lon="8.986935345456004">
        <ele>345.2506103515625</ele>
        <time>2005-09-04T08:10:47Z</time>
      </trkpt>
      <trkpt lat="45.764458989724517" lon="8.987002819776535">
        <ele>345.2506103515625</ele>
        <time>2005-09-04T08:10:51Z</time>
      </trkpt>
      <trkpt lat="45.764379529282451" lon="8.98707096464932">
        <ele>345.2506103515625</ele>
        <time>2005-09-04T08:10:56Z</time>
      </trkpt>
      <trkpt lat="45.764297638088465" lon="8.987135589122772">
        <ele>344.77001953125</ele>
        <time>2005-09-04T08:11:01Z</time>
      </trkpt>
      <trkpt lat="45.764205185696483" lon="8.987218150869012">
        <ele>344.77001953125</ele>
        <time>2005-09-04T08:11:06Z</time>
      </trkpt>
      <trkpt lat="45.764112733304501" lon="8.98729719221592">
        <ele>345.2506103515625</ele>
        <time>2005-09-04T08:11:11Z</time>
      </trkpt>
      <trkpt lat="45.764016173779964" lon="8.987370617687702">
        <ele>344.77001953125</ele>
        <time>2005-09-04T08:11:16Z</time>
      </trkpt>
      <trkpt lat="45.763922380283475" lon="8.987451586872339">
        <ele>344.77001953125</ele>
        <time>2005-09-04T08:11:21Z</time>
      </trkpt>
      <trkpt lat="45.763830514624715" lon="8.987516546621919">
        <ele>344.2894287109375</ele>
        <time>2005-09-04T08:11:26Z</time>
      </trkpt>
      <trkpt lat="45.763734122738242" lon="8.987593911588192">
        <ele>344.77001953125</ele>
        <time>2005-09-04T08:11:31Z</time>
      </trkpt>
      <trkpt lat="45.763631276786327" lon="8.9876729529351">
        <ele>344.2894287109375</ele>
        <time>2005-09-04T08:11:36Z</time>
      </trkpt>
      <trkpt lat="45.76354150660336" lon="8.987749647349119">
        <ele>344.2894287109375</ele>
        <time>2005-09-04T08:11:40Z</time>
      </trkpt>
      <trkpt lat="45.763454167172313" lon="8.987823324277997">
        <ele>343.327880859375</ele>
        <time>2005-09-04T08:11:44Z</time>
      </trkpt>
      <trkpt lat="45.763356601819396" lon="8.987908232957125">
        <ele>343.80859375</ele>
        <time>2005-09-04T08:11:49Z</time>
      </trkpt>
      <trkpt lat="45.763305639848113" lon="8.98803798481822">
        <ele>343.327880859375</ele>
        <time>2005-09-04T08:11:54Z</time>
      </trkpt>
      <trkpt lat="45.76332651078701" lon="8.988173101097345">
        <ele>343.327880859375</ele>
        <time>2005-09-04T08:11:58Z</time>
      </trkpt>
      <trkpt lat="45.763356601819396" lon="8.988306205719709">
        <ele>343.80859375</ele>
        <time>2005-09-04T08:12:02Z</time>
      </trkpt>
      <trkpt lat="45.763403624296188" lon="8.988452637568116">
        <ele>343.80859375</ele>
        <time>2005-09-04T08:12:07Z</time>
      </trkpt>
      <trkpt lat="45.763460705056787" lon="8.988586831837893">
        <ele>343.80859375</ele>
        <time>2005-09-04T08:12:12Z</time>
      </trkpt>
      <trkpt lat="45.763521054759622" lon="8.988734185695648">
        <ele>343.80859375</ele>
        <time>2005-09-04T08:12:16Z</time>
      </trkpt>
      <trkpt lat="45.763579057529569" lon="8.988849688321352">
        <ele>343.80859375</ele>
        <time>2005-09-04T08:12:20Z</time>
      </trkpt>
      <trkpt lat="45.763629348948598" lon="8.988970471546054">
        <ele>343.80859375</ele>
        <time>2005-09-04T08:12:24Z</time>
      </trkpt>
      <trkpt lat="45.763692632317543" lon="8.989104749634862">
        <ele>343.80859375</ele>
        <time>2005-09-04T08:12:28Z</time>
      </trkpt>
      <trkpt lat="45.763763794675469" lon="8.989236848428845">
        <ele>343.80859375</ele>
        <time>2005-09-04T08:12:32Z</time>
      </trkpt>
      <trkpt lat="45.763827413320541" lon="8.989369282498956">
        <ele>344.2894287109375</ele>
        <time>2005-09-04T08:12:36Z</time>
      </trkpt>
      <trkpt lat="45.76388793066144" lon="8.989495933055878">
        <ele>344.77001953125</ele>
        <time>2005-09-04T08:12:40Z</time>
      </trkpt>
      <trkpt lat="45.763961607590318" lon="8.989633144810796">
        <ele>345.2506103515625</ele>
        <time>2005-09-04T08:12:44Z</time>
      </trkpt>
      <trkpt lat="45.764018436893821" lon="8.989740181714296">
        <ele>345.2506103515625</ele>
        <time>2005-09-04T08:12:47Z</time>
      </trkpt>
      <trkpt lat="45.764068979769945" lon="8.989845374599099">
        <ele>345.2506103515625</ele>
        <time>2005-09-04T08:12:50Z</time>
      </trkpt>
      <trkpt lat="45.764136621728539" lon="8.989982083439827">
        <ele>344.77001953125</ele>
        <time>2005-09-04T08:12:54Z</time>
      </trkpt>
      <trkpt lat="45.764210466295481" lon="8.99011954665184">
        <ele>344.77001953125</ele>
        <time>2005-09-04T08:12:58Z</time>
      </trkpt>
      <trkpt lat="45.764271738007665" lon="8.990229433402419">
        <ele>344.2894287109375</ele>
        <time>2005-09-04T08:13:01Z</time>
      </trkpt>
      <trkpt lat="45.764327142387629" lon="8.990330938249826">
        <ele>343.80859375</ele>
        <time>2005-09-04T08:13:04Z</time>
      </trkpt>
      <trkpt lat="45.764356981962919" lon="8.990468736737967">
        <ele>344.2894287109375</ele>
        <time>2005-09-04T08:13:08Z</time>
      </trkpt>
      <trkpt lat="45.764356395229697" lon="8.990629836916924">
        <ele>343.80859375</ele>
        <time>2005-09-04T08:13:12Z</time>
      </trkpt>
      <trkpt lat="45.764396293088794" lon="8.99078163318336">
        <ele>344.2894287109375</ele>
        <time>2005-09-04T08:13:16Z</time>
      </trkpt>
      <trkpt lat="45.764445411041379" lon="8.99089596234262">
        <ele>344.77001953125</ele>
        <time>2005-09-04T08:13:19Z</time>
      </trkpt>
      <trkpt lat="45.764515148475766" lon="8.991026720032096">
        <ele>344.2894287109375</ele>
        <time>2005-09-04T08:13:23Z</time>
      </trkpt>
      <trkpt lat="45.764596872031689" lon="8.991158315911889">
        <ele>344.2894287109375</ele>
        <time>2005-09-04T08:13:27Z</time>
      </trkpt>
      <trkpt lat="45.764664597809315" lon="8.991287564858794">
        <ele>344.2894287109375</ele>
        <time>2005-09-04T08:13:31Z</time>
      </trkpt>
      <trkpt lat="45.764674991369247" lon="8.991435840725899">
        <ele>344.2894287109375</ele>
        <time>2005-09-04T08:13:35Z</time>
      </trkpt>
      <trkpt lat="45.764665603637695" lon="8.991579171270132">
        <ele>344.2894287109375</ele>
        <time>2005-09-04T08:13:39Z</time>
      </trkpt>
      <trkpt lat="45.764508694410324" lon="8.991757035255432">
        <ele>342.8472900390625</ele>
        <time>2005-09-04T08:20:24Z</time>
      </trkpt>
      <trkpt lat="45.764393694698811" lon="8.991822665557265">
        <ele>343.80859375</ele>
        <time>2005-09-04T08:22:31Z</time>
      </trkpt>
      <trkpt lat="45.764297721907496" lon="8.991903383284807">
        <ele>343.327880859375</ele>
        <time>2005-09-04T08:22:36Z</time>
      </trkpt>
      <trkpt lat="45.764215914532542" lon="8.991979323327541">
        <ele>343.327880859375</ele>
        <time>2005-09-04T08:22:40Z</time>
      </trkpt>
      <trkpt lat="45.764131927862763" lon="8.992049815133214">
        <ele>343.327880859375</ele>
        <time>2005-09-04T08:22:44Z</time>
      </trkpt>
      <trkpt lat="45.764037882909179" lon="8.992125084623694">
        <ele>343.327880859375</ele>
        <time>2005-09-04T08:22:48Z</time>
      </trkpt>
      <trkpt lat="45.763951884582639" lon="8.992189122363925">
        <ele>343.327880859375</ele>
        <time>2005-09-04T08:22:52Z</time>
      </trkpt>
      <trkpt lat="45.763861862942576" lon="8.992258608341217">
        <ele>343.327880859375</ele>
        <time>2005-09-04T08:22:56Z</time>
      </trkpt>
      <trkpt lat="45.763780726119876" lon="8.992320969700813">
        <ele>343.327880859375</ele>
        <time>2005-09-04T08:23:00Z</time>
      </trkpt>
      <trkpt lat="45.763683076947927" lon="8.992395903915167">
        <ele>342.36669921875</ele>
        <time>2005-09-04T08:23:05Z</time>
      </trkpt>
      <trkpt lat="45.763588361442089" lon="8.992435382679105">
        <ele>342.36669921875</ele>
        <time>2005-09-04T08:23:10Z</time>
      </trkpt>
      <trkpt lat="45.763531951233745" lon="8.992313258349896">
        <ele>342.8472900390625</ele>
        <time>2005-09-04T08:23:14Z</time>
      </trkpt>
      <trkpt lat="45.763487108051777" lon="8.992184512317181">
        <ele>343.327880859375</ele>
        <time>2005-09-04T08:23:18Z</time>
      </trkpt>
      <trkpt lat="45.76343304477632" lon="8.992050234228373">
        <ele>343.327880859375</ele>
        <time>2005-09-04T08:23:22Z</time>
      </trkpt>
      <trkpt lat="45.763378646224737" lon="8.991909837350249">
        <ele>343.327880859375</ele>
        <time>2005-09-04T08:23:26Z</time>
      </trkpt>
      <trkpt lat="45.763315698131919" lon="8.991768350824714">
        <ele>344.2894287109375</ele>
        <time>2005-09-04T08:23:30Z</time>
      </trkpt>
      <trkpt lat="45.763254007324576" lon="8.991621164605022">
        <ele>344.2894287109375</ele>
        <time>2005-09-04T08:23:34Z</time>
      </trkpt>
      <trkpt lat="45.763206901028752" lon="8.991503231227398">
        <ele>344.2894287109375</ele>
        <time>2005-09-04T08:23:37Z</time>
      </trkpt>
      <trkpt lat="45.763156609609723" lon="8.991385297849774">
        <ele>343.80859375</ele>
        <time>2005-09-04T08:23:40Z</time>
      </trkpt>
      <trkpt lat="45.763107156381011" lon="8.991265101358295">
        <ele>343.80859375</ele>
        <time>2005-09-04T08:23:43Z</time>
      </trkpt>
      <trkpt lat="45.763064157217741" lon="8.991141049191356">
        <ele>343.80859375</ele>
        <time>2005-09-04T08:23:46Z</time>
      </trkpt>
      <trkpt lat="45.763034485280514" lon="8.9910195954144">
        <ele>343.327880859375</ele>
        <time>2005-09-04T08:23:49Z</time>
      </trkpt>
      <trkpt lat="45.763000287115574" lon="8.990890681743622">
        <ele>343.80859375</ele>
        <time>2005-09-04T08:23:52Z</time>
      </trkpt>
      <trkpt lat="45.762967597693205" lon="8.990760426968336">
        <ele>343.327880859375</ele>
        <time>2005-09-04T08:23:55Z</time>
      </trkpt>
      <trkpt lat="45.762934321537614" lon="8.990637212991715">
        <ele>343.327880859375</ele>
        <time>2005-09-04T08:23:58Z</time>
      </trkpt>
      <trkpt lat="45.762900710105896" lon="8.990504276007414">
        <ele>343.327880859375</ele>
        <time>2005-09-04T08:24:01Z</time>
      </trkpt>
      <trkpt lat="45.762868104502559" lon="8.990377457812429">
        <ele>342.8472900390625</ele>
        <time>2005-09-04T08:24:04Z</time>
      </trkpt>
      <trkpt lat="45.762830637395382" lon="8.990229517221451">
        <ele>343.327880859375</ele>
        <time>2005-09-04T08:24:08Z</time>
      </trkpt>
      <trkpt lat="45.762787135317922" lon="8.990103788673878">
        <ele>343.327880859375</ele>
        <time>2005-09-04T08:24:12Z</time>
      </trkpt>
      <trkpt lat="45.762699209153652" lon="8.990084426477552">
        <ele>342.8472900390625</ele>
        <time>2005-09-04T08:24:16Z</time>
      </trkpt>
      <trkpt lat="45.762602565810084" lon="8.990124743431807">
        <ele>343.327880859375</ele>
        <time>2005-09-04T08:24:20Z</time>
      </trkpt>
      <trkpt lat="45.762504832819104" lon="8.990203952416778">
        <ele>342.8472900390625</ele>
        <time>2005-09-04T08:24:24Z</time>
      </trkpt>
      <trkpt lat="45.762407183647156" lon="8.990314593538642">
        <ele>343.327880859375</ele>
        <time>2005-09-04T08:24:28Z</time>
      </trkpt>
      <trkpt lat="45.762333925813437" lon="8.990412661805749">
        <ele>342.8472900390625</ele>
        <time>2005-09-04T08:24:31Z</time>
      </trkpt>
      <trkpt lat="45.762254633009434" lon="8.990524560213089">
        <ele>342.8472900390625</ele>
        <time>2005-09-04T08:24:34Z</time>
      </trkpt>
      <trkpt lat="45.762173496186733" lon="8.990623885765672">
        <ele>342.36669921875</ele>
        <time>2005-09-04T08:24:37Z</time>
      </trkpt>
      <trkpt lat="45.762089928612113" lon="8.990736119449139">
        <ele>342.8472900390625</ele>
        <time>2005-09-04T08:24:40Z</time>
      </trkpt>
      <trkpt lat="45.762006277218461" lon="8.990855226293206">
        <ele>342.8472900390625</ele>
        <time>2005-09-04T08:24:43Z</time>
      </trkpt>
      <trkpt lat="45.761920865625143" lon="8.990980954840779">
        <ele>342.8472900390625</ele>
        <time>2005-09-04T08:24:46Z</time>
      </trkpt>
      <trkpt lat="45.761832520365715" lon="8.991106264293194">
        <ele>341.4052734375</ele>
        <time>2005-09-04T08:24:49Z</time>
      </trkpt>
      <trkpt lat="45.761766387149692" lon="8.991269376128912">
        <ele>342.36669921875</ele>
        <time>2005-09-04T08:24:52Z</time>
      </trkpt>
      <trkpt lat="45.761674521490932" lon="8.991386471316218">
        <ele>341.885986328125</ele>
        <time>2005-09-04T08:24:55Z</time>
      </trkpt>
      <trkpt lat="45.761587014421821" lon="8.9914979506284">
        <ele>341.885986328125</ele>
        <time>2005-09-04T08:24:58Z</time>
      </trkpt>
      <trkpt lat="45.761501016095281" lon="8.991607669740915">
        <ele>341.4052734375</ele>
        <time>2005-09-04T08:25:01Z</time>
      </trkpt>
      <trkpt lat="45.761416107416153" lon="8.991715963929892">
        <ele>341.4052734375</ele>
        <time>2005-09-04T08:25:04Z</time>
      </trkpt>
      <trkpt lat="45.761328432708979" lon="8.991827694699168">
        <ele>341.4052734375</ele>
        <time>2005-09-04T08:25:07Z</time>
      </trkpt>
      <trkpt lat="45.761242937296629" lon="8.99193674325943">
        <ele>340.9246826171875</ele>
        <time>2005-09-04T08:25:10Z</time>
      </trkpt>
      <trkpt lat="45.761157441884279" lon="8.99204570800066">
        <ele>340.9246826171875</ele>
        <time>2005-09-04T08:25:13Z</time>
      </trkpt>
      <trkpt lat="45.761075550690293" lon="8.992150146514177">
        <ele>341.4052734375</ele>
        <time>2005-09-04T08:25:16Z</time>
      </trkpt>
      <trkpt lat="45.760983936488628" lon="8.992151152342558">
        <ele>340.9246826171875</ele>
        <time>2005-09-04T08:25:19Z</time>
      </trkpt>
      <trkpt lat="45.76091998256743" lon="8.992014024406672">
        <ele>340.9246826171875</ele>
        <time>2005-09-04T08:25:22Z</time>
      </trkpt>
      <trkpt lat="45.760857285931706" lon="8.991879830136895">
        <ele>340.9246826171875</ele>
        <time>2005-09-04T08:25:25Z</time>
      </trkpt>
      <trkpt lat="45.760794170200825" lon="8.991744546219707">
        <ele>340.9246826171875</ele>
        <time>2005-09-04T08:25:28Z</time>
      </trkpt>
      <trkpt lat="45.760728036984801" lon="8.991602892056108">
        <ele>341.4052734375</ele>
        <time>2005-09-04T08:25:31Z</time>
      </trkpt>
      <trkpt lat="45.760662239044905" lon="8.991471212357283">
        <ele>340.9246826171875</ele>
        <time>2005-09-04T08:25:34Z</time>
      </trkpt>
      <trkpt lat="45.760593339800835" lon="8.991335509344935">
        <ele>340.9246826171875</ele>
        <time>2005-09-04T08:25:37Z</time>
      </trkpt>
      <trkpt lat="45.76052175834775" lon="8.991194358095527">
        <ele>340.444091796875</ele>
        <time>2005-09-04T08:25:40Z</time>
      </trkpt>
      <trkpt lat="45.760454954579473" lon="8.991062846034765">
        <ele>340.444091796875</ele>
        <time>2005-09-04T08:25:43Z</time>
      </trkpt>
      <trkpt lat="45.760384798049927" lon="8.990924628451467">
        <ele>340.444091796875</ele>
        <time>2005-09-04T08:25:46Z</time>
      </trkpt>
      <trkpt lat="45.76031070202589" lon="8.990778531879187">
        <ele>340.444091796875</ele>
        <time>2005-09-04T08:25:49Z</time>
      </trkpt>
      <trkpt lat="45.760241048410535" lon="8.990641236305237">
        <ele>339.96337890625</ele>
        <time>2005-09-04T08:25:52Z</time>
      </trkpt>
      <trkpt lat="45.760168796405196" lon="8.990498827770352">
        <ele>339.96337890625</ele>
        <time>2005-09-04T08:25:55Z</time>
      </trkpt>
      <trkpt lat="45.760098388418555" lon="8.990360107272863">
        <ele>339.96337890625</ele>
        <time>2005-09-04T08:25:58Z</time>
      </trkpt>
      <trkpt lat="45.760028315708041" lon="8.990222057327628">
        <ele>339.96337890625</ele>
        <time>2005-09-04T08:26:01Z</time>
      </trkpt>
      <trkpt lat="45.759955560788512" lon="8.990078726783395">
        <ele>339.96337890625</ele>
        <time>2005-09-04T08:26:04Z</time>
      </trkpt>
      <trkpt lat="45.759884482249618" lon="8.989938581362367">
        <ele>339.96337890625</ele>
        <time>2005-09-04T08:26:07Z</time>
      </trkpt>
      <trkpt lat="45.759817007929087" lon="8.989805728197098">
        <ele>339.96337890625</ele>
        <time>2005-09-04T08:26:10Z</time>
      </trkpt>
      <trkpt lat="45.759747102856636" lon="8.989667929708958">
        <ele>339.96337890625</ele>
        <time>2005-09-04T08:26:13Z</time>
      </trkpt>
      <trkpt lat="45.759666301310062" lon="8.989508589729667">
        <ele>339.96337890625</ele>
        <time>2005-09-04T08:26:16Z</time>
      </trkpt>
      <trkpt lat="45.759607963263988" lon="8.989393673837185">
        <ele>339.482666015625</ele>
        <time>2005-09-04T08:26:18Z</time>
      </trkpt>
      <trkpt lat="45.759547697380185" lon="8.989274986088276">
        <ele>339.96337890625</ele>
        <time>2005-09-04T08:26:20Z</time>
      </trkpt>
      <trkpt lat="45.759486928582191" lon="8.989155292510986">
        <ele>339.96337890625</ele>
        <time>2005-09-04T08:26:22Z</time>
      </trkpt>
      <trkpt lat="45.759426075965166" lon="8.98903526365757">
        <ele>339.96337890625</ele>
        <time>2005-09-04T08:26:24Z</time>
      </trkpt>
      <trkpt lat="45.759365139529109" lon="8.988915402442217">
        <ele>339.96337890625</ele>
        <time>2005-09-04T08:26:26Z</time>
      </trkpt>
      <trkpt lat="45.759305292740464" lon="8.98879730142653">
        <ele>339.482666015625</ele>
        <time>2005-09-04T08:26:28Z</time>
      </trkpt>
      <trkpt lat="45.759236225858331" lon="8.988730246201158">
        <ele>339.96337890625</ele>
        <time>2005-09-04T08:26:30Z</time>
      </trkpt>
      <trkpt lat="45.759164225310087" lon="8.98881389759481">
        <ele>339.482666015625</ele>
        <time>2005-09-04T08:26:32Z</time>
      </trkpt>
      <trkpt lat="45.759080406278372" lon="8.988911295309663">
        <ele>339.482666015625</ele>
        <time>2005-09-04T08:26:34Z</time>
      </trkpt>
      <trkpt lat="45.759003041312099" lon="8.98900106549263">
        <ele>339.482666015625</ele>
        <time>2005-09-04T08:26:36Z</time>
      </trkpt>
      <trkpt lat="45.758932465687394" lon="8.989082956686616">
        <ele>339.482666015625</ele>
        <time>2005-09-04T08:26:38Z</time>
      </trkpt>
      <trkpt lat="45.758852753788233" lon="8.989175660535693">
        <ele>339.482666015625</ele>
        <time>2005-09-04T08:26:40Z</time>
      </trkpt>
      <trkpt lat="45.758770359680057" lon="8.98927129805088">
        <ele>339.0020751953125</ele>
        <time>2005-09-04T08:26:42Z</time>
      </trkpt>
      <trkpt lat="45.758687630295753" lon="8.989367354661226">
        <ele>339.0020751953125</ele>
        <time>2005-09-04T08:26:44Z</time>
      </trkpt>
      <trkpt lat="45.758605655282736" lon="8.989462489262223">
        <ele>339.0020751953125</ele>
        <time>2005-09-04T08:26:46Z</time>
      </trkpt>
      <trkpt lat="45.75852326117456" lon="8.989558294415474">
        <ele>339.0020751953125</ele>
        <time>2005-09-04T08:26:48Z</time>
      </trkpt>
      <trkpt lat="45.758438855409622" lon="8.989656278863549">
        <ele>339.482666015625</ele>
        <time>2005-09-04T08:26:50Z</time>
      </trkpt>
      <trkpt lat="45.758356964215636" lon="8.989751497283578">
        <ele>338.521484375</ele>
        <time>2005-09-04T08:26:52Z</time>
      </trkpt>
      <trkpt lat="45.758275659754872" lon="8.98984587751329">
        <ele>338.521484375</ele>
        <time>2005-09-04T08:26:54Z</time>
      </trkpt>
      <trkpt lat="45.758194103837013" lon="8.989940593019128">
        <ele>339.0020751953125</ele>
        <time>2005-09-04T08:26:56Z</time>
      </trkpt>
      <trkpt lat="45.758112547919154" lon="8.990035224705935">
        <ele>338.521484375</ele>
        <time>2005-09-04T08:26:58Z</time>
      </trkpt>
      <trkpt lat="45.758036188781261" lon="8.990123905241489">
        <ele>338.521484375</ele>
        <time>2005-09-04T08:27:00Z</time>
      </trkpt>
      <trkpt lat="45.757937114685774" lon="8.990238988772035">
        <ele>337.56005859375</ele>
        <time>2005-09-04T08:27:03Z</time>
      </trkpt>
      <trkpt lat="45.757885985076427" lon="8.990300176665187">
        <ele>338.040771484375</ele>
        <time>2005-09-04T08:27:09Z</time>
      </trkpt>
      <trkpt lat="45.75779520906508" lon="8.990409811958671">
        <ele>337.0794677734375</ele>
        <time>2005-09-04T08:27:15Z</time>
      </trkpt>
      <trkpt lat="45.757706528529525" lon="8.990516848862171">
        <ele>337.0794677734375</ele>
        <time>2005-09-04T08:27:18Z</time>
      </trkpt>
      <trkpt lat="45.757620446383953" lon="8.990620700642467">
        <ele>337.0794677734375</ele>
        <time>2005-09-04T08:27:21Z</time>
      </trkpt>
      <trkpt lat="45.757539561018348" lon="8.990718265995383">
        <ele>337.0794677734375</ele>
        <time>2005-09-04T08:27:24Z</time>
      </trkpt>
      <trkpt lat="45.757451383396983" lon="8.990824716165662">
        <ele>337.0794677734375</ele>
        <time>2005-09-04T08:27:27Z</time>
      </trkpt>
      <trkpt lat="45.757370246574283" lon="8.990922616794705">
        <ele>336.598876953125</ele>
        <time>2005-09-04T08:27:30Z</time>
      </trkpt>
      <trkpt lat="45.757294138893485" lon="8.991014566272497">
        <ele>336.598876953125</ele>
        <time>2005-09-04T08:27:33Z</time>
      </trkpt>
      <trkpt lat="45.757222389802337" lon="8.991101151332259">
        <ele>336.598876953125</ele>
        <time>2005-09-04T08:27:36Z</time>
      </trkpt>
      <trkpt lat="45.757145024836063" lon="8.99119452573359">
        <ele>336.598876953125</ele>
        <time>2005-09-04T08:27:39Z</time>
      </trkpt>
      <trkpt lat="45.757067324593663" lon="8.99128831923008">
        <ele>336.598876953125</ele>
        <time>2005-09-04T08:27:42Z</time>
      </trkpt>
      <trkpt lat="45.756997000426054" lon="8.991373144090176">
        <ele>336.598876953125</ele>
        <time>2005-09-04T08:27:45Z</time>
      </trkpt>
      <trkpt lat="45.756933800876141" lon="8.991449419409037">
        <ele>336.1181640625</ele>
        <time>2005-09-04T08:27:48Z</time>
      </trkpt>
      <trkpt lat="45.756860040128231" lon="8.991538435220718">
        <ele>336.1181640625</ele>
        <time>2005-09-04T08:27:52Z</time>
      </trkpt>
      <trkpt lat="45.756800528615713" lon="8.99161035194993">
        <ele>336.1181640625</ele>
        <time>2005-09-04T08:27:59Z</time>
      </trkpt>
      <trkpt lat="45.756734563037753" lon="8.991689812391996">
        <ele>335.6373291015625</ele>
        <time>2005-09-04T08:28:07Z</time>
      </trkpt>
      <trkpt lat="45.756713356822729" lon="8.991715461015701">
        <ele>336.1181640625</ele>
        <time>2005-09-04T08:28:15Z</time>
      </trkpt>
      <trkpt lat="45.756605481728911" lon="8.99183414876461">
        <ele>336.1181640625</ele>
        <time>2005-09-04T08:28:28Z</time>
      </trkpt>
      <trkpt lat="45.756521746516228" lon="8.991922661662102">
        <ele>335.6373291015625</ele>
        <time>2005-09-04T08:28:34Z</time>
      </trkpt>
      <trkpt lat="45.756439603865147" lon="8.992009749636054">
        <ele>336.1181640625</ele>
        <time>2005-09-04T08:28:38Z</time>
      </trkpt>
      <trkpt lat="45.756362657994032" lon="8.992091221734881">
        <ele>335.6373291015625</ele>
        <time>2005-09-04T08:28:41Z</time>
      </trkpt>
      <trkpt lat="45.756285879760981" lon="8.992172526195645">
        <ele>335.6373291015625</ele>
        <time>2005-09-04T08:28:44Z</time>
      </trkpt>
      <trkpt lat="45.756206922233105" lon="8.992256009951234">
        <ele>335.15673828125</ele>
        <time>2005-09-04T08:28:47Z</time>
      </trkpt>
      <trkpt lat="45.756120504811406" lon="8.992347707971931">
        <ele>335.6373291015625</ele>
        <time>2005-09-04T08:28:50Z</time>
      </trkpt>
      <trkpt lat="45.756042553111911" lon="8.99243026971817">
        <ele>335.15673828125</ele>
        <time>2005-09-04T08:28:53Z</time>
      </trkpt>
      <trkpt lat="45.755967618897557" lon="8.992509562522173">
        <ele>335.15673828125</ele>
        <time>2005-09-04T08:28:56Z</time>
      </trkpt>
      <trkpt lat="45.755887320265174" lon="8.99260226637125">
        <ele>335.6373291015625</ele>
        <time>2005-09-04T08:28:59Z</time>
      </trkpt>
      <trkpt lat="45.755810206755996" lon="8.992693042382598">
        <ele>335.15673828125</ele>
        <time>2005-09-04T08:29:02Z</time>
      </trkpt>
      <trkpt lat="45.75573175214231" lon="8.992785243317485">
        <ele>335.15673828125</ele>
        <time>2005-09-04T08:29:05Z</time>
      </trkpt>
      <trkpt lat="45.755654219537973" lon="8.992876606062055">
        <ele>335.15673828125</ele>
        <time>2005-09-04T08:29:08Z</time>
      </trkpt>
      <trkpt lat="45.755578698590398" lon="8.992965454235673">
        <ele>334.6761474609375</ele>
        <time>2005-09-04T08:29:11Z</time>
      </trkpt>
      <trkpt lat="45.755500076338649" lon="8.993057990446687">
        <ele>334.6761474609375</ele>
        <time>2005-09-04T08:29:14Z</time>
      </trkpt>
      <trkpt lat="45.755418436601758" lon="8.993153963238001">
        <ele>334.6761474609375</ele>
        <time>2005-09-04T08:29:17Z</time>
      </trkpt>
      <trkpt lat="45.755333108827472" lon="8.993254378437996">
        <ele>334.1954345703125</ele>
        <time>2005-09-04T08:29:20Z</time>
      </trkpt>
      <trkpt lat="45.755247781053185" lon="8.993354793637991">
        <ele>334.6761474609375</ele>
        <time>2005-09-04T08:29:23Z</time>
      </trkpt>
      <trkpt lat="45.755166308954358" lon="8.993450598791242">
        <ele>334.6761474609375</ele>
        <time>2005-09-04T08:29:26Z</time>
      </trkpt>
      <trkpt lat="45.755090620368719" lon="8.993539698421955">
        <ele>334.1954345703125</ele>
        <time>2005-09-04T08:29:29Z</time>
      </trkpt>
      <trkpt lat="45.755018284544349" lon="8.993624774739146">
        <ele>334.1954345703125</ele>
        <time>2005-09-04T08:29:32Z</time>
      </trkpt>
      <trkpt lat="45.754946703091264" lon="8.99370901286602">
        <ele>333.7147216796875</ele>
        <time>2005-09-04T08:29:35Z</time>
      </trkpt>
      <trkpt lat="45.754870260134339" lon="8.993798950687051">
        <ele>333.7147216796875</ele>
        <time>2005-09-04T08:29:38Z</time>
      </trkpt>
      <trkpt lat="45.754803037270904" lon="8.993877992033958">
        <ele>333.234130859375</ele>
        <time>2005-09-04T08:29:42Z</time>
      </trkpt>
      <trkpt lat="45.754720056429505" lon="8.993975557386875">
        <ele>333.7147216796875</ele>
        <time>2005-09-04T08:29:47Z</time>
      </trkpt>
      <trkpt lat="45.754643026739359" lon="8.994066249579191">
        <ele>333.234130859375</ele>
        <time>2005-09-04T08:29:51Z</time>
      </trkpt>
      <trkpt lat="45.754567505791783" lon="8.994155181571841">
        <ele>333.234130859375</ele>
        <time>2005-09-04T08:29:54Z</time>
      </trkpt>
      <trkpt lat="45.754500618204474" lon="8.99424260482192">
        <ele>332.7535400390625</ele>
        <time>2005-09-04T08:29:58Z</time>
      </trkpt>
      <trkpt lat="45.754409590736032" lon="8.994209580123425">
        <ele>332.7535400390625</ele>
        <time>2005-09-04T08:30:01Z</time>
      </trkpt>
      <trkpt lat="45.7543093431741" lon="8.99417320266366">
        <ele>332.7535400390625</ele>
        <time>2005-09-04T08:30:04Z</time>
      </trkpt>
      <trkpt lat="45.754208927974105" lon="8.994136657565832">
        <ele>332.7535400390625</ele>
        <time>2005-09-04T08:30:07Z</time>
      </trkpt>
      <trkpt lat="45.754101723432541" lon="8.994097765535116">
        <ele>332.2728271484375</ele>
        <time>2005-09-04T08:30:10Z</time>
      </trkpt>
      <trkpt lat="45.754008097574115" lon="8.994063399732113">
        <ele>332.7535400390625</ele>
        <time>2005-09-04T08:30:13Z</time>
      </trkpt>
      <trkpt lat="45.75391891412437" lon="8.994172783568502">
        <ele>332.2728271484375</ele>
        <time>2005-09-04T08:30:17Z</time>
      </trkpt>
      <trkpt lat="45.753832161426544" lon="8.994259620085359">
        <ele>331.7921142578125</ele>
        <time>2005-09-04T08:30:21Z</time>
      </trkpt>
      <trkpt lat="45.753757311031222" lon="8.994334470480681">
        <ele>331.3115234375</ele>
        <time>2005-09-04T08:30:25Z</time>
      </trkpt>
      <trkpt lat="45.753657398745418" lon="8.994434298947454">
        <ele>331.7921142578125</ele>
        <time>2005-09-04T08:30:29Z</time>
      </trkpt>
      <trkpt lat="45.753566287457943" lon="8.99452549405396">
        <ele>331.7921142578125</ele>
        <time>2005-09-04T08:30:33Z</time>
      </trkpt>
      <trkpt lat="45.753477355465293" lon="8.994609732180834">
        <ele>331.7921142578125</ele>
        <time>2005-09-04T08:30:37Z</time>
      </trkpt>
      <trkpt lat="45.753389094024897" lon="8.994684331119061">
        <ele>331.7921142578125</ele>
        <time>2005-09-04T08:30:41Z</time>
      </trkpt>
      <trkpt lat="45.753293875604868" lon="8.994764965027571">
        <ele>331.3115234375</ele>
        <time>2005-09-04T08:30:45Z</time>
      </trkpt>
      <trkpt lat="45.753212654963136" lon="8.994833696633577">
        <ele>330.8309326171875</ele>
        <time>2005-09-04T08:30:48Z</time>
      </trkpt>
      <trkpt lat="45.753122130408883" lon="8.994910307228565">
        <ele>331.3115234375</ele>
        <time>2005-09-04T08:30:51Z</time>
      </trkpt>
      <trkpt lat="45.753028253093362" lon="8.994989767670631">
        <ele>331.3115234375</ele>
        <time>2005-09-04T08:30:54Z</time>
      </trkpt>
      <trkpt lat="45.752936555072665" lon="8.995067300274968">
        <ele>331.3115234375</ele>
        <time>2005-09-04T08:30:57Z</time>
      </trkpt>
      <trkpt lat="45.752839827910066" lon="8.995149107649922">
        <ele>330.3502197265625</ele>
        <time>2005-09-04T08:31:00Z</time>
      </trkpt>
      <trkpt lat="45.752738742157817" lon="8.995234686881304">
        <ele>330.8309326171875</ele>
        <time>2005-09-04T08:31:03Z</time>
      </trkpt>
      <trkpt lat="45.752643272280693" lon="8.995315488427877">
        <ele>330.8309326171875</ele>
        <time>2005-09-04T08:31:06Z</time>
      </trkpt>
      <trkpt lat="45.752556435763836" lon="8.995388997718692">
        <ele>330.8309326171875</ele>
        <time>2005-09-04T08:31:09Z</time>
      </trkpt>
      <trkpt lat="45.752481417730451" lon="8.9954524487257">
        <ele>330.8309326171875</ele>
        <time>2005-09-04T08:31:12Z</time>
      </trkpt>
      <trkpt lat="45.752410003915429" lon="8.995512882247567">
        <ele>330.8309326171875</ele>
        <time>2005-09-04T08:31:16Z</time>
      </trkpt>
      <trkpt lat="45.752350576221943" lon="8.995590079575777">
        <ele>330.8309326171875</ele>
        <time>2005-09-04T08:31:20Z</time>
      </trkpt>
      <trkpt lat="45.752179669216275" lon="8.995534256100655">
        <ele>329.8695068359375</ele>
        <time>2005-09-04T08:31:24Z</time>
      </trkpt>
      <trkpt lat="45.752048827707767" lon="8.995558144524694">
        <ele>329.8695068359375</ele>
        <time>2005-09-04T08:31:28Z</time>
      </trkpt>
      <trkpt lat="45.751954447478056" lon="8.99557214230299">
        <ele>329.8695068359375</ele>
        <time>2005-09-04T08:31:31Z</time>
      </trkpt>
      <trkpt lat="45.751848081126809" lon="8.995595527812839">
        <ele>329.388916015625</ele>
        <time>2005-09-04T08:31:34Z</time>
      </trkpt>
      <trkpt lat="45.751741714775562" lon="8.995598796755076">
        <ele>329.8695068359375</ele>
        <time>2005-09-04T08:31:37Z</time>
      </trkpt>
      <trkpt lat="45.751629984006286" lon="8.995596030727029">
        <ele>329.8695068359375</ele>
        <time>2005-09-04T08:31:40Z</time>
      </trkpt>
      <trkpt lat="45.751532251015306" lon="8.995579853653908">
        <ele>329.8695068359375</ele>
        <time>2005-09-04T08:31:43Z</time>
      </trkpt>
      <trkpt lat="45.751424375921488" lon="8.995574153959751">
        <ele>328.9083251953125</ele>
        <time>2005-09-04T08:31:46Z</time>
      </trkpt>
      <trkpt lat="45.751319350674748" lon="8.995563257485628">
        <ele>329.388916015625</ele>
        <time>2005-09-04T08:31:49Z</time>
      </trkpt>
      <trkpt lat="45.751207703724504" lon="8.995555629953742">
        <ele>328.4276123046875</ele>
        <time>2005-09-04T08:31:52Z</time>
      </trkpt>
      <trkpt lat="45.751105695962906" lon="8.995545906946063">
        <ele>328.9083251953125</ele>
        <time>2005-09-04T08:31:55Z</time>
      </trkpt>
      <trkpt lat="45.750984661281109" lon="8.995544984936714">
        <ele>328.9083251953125</ele>
        <time>2005-09-04T08:31:59Z</time>
      </trkpt>
      <trkpt lat="45.750873936340213" lon="8.99554674513638">
        <ele>328.4276123046875</ele>
        <time>2005-09-04T08:32:03Z</time>
      </trkpt>
      <trkpt lat="45.750747788697481" lon="8.995588906109333">
        <ele>328.9083251953125</ele>
        <time>2005-09-04T08:32:07Z</time>
      </trkpt>
      <trkpt lat="45.750632705166936" lon="8.995640370994806">
        <ele>328.4276123046875</ele>
        <time>2005-09-04T08:32:11Z</time>
      </trkpt>
      <trkpt lat="45.750547125935555" lon="8.995682029053569">
        <ele>328.4276123046875</ele>
        <time>2005-09-04T08:32:14Z</time>
      </trkpt>
      <trkpt lat="45.750463474541903" lon="8.99572167545557">
        <ele>328.4276123046875</ele>
        <time>2005-09-04T08:32:17Z</time>
      </trkpt>
      <trkpt lat="45.750349061563611" lon="8.995782360434532">
        <ele>328.4276123046875</ele>
        <time>2005-09-04T08:32:21Z</time>
      </trkpt>
      <trkpt lat="45.750225344672799" lon="8.995851930230856">
        <ele>327.94677734375</ele>
        <time>2005-09-04T08:32:25Z</time>
      </trkpt>
      <trkpt lat="45.750130210071802" lon="8.995908675715327">
        <ele>327.4661865234375</ele>
        <time>2005-09-04T08:32:28Z</time>
      </trkpt>
      <trkpt lat="45.750030130147934" lon="8.995972294360399">
        <ele>327.94677734375</ele>
        <time>2005-09-04T08:32:31Z</time>
      </trkpt>
      <trkpt lat="45.749926697462797" lon="8.99605049751699">
        <ele>327.4661865234375</ele>
        <time>2005-09-04T08:32:34Z</time>
      </trkpt>
      <trkpt lat="45.749819073826075" lon="8.996144207194448">
        <ele>327.94677734375</ele>
        <time>2005-09-04T08:32:38Z</time>
      </trkpt>
      <trkpt lat="45.749710779637098" lon="8.996236743405461">
        <ele>327.4661865234375</ele>
        <time>2005-09-04T08:32:41Z</time>
      </trkpt>
      <trkpt lat="45.749612711369991" lon="8.996328189969063">
        <ele>326.985595703125</ele>
        <time>2005-09-04T08:32:44Z</time>
      </trkpt>
      <trkpt lat="45.749516822397709" lon="8.996416116133332">
        <ele>326.985595703125</ele>
        <time>2005-09-04T08:32:47Z</time>
      </trkpt>
      <trkpt lat="45.749414311721921" lon="8.996498845517635">
        <ele>327.4661865234375</ele>
        <time>2005-09-04T08:32:51Z</time>
      </trkpt>
      <trkpt lat="45.749303000047803" lon="8.996593141928315">
        <ele>327.4661865234375</ele>
        <time>2005-09-04T08:32:55Z</time>
      </trkpt>
      <trkpt lat="45.749216414988041" lon="8.99666522629559">
        <ele>327.4661865234375</ele>
        <time>2005-09-04T08:32:58Z</time>
      </trkpt>
      <trkpt lat="45.749123124405742" lon="8.996752817183733">
        <ele>327.4661865234375</ele>
        <time>2005-09-04T08:33:01Z</time>
      </trkpt>
      <trkpt lat="45.749034695327282" lon="8.996826745569706">
        <ele>327.4661865234375</ele>
        <time>2005-09-04T08:33:04Z</time>
      </trkpt>
      <trkpt lat="45.748937213793397" lon="8.996911905705929">
        <ele>327.4661865234375</ele>
        <time>2005-09-04T08:33:07Z</time>
      </trkpt>
      <trkpt lat="45.748838055878878" lon="8.997006369754672">
        <ele>327.4661865234375</ele>
        <time>2005-09-04T08:33:10Z</time>
      </trkpt>
      <trkpt lat="45.748754991218448" lon="8.99709664285183">
        <ele>327.94677734375</ele>
        <time>2005-09-04T08:33:13Z</time>
      </trkpt>
      <trkpt lat="45.748774604871869" lon="8.997242152690888">
        <ele>327.94677734375</ele>
        <time>2005-09-04T08:33:17Z</time>
      </trkpt>
      <trkpt lat="45.748821627348661" lon="8.997399816289544">
        <ele>327.94677734375</ele>
        <time>2005-09-04T08:33:21Z</time>
      </trkpt>
      <trkpt lat="45.748871080577374" lon="8.997564855962992">
        <ele>327.94677734375</ele>
        <time>2005-09-04T08:33:25Z</time>
      </trkpt>
      <trkpt lat="45.748905446380377" lon="8.997705252841115">
        <ele>327.94677734375</ele>
        <time>2005-09-04T08:33:28Z</time>
      </trkpt>
      <trkpt lat="45.748940482735634" lon="8.997846487909555">
        <ele>327.4661865234375</ele>
        <time>2005-09-04T08:33:31Z</time>
      </trkpt>
      <trkpt lat="45.748970657587051" lon="8.997992500662804">
        <ele>327.4661865234375</ele>
        <time>2005-09-04T08:33:34Z</time>
      </trkpt>
      <trkpt lat="45.749008459970355" lon="8.998145386576653">
        <ele>326.985595703125</ele>
        <time>2005-09-04T08:33:37Z</time>
      </trkpt>
      <trkpt lat="45.749043663963675" lon="8.998300535604358">
        <ele>327.4661865234375</ele>
        <time>2005-09-04T08:33:40Z</time>
      </trkpt>
      <trkpt lat="45.749085238203406" lon="8.998455014079809">
        <ele>327.4661865234375</ele>
        <time>2005-09-04T08:33:43Z</time>
      </trkpt>
      <trkpt lat="45.749130584299564" lon="8.998607564717531">
        <ele>326.985595703125</ele>
        <time>2005-09-04T08:33:46Z</time>
      </trkpt>
      <trkpt lat="45.749169727787375" lon="8.998756427317858">
        <ele>327.4661865234375</ele>
        <time>2005-09-04T08:33:49Z</time>
      </trkpt>
      <trkpt lat="45.749207278713584" lon="8.99889531545341">
        <ele>327.4661865234375</ele>
        <time>2005-09-04T08:33:52Z</time>
      </trkpt>
      <trkpt lat="45.749243907630444" lon="8.99907317943871">
        <ele>327.4661865234375</ele>
        <time>2005-09-04T08:33:56Z</time>
      </trkpt>
      <trkpt lat="45.749278105795383" lon="8.999211983755231">
        <ele>326.985595703125</ele>
        <time>2005-09-04T08:33:59Z</time>
      </trkpt>
      <trkpt lat="45.749318758025765" lon="8.999357577413321">
        <ele>326.985595703125</ele>
        <time>2005-09-04T08:34:02Z</time>
      </trkpt>
      <trkpt lat="45.749346585944295" lon="8.999483305960894">
        <ele>327.4661865234375</ele>
        <time>2005-09-04T08:34:05Z</time>
      </trkpt>
      <trkpt lat="45.749387657269835" lon="8.999622529372573">
        <ele>327.4661865234375</ele>
        <time>2005-09-04T08:34:09Z</time>
      </trkpt>
      <trkpt lat="45.749458149075508" lon="8.999748425558209">
        <ele>327.4661865234375</ele>
        <time>2005-09-04T08:34:13Z</time>
      </trkpt>
      <trkpt lat="45.749517409130931" lon="8.999873818829656">
        <ele>327.4661865234375</ele>
        <time>2005-09-04T08:34:17Z</time>
      </trkpt>
      <trkpt lat="45.74953886680305" lon="9.000005330890417">
        <ele>328.4276123046875</ele>
        <time>2005-09-04T08:34:22Z</time>
      </trkpt>
      <trkpt lat="45.749552110210061" lon="9.000140111893416">
        <ele>327.4661865234375</ele>
        <time>2005-09-04T08:34:27Z</time>
      </trkpt>
      <trkpt lat="45.749560827389359" lon="9.00028889067471">
        <ele>327.94677734375</ele>
        <time>2005-09-04T08:34:32Z</time>
      </trkpt>
      <trkpt lat="45.74954766780138" lon="9.000419313088059">
        <ele>327.4661865234375</ele>
        <time>2005-09-04T08:34:36Z</time>
      </trkpt>
      <trkpt lat="45.749484552070498" lon="9.000578736886382">
        <ele>327.4661865234375</ele>
        <time>2005-09-04T08:34:40Z</time>
      </trkpt>
      <trkpt lat="45.749415652826428" lon="9.000710248947144">
        <ele>327.94677734375</ele>
        <time>2005-09-04T08:34:43Z</time>
      </trkpt>
      <trkpt lat="45.749356811866164" lon="9.000848550349474">
        <ele>327.4661865234375</ele>
        <time>2005-09-04T08:34:46Z</time>
      </trkpt>
      <trkpt lat="45.749287493526936" lon="9.000988192856312">
        <ele>327.94677734375</ele>
        <time>2005-09-04T08:34:49Z</time>
      </trkpt>
      <trkpt lat="45.749227898195386" lon="9.001138312742114">
        <ele>327.4661865234375</ele>
        <time>2005-09-04T08:34:52Z</time>
      </trkpt>
      <trkpt lat="45.74916360899806" lon="9.001293042674661">
        <ele>326.985595703125</ele>
        <time>2005-09-04T08:34:55Z</time>
      </trkpt>
      <trkpt lat="45.749119939282537" lon="9.001437295228243">
        <ele>326.985595703125</ele>
        <time>2005-09-04T08:34:58Z</time>
      </trkpt>
      <trkpt lat="45.749084483832121" lon="9.001568891108036">
        <ele>327.4661865234375</ele>
        <time>2005-09-04T08:35:01Z</time>
      </trkpt>
      <trkpt lat="45.749027989804745" lon="9.00171079672873">
        <ele>327.4661865234375</ele>
        <time>2005-09-04T08:35:04Z</time>
      </trkpt>
      <trkpt lat="45.748989349231124" lon="9.001842644065619">
        <ele>326.5048828125</ele>
        <time>2005-09-04T08:35:07Z</time>
      </trkpt>
      <trkpt lat="45.748958922922611" lon="9.001981783658266">
        <ele>326.985595703125</ele>
        <time>2005-09-04T08:35:10Z</time>
      </trkpt>
      <trkpt lat="45.748921539634466" lon="9.002120839431882">
        <ele>326.5048828125</ele>
        <time>2005-09-04T08:35:13Z</time>
      </trkpt>
      <trkpt lat="45.748875942081213" lon="9.002259476110339">
        <ele>326.5048828125</ele>
        <time>2005-09-04T08:35:16Z</time>
      </trkpt>
      <trkpt lat="45.748845096677542" lon="9.002396101132035">
        <ele>326.5048828125</ele>
        <time>2005-09-04T08:35:19Z</time>
      </trkpt>
      <trkpt lat="45.748786926269531" lon="9.002523422241211">
        <ele>323.6209716796875</ele>
        <time>2005-09-04T08:35:38Z</time>
      </trkpt>
      <trkpt lat="45.748769827187061" lon="9.002543203532696">
        <ele>323.6209716796875</ele>
        <time>2005-09-04T08:35:46Z</time>
      </trkpt>
      <trkpt lat="45.748667484149337" lon="9.002714864909649">
        <ele>326.024169921875</ele>
        <time>2005-09-04T08:45:45Z</time>
      </trkpt>
      <trkpt lat="45.748579641804099" lon="9.002826511859894">
        <ele>325.5435791015625</ele>
        <time>2005-09-04T08:45:49Z</time>
      </trkpt>
      <trkpt lat="45.748502779752016" lon="9.002907313406467">
        <ele>325.5435791015625</ele>
        <time>2005-09-04T08:45:52Z</time>
      </trkpt>
      <trkpt lat="45.74842432513833" lon="9.003000520169735">
        <ele>326.024169921875</ele>
        <time>2005-09-04T08:45:55Z</time>
      </trkpt>
      <trkpt lat="45.748335560783744" lon="9.003097666427493">
        <ele>326.024169921875</ele>
        <time>2005-09-04T08:45:58Z</time>
      </trkpt>
      <trkpt lat="45.748240510001779" lon="9.003197997808456">
        <ele>325.5435791015625</ele>
        <time>2005-09-04T08:46:01Z</time>
      </trkpt>
      <trkpt lat="45.748123833909631" lon="9.003291288390756">
        <ele>325.5435791015625</ele>
        <time>2005-09-04T08:46:04Z</time>
      </trkpt>
      <trkpt lat="45.748043367639184" lon="9.00338432751596">
        <ele>325.5435791015625</ele>
        <time>2005-09-04T08:46:06Z</time>
      </trkpt>
      <trkpt lat="45.747961392626166" lon="9.003477701917291">
        <ele>325.5435791015625</ele>
        <time>2005-09-04T08:46:08Z</time>
      </trkpt>
      <trkpt lat="45.747879836708307" lon="9.003559174016118">
        <ele>325.06298828125</ele>
        <time>2005-09-04T08:46:10Z</time>
      </trkpt>
      <trkpt lat="45.747785540297627" lon="9.00365355424583">
        <ele>324.582275390625</ele>
        <time>2005-09-04T08:46:13Z</time>
      </trkpt>
      <trkpt lat="45.747703900560737" lon="9.003735277801752">
        <ele>324.582275390625</ele>
        <time>2005-09-04T08:46:17Z</time>
      </trkpt>
      <trkpt lat="45.747538777068257" lon="9.003881122916937">
        <ele>324.1015625</ele>
        <time>2005-09-04T08:46:28Z</time>
      </trkpt>
      <trkpt lat="45.747431823983788" lon="9.003965193405747">
        <ele>324.1015625</ele>
        <time>2005-09-04T08:46:31Z</time>
      </trkpt>
      <trkpt lat="45.747354039922357" lon="9.004026297479868">
        <ele>323.6209716796875</ele>
        <time>2005-09-04T08:46:33Z</time>
      </trkpt>
      <trkpt lat="45.747266784310341" lon="9.004094861447811">
        <ele>324.1015625</ele>
        <time>2005-09-04T08:46:35Z</time>
      </trkpt>
      <trkpt lat="45.747175924479961" lon="9.004166275262833">
        <ele>323.6209716796875</ele>
        <time>2005-09-04T08:46:37Z</time>
      </trkpt>
      <trkpt lat="45.747084561735392" lon="9.004238108173013">
        <ele>323.140380859375</ele>
        <time>2005-09-04T08:46:39Z</time>
      </trkpt>
      <trkpt lat="45.746979033574462" lon="9.004299128428102">
        <ele>323.140380859375</ele>
        <time>2005-09-04T08:46:41Z</time>
      </trkpt>
      <trkpt lat="45.746864536777139" lon="9.004337349906564">
        <ele>322.65966796875</ele>
        <time>2005-09-04T08:46:43Z</time>
      </trkpt>
      <trkpt lat="45.74675272218883" lon="9.004371631890535">
        <ele>322.65966796875</ele>
        <time>2005-09-04T08:46:45Z</time>
      </trkpt>
      <trkpt lat="45.746636968106031" lon="9.004390994086862">
        <ele>322.65966796875</ele>
        <time>2005-09-04T08:46:47Z</time>
      </trkpt>
      <trkpt lat="45.746522638946772" lon="9.004410104826093">
        <ele>322.65966796875</ele>
        <time>2005-09-04T08:46:49Z</time>
      </trkpt>
      <trkpt lat="45.746412919834256" lon="9.004428377375007">
        <ele>322.178955078125</ele>
        <time>2005-09-04T08:46:51Z</time>
      </trkpt>
      <trkpt lat="45.74629825539887" lon="9.004447488114238">
        <ele>322.65966796875</ele>
        <time>2005-09-04T08:46:53Z</time>
      </trkpt>
      <trkpt lat="45.746188033372164" lon="9.004464168101549">
        <ele>322.65966796875</ele>
        <time>2005-09-04T08:46:55Z</time>
      </trkpt>
      <trkpt lat="45.746074542403221" lon="9.004480428993702">
        <ele>322.65966796875</ele>
        <time>2005-09-04T08:46:57Z</time>
      </trkpt>
      <trkpt lat="45.745959123596549" lon="9.00449694134295">
        <ele>323.140380859375</ele>
        <time>2005-09-04T08:46:59Z</time>
      </trkpt>
      <trkpt lat="45.745840184390545" lon="9.004509011283517">
        <ele>322.178955078125</ele>
        <time>2005-09-04T08:47:01Z</time>
      </trkpt>
      <trkpt lat="45.745719065889716" lon="9.004521165043116">
        <ele>322.65966796875</ele>
        <time>2005-09-04T08:47:03Z</time>
      </trkpt>
      <trkpt lat="45.745599456131458" lon="9.004533067345619">
        <ele>322.178955078125</ele>
        <time>2005-09-04T08:47:05Z</time>
      </trkpt>
      <trkpt lat="45.745483618229628" lon="9.004544718191028">
        <ele>322.65966796875</ele>
        <time>2005-09-04T08:47:07Z</time>
      </trkpt>
      <trkpt lat="45.745372474193573" lon="9.004555782303214">
        <ele>321.6983642578125</ele>
        <time>2005-09-04T08:47:09Z</time>
      </trkpt>
      <trkpt lat="45.745261246338487" lon="9.004566930234432">
        <ele>322.178955078125</ele>
        <time>2005-09-04T08:47:11Z</time>
      </trkpt>
      <trkpt lat="45.745147755369544" lon="9.004578329622746">
        <ele>322.178955078125</ele>
        <time>2005-09-04T08:47:13Z</time>
      </trkpt>
      <trkpt lat="45.74503518640995" lon="9.004597524181008">
        <ele>322.178955078125</ele>
        <time>2005-09-04T08:47:15Z</time>
      </trkpt>
      <trkpt lat="45.744923958554864" lon="9.004623172804713">
        <ele>321.6983642578125</ele>
        <time>2005-09-04T08:47:17Z</time>
      </trkpt>
      <trkpt lat="45.744810132309794" lon="9.00464940816164">
        <ele>321.6983642578125</ele>
        <time>2005-09-04T08:47:19Z</time>
      </trkpt>
      <trkpt lat="45.744693372398615" lon="9.004676481708884">
        <ele>321.6983642578125</ele>
        <time>2005-09-04T08:47:21Z</time>
      </trkpt>
      <trkpt lat="45.744599578902125" lon="9.004698107019067">
        <ele>321.6983642578125</ele>
        <time>2005-09-04T08:47:23Z</time>
      </trkpt>
      <trkpt lat="45.744466055184603" lon="9.004748230800033">
        <ele>321.2177734375</ele>
        <time>2005-09-04T08:47:26Z</time>
      </trkpt>
      <trkpt lat="45.744357593357563" lon="9.004802545532584">
        <ele>321.6983642578125</ele>
        <time>2005-09-04T08:47:29Z</time>
      </trkpt>
      <trkpt lat="45.744257932528853" lon="9.004852417856455">
        <ele>321.6983642578125</ele>
        <time>2005-09-04T08:47:33Z</time>
      </trkpt>
      <trkpt lat="45.744168665260077" lon="9.004896925762296">
        <ele>321.2177734375</ele>
        <time>2005-09-04T08:47:36Z</time>
      </trkpt>
      <trkpt lat="45.744109153747559" lon="9.004926681518555">
        <ele>320.737060546875</ele>
        <time>2005-09-04T08:47:39Z</time>
      </trkpt>
      <trkpt lat="45.744109153747559" lon="9.004926681518555">
        <ele>321.2177734375</ele>
        <time>2005-09-04T08:47:43Z</time>
      </trkpt>
      <trkpt lat="45.744109153747559" lon="9.004926681518555">
        <ele>321.6983642578125</ele>
        <time>2005-09-04T08:47:47Z</time>
      </trkpt>
      <trkpt lat="45.744109153747559" lon="9.004926681518555">
        <ele>321.2177734375</ele>
        <time>2005-09-04T08:47:51Z</time>
      </trkpt>
      <trkpt lat="45.744109153747559" lon="9.004926681518555">
        <ele>321.6983642578125</ele>
        <time>2005-09-04T08:47:55Z</time>
      </trkpt>
      <trkpt lat="45.743563156574965" lon="9.005103707313538">
        <ele>321.6983642578125</ele>
        <time>2005-09-04T08:47:59Z</time>
      </trkpt>
      <trkpt lat="45.743468021973968" lon="9.005103204399347">
        <ele>321.6983642578125</ele>
        <time>2005-09-04T08:48:03Z</time>
      </trkpt>
      <trkpt lat="45.743364002555609" lon="9.005062049254775">
        <ele>321.6983642578125</ele>
        <time>2005-09-04T08:48:08Z</time>
      </trkpt>
      <trkpt lat="45.743272975087166" lon="9.005033718422055">
        <ele>321.2177734375</ele>
        <time>2005-09-04T08:48:12Z</time>
      </trkpt>
      <trkpt lat="45.743167782202363" lon="9.004995916038752">
        <ele>321.6983642578125</ele>
        <time>2005-09-04T08:48:17Z</time>
      </trkpt>
      <trkpt lat="45.74306845664978" lon="9.004949647933245">
        <ele>321.6983642578125</ele>
        <time>2005-09-04T08:48:22Z</time>
      </trkpt>
      <trkpt lat="45.742978267371655" lon="9.004890639334917">
        <ele>321.6983642578125</ele>
        <time>2005-09-04T08:48:27Z</time>
      </trkpt>
      <trkpt lat="45.742891095578671" lon="9.004825176671147">
        <ele>322.178955078125</ele>
        <time>2005-09-04T08:48:32Z</time>
      </trkpt>
      <trkpt lat="45.74282169342041" lon="9.004773795604706">
        <ele>321.6983642578125</ele>
        <time>2005-09-04T08:48:40Z</time>
      </trkpt>
      <trkpt lat="45.742739802226424" lon="9.004728449508548">
        <ele>323.140380859375</ele>
        <time>2005-09-04T08:48:48Z</time>
      </trkpt>
      <trkpt lat="45.742649026215076" lon="9.00469433516264">
        <ele>322.65966796875</ele>
        <time>2005-09-04T08:48:54Z</time>
      </trkpt>
      <trkpt lat="45.742545342072845" lon="9.004666758701205">
        <ele>323.6209716796875</ele>
        <time>2005-09-04T08:48:59Z</time>
      </trkpt>
      <trkpt lat="45.742435874417424" lon="9.004642032086849">
        <ele>324.1015625</ele>
        <time>2005-09-04T08:49:04Z</time>
      </trkpt>
      <trkpt lat="45.742330681532621" lon="9.004653599113226">
        <ele>324.582275390625</ele>
        <time>2005-09-04T08:49:10Z</time>
      </trkpt>
      <trkpt lat="45.742234289646149" lon="9.004728365689516">
        <ele>325.06298828125</ele>
        <time>2005-09-04T08:49:17Z</time>
      </trkpt>
      <trkpt lat="45.742152901366353" lon="9.004829535260797">
        <ele>325.5435791015625</ele>
        <time>2005-09-04T08:49:36Z</time>
      </trkpt>
      <trkpt lat="45.742062460631132" lon="9.004916707053781">
        <ele>325.5435791015625</ele>
        <time>2005-09-04T08:49:41Z</time>
      </trkpt>
      <trkpt lat="45.741980066522956" lon="9.005005806684494">
        <ele>325.06298828125</ele>
        <time>2005-09-04T08:49:46Z</time>
      </trkpt>
      <trkpt lat="45.741892056539655" lon="9.005075795575976">
        <ele>325.5435791015625</ele>
        <time>2005-09-04T08:49:51Z</time>
      </trkpt>
      <trkpt lat="45.741801364347339" lon="9.005152992904186">
        <ele>324.582275390625</ele>
        <time>2005-09-04T08:49:57Z</time>
      </trkpt>
      <trkpt lat="45.741716288030148" lon="9.005219209939241">
        <ele>324.582275390625</ele>
        <time>2005-09-04T08:50:02Z</time>
      </trkpt>
      <trkpt lat="45.741621907800436" lon="9.005247708410025">
        <ele>324.582275390625</ele>
        <time>2005-09-04T08:50:08Z</time>
      </trkpt>
      <trkpt lat="45.74152828194201" lon="9.00525969453156">
        <ele>324.1015625</ele>
        <time>2005-09-04T08:50:13Z</time>
      </trkpt>
      <trkpt lat="45.741428537294269" lon="9.00527729652822">
        <ele>324.1015625</ele>
        <time>2005-09-04T08:50:19Z</time>
      </trkpt>
      <trkpt lat="45.741319488734007" lon="9.005263298749924">
        <ele>324.1015625</ele>
        <time>2005-09-04T08:50:25Z</time>
      </trkpt>
      <trkpt lat="45.741225611418486" lon="9.005268160253763">
        <ele>324.1015625</ele>
        <time>2005-09-04T08:50:30Z</time>
      </trkpt>
      <trkpt lat="45.741126118227839" lon="9.005335550755262">
        <ele>323.6209716796875</ele>
        <time>2005-09-04T08:50:35Z</time>
      </trkpt>
      <trkpt lat="45.741031402722001" lon="9.005407886579633">
        <ele>323.6209716796875</ele>
        <time>2005-09-04T08:50:40Z</time>
      </trkpt>
      <trkpt lat="45.740936268121004" lon="9.005460692569614">
        <ele>324.582275390625</ele>
        <time>2005-09-04T08:50:45Z</time>
      </trkpt>
      <trkpt lat="45.740840965881944" lon="9.005505200475454">
        <ele>324.582275390625</ele>
        <time>2005-09-04T08:50:50Z</time>
      </trkpt>
      <trkpt lat="45.740745915099978" lon="9.005549624562264">
        <ele>324.582275390625</ele>
        <time>2005-09-04T08:50:55Z</time>
      </trkpt>
      <trkpt lat="45.740652792155743" lon="9.005586253479123">
        <ele>324.582275390625</ele>
        <time>2005-09-04T08:51:00Z</time>
      </trkpt>
      <trkpt lat="45.740555478259921" lon="9.00561299175024">
        <ele>324.1015625</ele>
        <time>2005-09-04T08:51:05Z</time>
      </trkpt>
      <trkpt lat="45.740448022261262" lon="9.005631767213345">
        <ele>324.582275390625</ele>
        <time>2005-09-04T08:51:10Z</time>
      </trkpt>
      <trkpt lat="45.740341236814857" lon="9.005642076954246">
        <ele>324.1015625</ele>
        <time>2005-09-04T08:51:15Z</time>
      </trkpt>
      <trkpt lat="45.740237301215529" lon="9.005654146894813">
        <ele>324.1015625</ele>
        <time>2005-09-04T08:51:20Z</time>
      </trkpt>
      <trkpt lat="45.740147363394499" lon="9.005672000348568">
        <ele>324.1015625</ele>
        <time>2005-09-04T08:51:24Z</time>
      </trkpt>
      <trkpt lat="45.740057341754436" lon="9.005697062239051">
        <ele>324.1015625</ele>
        <time>2005-09-04T08:51:28Z</time>
      </trkpt>
      <trkpt lat="45.739969667047262" lon="9.005722710862756">
        <ele>324.582275390625</ele>
        <time>2005-09-04T08:51:32Z</time>
      </trkpt>
      <trkpt lat="45.739873358979821" lon="9.005741570144892">
        <ele>324.1015625</ele>
        <time>2005-09-04T08:51:37Z</time>
      </trkpt>
      <trkpt lat="45.739785181358457" lon="9.005754478275776">
        <ele>324.1015625</ele>
        <time>2005-09-04T08:51:41Z</time>
      </trkpt>
      <trkpt lat="45.739696333184838" lon="9.00577375665307">
        <ele>324.1015625</ele>
        <time>2005-09-04T08:51:46Z</time>
      </trkpt>
      <trkpt lat="45.73961385525763" lon="9.005798902362585">
        <ele>324.1015625</ele>
        <time>2005-09-04T08:51:51Z</time>
      </trkpt>
      <trkpt lat="45.739524085074663" lon="9.005834357813001">
        <ele>324.1015625</ele>
        <time>2005-09-04T08:51:57Z</time>
      </trkpt>
      <trkpt lat="45.739419814199209" lon="9.005874926224351">
        <ele>323.6209716796875</ele>
        <time>2005-09-04T08:52:04Z</time>
      </trkpt>
      <trkpt lat="45.739314202219248" lon="9.005916668102145">
        <ele>323.6209716796875</ele>
        <time>2005-09-04T08:52:10Z</time>
      </trkpt>
      <trkpt lat="45.739214373752475" lon="9.005926977843046">
        <ele>324.1015625</ele>
        <time>2005-09-04T08:52:15Z</time>
      </trkpt>
      <trkpt lat="45.739110354334116" lon="9.005960673093796">
        <ele>324.1015625</ele>
        <time>2005-09-04T08:52:20Z</time>
      </trkpt>
      <trkpt lat="45.739008598029613" lon="9.0060019120574">
        <ele>324.1015625</ele>
        <time>2005-09-04T08:52:25Z</time>
      </trkpt>
      <trkpt lat="45.738928215578198" lon="9.006013562902808">
        <ele>323.140380859375</ele>
        <time>2005-09-04T08:52:30Z</time>
      </trkpt>
      <trkpt lat="45.738810617476702" lon="9.006068296730518">
        <ele>324.1015625</ele>
        <time>2005-09-04T08:52:35Z</time>
      </trkpt>
      <trkpt lat="45.738711794838309" lon="9.006079444661737">
        <ele>323.6209716796875</ele>
        <time>2005-09-04T08:52:40Z</time>
      </trkpt>
      <trkpt lat="45.738601824268699" lon="9.006108278408647">
        <ele>324.1015625</ele>
        <time>2005-09-04T08:52:45Z</time>
      </trkpt>
      <trkpt lat="45.738499397411942" lon="9.006131161004305">
        <ele>323.6209716796875</ele>
        <time>2005-09-04T08:52:50Z</time>
      </trkpt>
      <trkpt lat="45.738406525924802" lon="9.006160916760564">
        <ele>323.140380859375</ele>
        <time>2005-09-04T08:52:54Z</time>
      </trkpt>
      <trkpt lat="45.738295465707779" lon="9.006213638931513">
        <ele>323.6209716796875</ele>
        <time>2005-09-04T08:52:59Z</time>
      </trkpt>
      <trkpt lat="45.73819974437356" lon="9.006289662793279">
        <ele>323.6209716796875</ele>
        <time>2005-09-04T08:53:04Z</time>
      </trkpt>
      <trkpt lat="45.738112991675735" lon="9.006377840414643">
        <ele>323.6209716796875</ele>
        <time>2005-09-04T08:53:09Z</time>
      </trkpt>
      <trkpt lat="45.738013247027993" lon="9.006441459059715">
        <ele>323.6209716796875</ele>
        <time>2005-09-04T08:53:14Z</time>
      </trkpt>
      <trkpt lat="45.737922890111804" lon="9.006475238129497">
        <ele>323.140380859375</ele>
        <time>2005-09-04T08:53:18Z</time>
      </trkpt>
      <trkpt lat="45.737825240939856" lon="9.006492253392935">
        <ele>323.140380859375</ele>
        <time>2005-09-04T08:53:22Z</time>
      </trkpt>
      <trkpt lat="45.737702362239361" lon="9.006503485143185">
        <ele>323.6209716796875</ele>
        <time>2005-09-04T08:53:27Z</time>
      </trkpt>
      <trkpt lat="45.737605635076761" lon="9.006482027471066">
        <ele>323.140380859375</ele>
        <time>2005-09-04T08:53:31Z</time>
      </trkpt>
      <trkpt lat="45.73750396259129" lon="9.006480854004622">
        <ele>323.140380859375</ele>
        <time>2005-09-04T08:53:35Z</time>
      </trkpt>
      <trkpt lat="45.737402038648725" lon="9.006445063278079">
        <ele>323.140380859375</ele>
        <time>2005-09-04T08:53:39Z</time>
      </trkpt>
      <trkpt lat="45.737295504659414" lon="9.00643290951848">
        <ele>323.140380859375</ele>
        <time>2005-09-04T08:53:43Z</time>
      </trkpt>
      <trkpt lat="45.737197939306498" lon="9.006409356370568">
        <ele>323.6209716796875</ele>
        <time>2005-09-04T08:53:47Z</time>
      </trkpt>
      <trkpt lat="45.737096183001995" lon="9.006387898698449">
        <ele>323.140380859375</ele>
        <time>2005-09-04T08:53:51Z</time>
      </trkpt>
      <trkpt lat="45.736987637355924" lon="9.00634984485805">
        <ele>323.6209716796875</ele>
        <time>2005-09-04T08:53:56Z</time>
      </trkpt>
      <trkpt lat="45.73688336648047" lon="9.006318999454379">
        <ele>323.6209716796875</ele>
        <time>2005-09-04T08:54:01Z</time>
      </trkpt>
      <trkpt lat="45.736786304041743" lon="9.006294021382928">
        <ele>323.140380859375</ele>
        <time>2005-09-04T08:54:06Z</time>
      </trkpt>
      <trkpt lat="45.736678764224052" lon="9.006293686106801">
        <ele>323.6209716796875</ele>
        <time>2005-09-04T08:54:11Z</time>
      </trkpt>
      <trkpt lat="45.736576840281487" lon="9.006321094930172">
        <ele>323.140380859375</ele>
        <time>2005-09-04T08:54:16Z</time>
      </trkpt>
      <trkpt lat="45.736469468101859" lon="9.006348419934511">
        <ele>323.140380859375</ele>
        <time>2005-09-04T08:54:21Z</time>
      </trkpt>
      <trkpt lat="45.736361090093851" lon="9.006386892870069">
        <ele>322.65966796875</ele>
        <time>2005-09-04T08:54:26Z</time>
      </trkpt>
      <trkpt lat="45.73625304736197" lon="9.006425701081753">
        <ele>322.65966796875</ele>
        <time>2005-09-04T08:54:31Z</time>
      </trkpt>
      <trkpt lat="45.736155398190022" lon="9.006460150703788">
        <ele>323.140380859375</ele>
        <time>2005-09-04T08:54:36Z</time>
      </trkpt>
      <trkpt lat="45.736059593036771" lon="9.006506251171231">
        <ele>323.140380859375</ele>
        <time>2005-09-04T08:54:40Z</time>
      </trkpt>
      <trkpt lat="45.735955154523253" lon="9.006551681086421">
        <ele>323.140380859375</ele>
        <time>2005-09-04T08:54:44Z</time>
      </trkpt>
      <trkpt lat="45.735854487866163" lon="9.006583616137505">
        <ele>323.6209716796875</ele>
        <time>2005-09-04T08:54:48Z</time>
      </trkpt>
      <trkpt lat="45.735754743218422" lon="9.006625860929489">
        <ele>323.140380859375</ele>
        <time>2005-09-04T08:54:52Z</time>
      </trkpt>
      <trkpt lat="45.735661452636123" lon="9.006668943911791">
        <ele>323.6209716796875</ele>
        <time>2005-09-04T08:54:57Z</time>
      </trkpt>
      <trkpt lat="45.735559947788715" lon="9.006712697446346">
        <ele>323.6209716796875</ele>
        <time>2005-09-04T08:55:02Z</time>
      </trkpt>
      <trkpt lat="45.735469171777368" lon="9.006746057420969">
        <ele>324.1015625</ele>
        <time>2005-09-04T08:55:06Z</time>
      </trkpt>
      <trkpt lat="45.735359787940979" lon="9.006785117089748">
        <ele>324.1015625</ele>
        <time>2005-09-04T08:55:11Z</time>
      </trkpt>
      <trkpt lat="45.735257361084223" lon="9.006819482892752">
        <ele>324.582275390625</ele>
        <time>2005-09-04T08:55:16Z</time>
      </trkpt>
      <trkpt lat="45.735150407999754" lon="9.006854854524136">
        <ele>324.582275390625</ele>
        <time>2005-09-04T08:55:21Z</time>
      </trkpt>
      <trkpt lat="45.735062984749675" lon="9.006883436813951">
        <ele>325.06298828125</ele>
        <time>2005-09-04T08:55:25Z</time>
      </trkpt>
      <trkpt lat="45.734957121312618" lon="9.006923753768206">
        <ele>325.06298828125</ele>
        <time>2005-09-04T08:55:30Z</time>
      </trkpt>
      <trkpt lat="45.734845893457532" lon="9.00696063414216">
        <ele>325.06298828125</ele>
        <time>2005-09-04T08:55:35Z</time>
      </trkpt>
      <trkpt lat="45.734749920666218" lon="9.006971698254347">
        <ele>325.06298828125</ele>
        <time>2005-09-04T08:55:40Z</time>
      </trkpt>
      <trkpt lat="45.734651852399111" lon="9.006966417655349">
        <ele>325.06298828125</ele>
        <time>2005-09-04T08:55:45Z</time>
      </trkpt>
      <trkpt lat="45.73454774916172" lon="9.00698309764266">
        <ele>325.06298828125</ele>
        <time>2005-09-04T08:55:52Z</time>
      </trkpt>
      <trkpt lat="45.734446244314313" lon="9.006971949711442">
        <ele>326.024169921875</ele>
        <time>2005-09-04T08:56:01Z</time>
      </trkpt>
      <trkpt lat="45.734328730031848" lon="9.00696256197989">
        <ele>325.5435791015625</ele>
        <time>2005-09-04T08:56:10Z</time>
      </trkpt>
      <trkpt lat="45.734230410307646" lon="9.006962478160858">
        <ele>326.5048828125</ele>
        <time>2005-09-04T08:56:19Z</time>
      </trkpt>
      <trkpt lat="45.734147094190121" lon="9.006986198946834">
        <ele>327.4661865234375</ele>
        <time>2005-09-04T08:56:26Z</time>
      </trkpt>
      <trkpt lat="45.734056821092963" lon="9.00701972655952">
        <ele>327.94677734375</ele>
        <time>2005-09-04T08:56:34Z</time>
      </trkpt>
      <trkpt lat="45.733967637643218" lon="9.007050571963191">
        <ele>328.9083251953125</ele>
        <time>2005-09-04T08:56:42Z</time>
      </trkpt>
      <trkpt lat="45.73386705480516" lon="9.007070437073708">
        <ele>329.8695068359375</ele>
        <time>2005-09-04T08:56:51Z</time>
      </trkpt>
      <trkpt lat="45.733778541907668" lon="9.007100025191903">
        <ele>330.8309326171875</ele>
        <time>2005-09-04T08:57:02Z</time>
      </trkpt>
      <trkpt lat="45.733687346801162" lon="9.007151741534472">
        <ele>331.3115234375</ele>
        <time>2005-09-04T08:57:08Z</time>
      </trkpt>
      <trkpt lat="45.733579052612185" lon="9.007236650213599">
        <ele>330.3502197265625</ele>
        <time>2005-09-04T08:57:12Z</time>
      </trkpt>
      <trkpt lat="45.733470674604177" lon="9.007322480902076">
        <ele>330.3502197265625</ele>
        <time>2005-09-04T08:57:16Z</time>
      </trkpt>
      <trkpt lat="45.733370343223214" lon="9.007379729300737">
        <ele>329.8695068359375</ele>
        <time>2005-09-04T08:57:20Z</time>
      </trkpt>
      <trkpt lat="45.7332709338516" lon="9.007424488663673">
        <ele>329.8695068359375</ele>
        <time>2005-09-04T08:57:24Z</time>
      </trkpt>
      <trkpt lat="45.733175380155444" lon="9.007464805617929">
        <ele>330.3502197265625</ele>
        <time>2005-09-04T08:57:28Z</time>
      </trkpt>
      <trkpt lat="45.733068594709039" lon="9.007521299645305">
        <ele>330.3502197265625</ele>
        <time>2005-09-04T08:57:33Z</time>
      </trkpt>
      <trkpt lat="45.732988966628909" lon="9.007592964917421">
        <ele>329.8695068359375</ele>
        <time>2005-09-04T08:57:41Z</time>
      </trkpt>
      <trkpt lat="45.732869608327746" lon="9.007594725117087">
        <ele>330.3502197265625</ele>
        <time>2005-09-04T08:59:53Z</time>
      </trkpt>
      <trkpt lat="45.73277598246932" lon="9.007623977959156">
        <ele>330.8309326171875</ele>
        <time>2005-09-04T08:59:59Z</time>
      </trkpt>
      <trkpt lat="45.732674645259976" lon="9.007651135325432">
        <ele>330.3502197265625</ele>
        <time>2005-09-04T09:00:07Z</time>
      </trkpt>
      <trkpt lat="45.732581606134772" lon="9.007670329883695">
        <ele>330.3502197265625</ele>
        <time>2005-09-04T09:00:15Z</time>
      </trkpt>
      <trkpt lat="45.732500972226262" lon="9.007725063711405">
        <ele>330.3502197265625</ele>
        <time>2005-09-04T09:00:26Z</time>
      </trkpt>
      <trkpt lat="45.73247741907835" lon="9.007871998474002">
        <ele>330.8309326171875</ele>
        <time>2005-09-04T09:00:37Z</time>
      </trkpt>
      <trkpt lat="45.732480185106397" lon="9.008025471121073">
        <ele>331.7921142578125</ele>
        <time>2005-09-04T09:00:45Z</time>
      </trkpt>
      <trkpt lat="45.732490075752139" lon="9.008169639855623">
        <ele>331.7921142578125</ele>
        <time>2005-09-04T09:00:52Z</time>
      </trkpt>
      <trkpt lat="45.732487896457314" lon="9.00830970145762">
        <ele>332.7535400390625</ele>
        <time>2005-09-04T09:00:58Z</time>
      </trkpt>
      <trkpt lat="45.732485465705395" lon="9.008478429168463">
        <ele>333.7147216796875</ele>
        <time>2005-09-04T09:01:05Z</time>
      </trkpt>
      <trkpt lat="45.732485046610236" lon="9.008635003119707">
        <ele>333.7147216796875</ele>
        <time>2005-09-04T09:01:12Z</time>
      </trkpt>
      <trkpt lat="45.732572553679347" lon="9.008658053353429">
        <ele>333.7147216796875</ele>
        <time>2005-09-04T09:01:18Z</time>
      </trkpt>
      <trkpt lat="45.732683865353465" lon="9.008667524904013">
        <ele>332.7535400390625</ele>
        <time>2005-09-04T09:01:24Z</time>
      </trkpt>
      <trkpt lat="45.732799787074327" lon="9.008678086102009">
        <ele>333.234130859375</ele>
        <time>2005-09-04T09:01:29Z</time>
      </trkpt>
      <trkpt lat="45.732844630256295" lon="9.00877489708364">
        <ele>333.7147216796875</ele>
        <time>2005-09-04T09:01:33Z</time>
      </trkpt>
      <trkpt lat="45.732841361314058" lon="9.008931973949075">
        <ele>334.1954345703125</ele>
        <time>2005-09-04T09:01:40Z</time>
      </trkpt>
      <trkpt lat="45.732841612771153" lon="9.009074801579118">
        <ele>334.1954345703125</ele>
        <time>2005-09-04T09:01:47Z</time>
      </trkpt>
      <trkpt lat="45.732836667448282" lon="9.009212851524353">
        <ele>335.15673828125</ele>
        <time>2005-09-04T09:01:53Z</time>
      </trkpt>
      <trkpt lat="45.732821999117732" lon="9.009379399940372">
        <ele>336.1181640625</ele>
        <time>2005-09-04T09:01:59Z</time>
      </trkpt>
      <trkpt lat="45.732816131785512" lon="9.009521305561066">
        <ele>336.598876953125</ele>
        <time>2005-09-04T09:02:05Z</time>
      </trkpt>
      <trkpt lat="45.732799032703042" lon="9.009664887562394">
        <ele>336.598876953125</ele>
        <time>2005-09-04T09:02:11Z</time>
      </trkpt>
      <trkpt lat="45.732782268896699" lon="9.009815594181418">
        <ele>336.598876953125</ele>
        <time>2005-09-04T09:02:19Z</time>
      </trkpt>
      <trkpt lat="45.732753518968821" lon="9.009969485923648">
        <ele>336.598876953125</ele>
        <time>2005-09-04T09:02:26Z</time>
      </trkpt>
      <trkpt lat="45.732719488441944" lon="9.010129831731319">
        <ele>337.0794677734375</ele>
        <time>2005-09-04T09:02:31Z</time>
      </trkpt>
      <trkpt lat="45.73268311098218" lon="9.010260589420795">
        <ele>336.1181640625</ele>
        <time>2005-09-04T09:02:35Z</time>
      </trkpt>
      <trkpt lat="45.732644218951464" lon="9.010402746498585">
        <ele>336.1181640625</ele>
        <time>2005-09-04T09:02:39Z</time>
      </trkpt>
      <trkpt lat="45.732611864805222" lon="9.010541131719947">
        <ele>335.6373291015625</ele>
        <time>2005-09-04T09:02:43Z</time>
      </trkpt>
      <trkpt lat="45.732495272532105" lon="9.010596284642816">
        <ele>335.6373291015625</ele>
        <time>2005-09-04T09:02:47Z</time>
      </trkpt>
      <trkpt lat="45.732385385781527" lon="9.01061749085784">
        <ele>335.6373291015625</ele>
        <time>2005-09-04T09:02:50Z</time>
      </trkpt>
      <trkpt lat="45.732270302250981" lon="9.010631823912263">
        <ele>335.6373291015625</ele>
        <time>2005-09-04T09:02:53Z</time>
      </trkpt>
      <trkpt lat="45.732184136286378" lon="9.010675577446818">
        <ele>335.6373291015625</ele>
        <time>2005-09-04T09:02:55Z</time>
      </trkpt>
      <trkpt lat="45.732083134353161" lon="9.010659651830792">
        <ele>335.15673828125</ele>
        <time>2005-09-04T09:02:57Z</time>
      </trkpt>
      <trkpt lat="45.731985569000244" lon="9.010677421465516">
        <ele>335.15673828125</ele>
        <time>2005-09-04T09:02:59Z</time>
      </trkpt>
      <trkpt lat="45.73188322596252" lon="9.010696029290557">
        <ele>335.15673828125</ele>
        <time>2005-09-04T09:03:01Z</time>
      </trkpt>
      <trkpt lat="45.731776440516114" lon="9.010715475305915">
        <ele>335.15673828125</ele>
        <time>2005-09-04T09:03:03Z</time>
      </trkpt>
      <trkpt lat="45.731664458289742" lon="9.010691754519939">
        <ele>335.15673828125</ele>
        <time>2005-09-04T09:03:05Z</time>
      </trkpt>
      <trkpt lat="45.731560857966542" lon="9.010657304897904">
        <ele>335.15673828125</ele>
        <time>2005-09-04T09:03:07Z</time>
      </trkpt>
      <trkpt lat="45.731481229886413" lon="9.010630734264851">
        <ele>335.15673828125</ele>
        <time>2005-09-04T09:03:09Z</time>
      </trkpt>
      <trkpt lat="45.731363296508789" lon="9.010850172489882">
        <ele>335.15673828125</ele>
        <time>2005-09-04T09:03:12Z</time>
      </trkpt>
      <trkpt lat="45.731363296508789" lon="9.010995849967003">
        <ele>334.6761474609375</ele>
        <time>2005-09-04T09:03:15Z</time>
      </trkpt>
      <trkpt lat="45.731363296508789" lon="9.011132894083858">
        <ele>335.15673828125</ele>
        <time>2005-09-04T09:03:18Z</time>
      </trkpt>
      <trkpt lat="45.731368074193597" lon="9.011304555460811">
        <ele>334.6761474609375</ele>
        <time>2005-09-04T09:03:22Z</time>
      </trkpt>
      <trkpt lat="45.731373019516468" lon="9.011467918753624">
        <ele>335.15673828125</ele>
        <time>2005-09-04T09:03:26Z</time>
      </trkpt>
      <trkpt lat="45.731377964839339" lon="9.011632120236754">
        <ele>335.6373291015625</ele>
        <time>2005-09-04T09:03:30Z</time>
      </trkpt>
      <trkpt lat="45.731382658705115" lon="9.011786095798016">
        <ele>336.598876953125</ele>
        <time>2005-09-04T09:03:34Z</time>
      </trkpt>
      <trkpt lat="45.73138726875186" lon="9.011938730254769">
        <ele>337.0794677734375</ele>
        <time>2005-09-04T09:03:38Z</time>
      </trkpt>
      <trkpt lat="45.731391543522477" lon="9.012080803513527">
        <ele>336.1181640625</ele>
        <time>2005-09-04T09:03:41Z</time>
      </trkpt>
      <trkpt lat="45.731396656483412" lon="9.012248441576958">
        <ele>335.6373291015625</ele>
        <time>2005-09-04T09:03:44Z</time>
      </trkpt>
      <trkpt lat="45.731402020901442" lon="9.012425718829036">
        <ele>335.6373291015625</ele>
        <time>2005-09-04T09:03:47Z</time>
      </trkpt>
      <trkpt lat="45.731406211853027" lon="9.012621017172933">
        <ele>334.6761474609375</ele>
        <time>2005-09-04T09:03:50Z</time>
      </trkpt>
      <trkpt lat="45.731406211853027" lon="9.012766527011991">
        <ele>334.6761474609375</ele>
        <time>2005-09-04T09:03:52Z</time>
      </trkpt>
      <trkpt lat="45.731406211853027" lon="9.012950845062733">
        <ele>333.7147216796875</ele>
        <time>2005-09-04T09:03:54Z</time>
      </trkpt>
      <trkpt lat="45.731406211853027" lon="9.013155028223991">
        <ele>333.234130859375</ele>
        <time>2005-09-04T09:03:56Z</time>
      </trkpt>
      <trkpt lat="45.731406211853027" lon="9.013334568589926">
        <ele>331.7921142578125</ele>
        <time>2005-09-04T09:03:58Z</time>
      </trkpt>
      <trkpt lat="45.731442170217633" lon="9.013519808650017">
        <ele>331.3115234375</ele>
        <time>2005-09-04T09:04:00Z</time>
      </trkpt>
      <trkpt lat="45.731485169380903" lon="9.01368560269475">
        <ele>331.3115234375</ele>
        <time>2005-09-04T09:04:02Z</time>
      </trkpt>
      <trkpt lat="45.731526743620634" lon="9.013845948502421">
        <ele>330.8309326171875</ele>
        <time>2005-09-04T09:04:04Z</time>
      </trkpt>
      <trkpt lat="45.731566641479731" lon="9.013999840244651">
        <ele>330.8309326171875</ele>
        <time>2005-09-04T09:04:06Z</time>
      </trkpt>
      <trkpt lat="45.731604108586907" lon="9.014144176617265">
        <ele>330.3502197265625</ele>
        <time>2005-09-04T09:04:08Z</time>
      </trkpt>
      <trkpt lat="45.731640150770545" lon="9.014283483847976">
        <ele>330.3502197265625</ele>
        <time>2005-09-04T09:04:10Z</time>
      </trkpt>
      <trkpt lat="45.731677282601595" lon="9.014426479116082">
        <ele>330.3502197265625</ele>
        <time>2005-09-04T09:04:12Z</time>
      </trkpt>
      <trkpt lat="45.731717851012945" lon="9.014573330059648">
        <ele>330.3502197265625</ele>
        <time>2005-09-04T09:04:14Z</time>
      </trkpt>
      <trkpt lat="45.731765292584896" lon="9.014715738594532">
        <ele>329.8695068359375</ele>
        <time>2005-09-04T09:04:16Z</time>
      </trkpt>
      <trkpt lat="45.731811225414276" lon="9.014853537082672">
        <ele>330.8309326171875</ele>
        <time>2005-09-04T09:04:18Z</time>
      </trkpt>
      <trkpt lat="45.731853805482388" lon="9.014981193467975">
        <ele>330.3502197265625</ele>
        <time>2005-09-04T09:04:20Z</time>
      </trkpt>
      <trkpt lat="45.731912143528461" lon="9.015156291425228">
        <ele>329.8695068359375</ele>
        <time>2005-09-04T09:04:23Z</time>
      </trkpt>
      <trkpt lat="45.731966122984886" lon="9.015318313613534">
        <ele>329.8695068359375</ele>
        <time>2005-09-04T09:04:26Z</time>
      </trkpt>
      <trkpt lat="45.732010714709759" lon="9.015451921150088">
        <ele>329.388916015625</ele>
        <time>2005-09-04T09:04:29Z</time>
      </trkpt>
      <trkpt lat="45.732057821005583" lon="9.015593407675624">
        <ele>329.8695068359375</ele>
        <time>2005-09-04T09:04:32Z</time>
      </trkpt>
      <trkpt lat="45.732100736349821" lon="9.015722153708339">
        <ele>329.388916015625</ele>
        <time>2005-09-04T09:04:35Z</time>
      </trkpt>
      <trkpt lat="45.732144741341472" lon="9.015854001045227">
        <ele>329.8695068359375</ele>
        <time>2005-09-04T09:04:40Z</time>
      </trkpt>
      <trkpt lat="45.732238534837961" lon="9.015952572226524">
        <ele>329.8695068359375</ele>
        <time>2005-09-04T09:04:47Z</time>
      </trkpt>
      <trkpt lat="45.732281114906073" lon="9.016071343794465">
        <ele>330.3502197265625</ele>
        <time>2005-09-04T09:04:55Z</time>
      </trkpt>
      <trkpt lat="45.732269799336791" lon="9.016241412609816">
        <ele>330.3502197265625</ele>
        <time>2005-09-04T09:06:26Z</time>
      </trkpt>
      <trkpt lat="45.732214730232954" lon="9.016359681263566">
        <ele>331.3115234375</ele>
        <time>2005-09-04T09:07:14Z</time>
      </trkpt>
      <trkpt lat="45.732080368325114" lon="9.016387676820159">
        <ele>331.7921142578125</ele>
        <time>2005-09-04T09:08:34Z</time>
      </trkpt>
      <trkpt lat="45.732050444930792" lon="9.016372505575419">
        <ele>330.8309326171875</ele>
        <time>2005-09-04T09:09:35Z</time>
      </trkpt>
      <trkpt lat="45.731996214017272" lon="9.016563193872571">
        <ele>331.3115234375</ele>
        <time>2005-09-04T09:09:55Z</time>
      </trkpt>
      <trkpt lat="45.731909545138478" lon="9.016654975712299">
        <ele>334.6761474609375</ele>
        <time>2005-09-04T09:10:05Z</time>
      </trkpt>
      <trkpt lat="45.731816841289401" lon="9.016728736460209">
        <ele>335.6373291015625</ele>
        <time>2005-09-04T09:10:15Z</time>
      </trkpt>
      <trkpt lat="45.731717012822628" lon="9.016805430874229">
        <ele>336.1181640625</ele>
        <time>2005-09-04T09:10:23Z</time>
      </trkpt>
      <trkpt lat="45.731624728068709" lon="9.016884053125978">
        <ele>336.598876953125</ele>
        <time>2005-09-04T09:10:28Z</time>
      </trkpt>
      <trkpt lat="45.731521295383573" lon="9.016980361193419">
        <ele>336.598876953125</ele>
        <time>2005-09-04T09:10:33Z</time>
      </trkpt>
      <trkpt lat="45.73142783716321" lon="9.017052026465535">
        <ele>336.598876953125</ele>
        <time>2005-09-04T09:10:37Z</time>
      </trkpt>
      <trkpt lat="45.731328260153532" lon="9.017144478857517">
        <ele>337.0794677734375</ele>
        <time>2005-09-04T09:10:41Z</time>
      </trkpt>
      <trkpt lat="45.731231449171901" lon="9.017267441377044">
        <ele>337.0794677734375</ele>
        <time>2005-09-04T09:10:45Z</time>
      </trkpt>
      <trkpt lat="45.731147211045027" lon="9.017364839091897">
        <ele>337.0794677734375</ele>
        <time>2005-09-04T09:10:48Z</time>
      </trkpt>
      <trkpt lat="45.731043526902795" lon="9.017464248463512">
        <ele>337.0794677734375</ele>
        <time>2005-09-04T09:10:51Z</time>
      </trkpt>
      <trkpt lat="45.730504989624023" lon="9.017972946166992">
        <ele>335.15673828125</ele>
        <time>2005-09-04T09:10:54Z</time>
      </trkpt>
      <trkpt lat="45.730504989624023" lon="9.017972946166992">
        <ele>333.7147216796875</ele>
        <time>2005-09-04T09:10:56Z</time>
      </trkpt>
      <trkpt lat="45.730504989624023" lon="9.017972946166992">
        <ele>332.7535400390625</ele>
        <time>2005-09-04T09:10:58Z</time>
      </trkpt>
      <trkpt lat="45.730504989624023" lon="9.017972946166992">
        <ele>331.7921142578125</ele>
        <time>2005-09-04T09:11:00Z</time>
      </trkpt>
      <trkpt lat="45.730488812550902" lon="9.017995074391365">
        <ele>330.3502197265625</ele>
        <time>2005-09-04T09:11:02Z</time>
      </trkpt>
      <trkpt lat="45.730427289381623" lon="9.01807889342308">
        <ele>329.8695068359375</ele>
        <time>2005-09-04T09:11:04Z</time>
      </trkpt>
      <trkpt lat="45.730375153943896" lon="9.018149971961975">
        <ele>328.9083251953125</ele>
        <time>2005-09-04T09:11:09Z</time>
      </trkpt>
      <trkpt lat="45.730375153943896" lon="9.018149971961975">
        <ele>327.4661865234375</ele>
        <time>2005-09-04T09:13:03Z</time>
      </trkpt>
      <trkpt lat="45.730179436504841" lon="9.018416935577989">
        <ele>326.985595703125</ele>
        <time>2005-09-04T09:13:21Z</time>
      </trkpt>
      <trkpt lat="45.730098718777299" lon="9.018526989966631">
        <ele>325.5435791015625</ele>
        <time>2005-09-04T09:13:27Z</time>
      </trkpt>
      <trkpt lat="45.730036525055766" lon="9.018611814826727">
        <ele>325.06298828125</ele>
        <time>2005-09-04T09:13:31Z</time>
      </trkpt>
      <trkpt lat="45.730129983276129" lon="9.018762269988656">
        <ele>325.06298828125</ele>
        <time>2005-09-04T09:13:35Z</time>
      </trkpt>
      <trkpt lat="45.73020433075726" lon="9.018873749300838">
        <ele>325.06298828125</ele>
        <time>2005-09-04T09:13:39Z</time>
      </trkpt>
      <trkpt lat="45.730278007686138" lon="9.01898430660367">
        <ele>325.06298828125</ele>
        <time>2005-09-04T09:13:43Z</time>
      </trkpt>
      <trkpt lat="45.730356210842729" lon="9.019101485610008">
        <ele>325.5435791015625</ele>
        <time>2005-09-04T09:13:47Z</time>
      </trkpt>
      <trkpt lat="45.730437096208334" lon="9.0192227717489">
        <ele>325.5435791015625</ele>
        <time>2005-09-04T09:13:51Z</time>
      </trkpt>
      <trkpt lat="45.730506917461753" lon="9.019327629357576">
        <ele>326.5048828125</ele>
        <time>2005-09-04T09:13:54Z</time>
      </trkpt>
      <trkpt lat="45.730581767857075" lon="9.019428296014667">
        <ele>326.024169921875</ele>
        <time>2005-09-04T09:13:57Z</time>
      </trkpt>
      <trkpt lat="45.730667430907488" lon="9.019527118653059">
        <ele>326.5048828125</ele>
        <time>2005-09-04T09:14:00Z</time>
      </trkpt>
      <trkpt lat="45.73075502179563" lon="9.019628036767244">
        <ele>326.5048828125</ele>
        <time>2005-09-04T09:14:03Z</time>
      </trkpt>
      <trkpt lat="45.730845462530851" lon="9.01973239146173">
        <ele>326.5048828125</ele>
        <time>2005-09-04T09:14:06Z</time>
      </trkpt>
      <trkpt lat="45.730944201350212" lon="9.019846385344863">
        <ele>326.024169921875</ele>
        <time>2005-09-04T09:14:09Z</time>
      </trkpt>
      <trkpt lat="45.731049980968237" lon="9.019968342036009">
        <ele>326.024169921875</ele>
        <time>2005-09-04T09:14:12Z</time>
      </trkpt>
      <trkpt lat="45.731155592948198" lon="9.020090298727155">
        <ele>326.024169921875</ele>
        <time>2005-09-04T09:14:15Z</time>
      </trkpt>
      <trkpt lat="45.731259360909462" lon="9.020209992304444">
        <ele>325.06298828125</ele>
        <time>2005-09-04T09:14:18Z</time>
      </trkpt>
      <trkpt lat="45.731361536309123" lon="9.020327925682068">
        <ele>324.582275390625</ele>
        <time>2005-09-04T09:14:21Z</time>
      </trkpt>
      <trkpt lat="45.731462789699435" lon="9.020444601774216">
        <ele>324.1015625</ele>
        <time>2005-09-04T09:14:24Z</time>
      </trkpt>
      <trkpt lat="45.731568401679397" lon="9.020566642284393">
        <ele>323.6209716796875</ele>
        <time>2005-09-04T09:14:27Z</time>
      </trkpt>
      <trkpt lat="45.731643922626972" lon="9.020653646439314">
        <ele>324.1015625</ele>
        <time>2005-09-04T09:14:29Z</time>
      </trkpt>
      <trkpt lat="45.731722544878721" lon="9.020744506269693">
        <ele>323.6209716796875</ele>
        <time>2005-09-04T09:14:31Z</time>
      </trkpt>
      <trkpt lat="45.731802675873041" lon="9.020836791023612">
        <ele>323.140380859375</ele>
        <time>2005-09-04T09:14:33Z</time>
      </trkpt>
      <trkpt lat="45.731882136315107" lon="9.02092857286334">
        <ele>322.65966796875</ele>
        <time>2005-09-04T09:14:35Z</time>
      </trkpt>
      <trkpt lat="45.731961512938142" lon="9.021020187065005">
        <ele>323.140380859375</ele>
        <time>2005-09-04T09:14:37Z</time>
      </trkpt>
      <trkpt lat="45.732038542628288" lon="9.021109035238624">
        <ele>322.178955078125</ele>
        <time>2005-09-04T09:14:39Z</time>
      </trkpt>
      <trkpt lat="45.732116578146815" lon="9.021199140697718">
        <ele>322.178955078125</ele>
        <time>2005-09-04T09:14:41Z</time>
      </trkpt>
      <trkpt lat="45.732195116579533" lon="9.02128966525197">
        <ele>321.6983642578125</ele>
        <time>2005-09-04T09:14:43Z</time>
      </trkpt>
      <trkpt lat="45.732271894812584" lon="9.021387314423919">
        <ele>321.2177734375</ele>
        <time>2005-09-04T09:14:45Z</time>
      </trkpt>
      <trkpt lat="45.732347080484033" lon="9.02148756198585">
        <ele>321.6983642578125</ele>
        <time>2005-09-04T09:14:47Z</time>
      </trkpt>
      <trkpt lat="45.73235034942627" lon="9.021492004394531">
        <ele>320.737060546875</ele>
        <time>2005-09-04T09:14:49Z</time>
      </trkpt>
      <trkpt lat="45.732511198148131" lon="9.021689984947443">
        <ele>320.737060546875</ele>
        <time>2005-09-04T09:14:51Z</time>
      </trkpt>
      <trkpt lat="45.732589066028595" lon="9.021785790100694">
        <ele>320.25634765625</ele>
        <time>2005-09-04T09:14:53Z</time>
      </trkpt>
      <trkpt lat="45.73266894556582" lon="9.021884026005864">
        <ele>319.775634765625</ele>
        <time>2005-09-04T09:14:55Z</time>
      </trkpt>
      <trkpt lat="45.732748657464981" lon="9.021982261911035">
        <ele>320.25634765625</ele>
        <time>2005-09-04T09:14:57Z</time>
      </trkpt>
      <trkpt lat="45.732837002724409" lon="9.022090975195169">
        <ele>319.2950439453125</ele>
        <time>2005-09-04T09:14:59Z</time>
      </trkpt>
      <trkpt lat="45.732931802049279" lon="9.022202119231224">
        <ele>319.2950439453125</ele>
        <time>2005-09-04T09:15:01Z</time>
      </trkpt>
      <trkpt lat="45.732971867546439" lon="9.022654909640551">
        <ele>316.8917236328125</ele>
        <time>2005-09-04T09:15:09Z</time>
      </trkpt>
      <trkpt lat="45.732950828969479" lon="9.022781308740377">
        <ele>316.8917236328125</ele>
        <time>2005-09-04T09:15:11Z</time>
      </trkpt>
      <trkpt lat="45.732929371297359" lon="9.022909803315997">
        <ele>316.4110107421875</ele>
        <time>2005-09-04T09:15:13Z</time>
      </trkpt>
      <trkpt lat="45.732908248901367" lon="9.023036956787109">
        <ele>316.4110107421875</ele>
        <time>2005-09-04T09:15:15Z</time>
      </trkpt>
      <trkpt lat="45.732886707410216" lon="9.02310149744153">
        <ele>315.4498291015625</ele>
        <time>2005-09-04T09:15:17Z</time>
      </trkpt>
      <trkpt lat="45.732813868671656" lon="9.023414142429829">
        <ele>315.930419921875</ele>
        <time>2005-09-04T09:15:19Z</time>
      </trkpt>
      <trkpt lat="45.732800457626581" lon="9.023601813241839">
        <ele>314.9691162109375</ele>
        <time>2005-09-04T09:15:21Z</time>
      </trkpt>
      <trkpt lat="45.732750333845615" lon="9.024029122665525">
        <ele>314.0078125</ele>
        <time>2005-09-04T09:15:23Z</time>
      </trkpt>
      <trkpt lat="45.732715800404549" lon="9.024188043549657">
        <ele>314.0078125</ele>
        <time>2005-09-04T09:15:25Z</time>
      </trkpt>
      <trkpt lat="45.732679674401879" lon="9.024354591965675">
        <ele>313.5272216796875</ele>
        <time>2005-09-04T09:15:27Z</time>
      </trkpt>
      <trkpt lat="45.732621671631932" lon="9.024621052667499">
        <ele>313.5272216796875</ele>
        <time>2005-09-04T09:15:29Z</time>
      </trkpt>
      <trkpt lat="45.732587054371834" lon="9.024780308827758">
        <ele>313.0465087890625</ele>
        <time>2005-09-04T09:15:31Z</time>
      </trkpt>
      <trkpt lat="45.732562746852636" lon="9.024944426491857">
        <ele>313.0465087890625</ele>
        <time>2005-09-04T09:15:33Z</time>
      </trkpt>
      <trkpt lat="45.732557382434607" lon="9.02509898878634">
        <ele>312.5657958984375</ele>
        <time>2005-09-04T09:15:35Z</time>
      </trkpt>
      <trkpt lat="45.732552437111735" lon="9.025243911892176">
        <ele>312.085205078125</ele>
        <time>2005-09-04T09:15:37Z</time>
      </trkpt>
      <trkpt lat="45.732547659426928" lon="9.025380704551935">
        <ele>312.085205078125</ele>
        <time>2005-09-04T09:15:39Z</time>
      </trkpt>
      <trkpt lat="45.732541540637612" lon="9.025558065623045">
        <ele>311.6044921875</ele>
        <time>2005-09-04T09:15:42Z</time>
      </trkpt>
      <trkpt lat="45.732535002753139" lon="9.02574791572988">
        <ele>312.085205078125</ele>
        <time>2005-09-04T09:15:45Z</time>
      </trkpt>
      <trkpt lat="45.732528632506728" lon="9.025932736694813">
        <ele>312.5657958984375</ele>
        <time>2005-09-04T09:15:48Z</time>
      </trkpt>
      <trkpt lat="45.732522262260318" lon="9.026118395850062">
        <ele>312.5657958984375</ele>
        <time>2005-09-04T09:15:51Z</time>
      </trkpt>
      <trkpt lat="45.732508013024926" lon="9.026287542656064">
        <ele>312.085205078125</ele>
        <time>2005-09-04T09:15:54Z</time>
      </trkpt>
      <trkpt lat="45.732495775446296" lon="9.026428610086441">
        <ele>312.085205078125</ele>
        <time>2005-09-04T09:15:57Z</time>
      </trkpt>
      <trkpt lat="45.7324852142483" lon="9.026549560949206">
        <ele>312.085205078125</ele>
        <time>2005-09-04T09:16:00Z</time>
      </trkpt>
      <trkpt lat="45.732473060488701" lon="9.026689706370235">
        <ele>312.085205078125</ele>
        <time>2005-09-04T09:16:04Z</time>
      </trkpt>
      <trkpt lat="45.732462415471673" lon="9.026812082156539">
        <ele>312.5657958984375</ele>
        <time>2005-09-04T09:16:07Z</time>
      </trkpt>
      <trkpt lat="45.732450345531106" lon="9.026950383558869">
        <ele>312.5657958984375</ele>
        <time>2005-09-04T09:16:10Z</time>
      </trkpt>
      <trkpt lat="45.732437940314412" lon="9.027093462646008">
        <ele>312.085205078125</ele>
        <time>2005-09-04T09:16:13Z</time>
      </trkpt>
      <trkpt lat="45.732447244226933" lon="9.027229584753513">
        <ele>310.64306640625</ele>
        <time>2005-09-04T09:16:17Z</time>
      </trkpt>
      <trkpt lat="45.732460403814912" lon="9.027367802336812">
        <ele>310.1624755859375</ele>
        <time>2005-09-04T09:16:22Z</time>
      </trkpt>
      <trkpt lat="45.732462164014578" lon="9.027386074885726">
        <ele>309.201171875</ele>
        <time>2005-09-04T09:16:36Z</time>
      </trkpt>
      <trkpt lat="45.732462164014578" lon="9.027386074885726">
        <ele>307.75927734375</ele>
        <time>2005-09-04T09:17:09Z</time>
      </trkpt>
      <trkpt lat="45.732462164014578" lon="9.027386074885726">
        <ele>309.201171875</ele>
        <time>2005-09-04T09:17:37Z</time>
      </trkpt>
      <trkpt lat="45.732462164014578" lon="9.027386074885726">
        <ele>309.681884765625</ele>
        <time>2005-09-04T09:17:50Z</time>
      </trkpt>
      <trkpt lat="45.732462164014578" lon="9.027386074885726">
        <ele>310.1624755859375</ele>
        <time>2005-09-04T09:18:00Z</time>
      </trkpt>
      <trkpt lat="45.732462164014578" lon="9.027386074885726">
        <ele>311.6044921875</ele>
        <time>2005-09-04T09:18:19Z</time>
      </trkpt>
      <trkpt lat="45.731721371412277" lon="9.027706179767847">
        <ele>311.6044921875</ele>
        <time>2005-09-04T09:18:28Z</time>
      </trkpt>
      <trkpt lat="45.731598241254687" lon="9.027710370719433">
        <ele>312.5657958984375</ele>
        <time>2005-09-04T09:18:34Z</time>
      </trkpt>
      <trkpt lat="45.731482151895761" lon="9.027703916653991">
        <ele>313.0465087890625</ele>
        <time>2005-09-04T09:18:39Z</time>
      </trkpt>
      <trkpt lat="45.731362458318472" lon="9.027665443718433">
        <ele>313.5272216796875</ele>
        <time>2005-09-04T09:18:45Z</time>
      </trkpt>
      <trkpt lat="45.731239747256041" lon="9.027700563892722">
        <ele>314.4884033203125</ele>
        <time>2005-09-04T09:18:52Z</time>
      </trkpt>
      <trkpt lat="45.731147630140185" lon="9.0276257134974">
        <ele>314.4884033203125</ele>
        <time>2005-09-04T09:18:56Z</time>
      </trkpt>
      <trkpt lat="45.731045873835683" lon="9.027553293853998">
        <ele>314.9691162109375</ele>
        <time>2005-09-04T09:18:59Z</time>
      </trkpt>
      <trkpt lat="45.730938920751214" lon="9.027517503127456">
        <ele>315.4498291015625</ele>
        <time>2005-09-04T09:19:02Z</time>
      </trkpt>
      <trkpt lat="45.73084345087409" lon="9.027454135939479">
        <ele>315.930419921875</ele>
        <time>2005-09-04T09:19:05Z</time>
      </trkpt>
      <trkpt lat="45.730723086744547" lon="9.027406191453338">
        <ele>315.930419921875</ele>
        <time>2005-09-04T09:19:09Z</time>
      </trkpt>
      <trkpt lat="45.730641111731529" lon="9.027325054630637">
        <ele>316.4110107421875</ele>
        <time>2005-09-04T09:19:13Z</time>
      </trkpt>
      <trkpt lat="45.73057665489614" lon="9.027202595025301">
        <ele>316.8917236328125</ele>
        <time>2005-09-04T09:19:20Z</time>
      </trkpt>
      <trkpt lat="45.730487974360585" lon="9.027106119319797">
        <ele>316.8917236328125</ele>
        <time>2005-09-04T09:19:25Z</time>
      </trkpt>
      <trkpt lat="45.73042812757194" lon="9.027006374672055">
        <ele>316.8917236328125</ele>
        <time>2005-09-04T09:19:29Z</time>
      </trkpt>
      <trkpt lat="45.730336513370275" lon="9.026908054947853">
        <ele>317.85302734375</ele>
        <time>2005-09-04T09:19:34Z</time>
      </trkpt>
      <trkpt lat="45.730231488123536" lon="9.026828343048692">
        <ele>317.3724365234375</ele>
        <time>2005-09-04T09:19:39Z</time>
      </trkpt>
      <trkpt lat="45.730139035731554" lon="9.026773944497109">
        <ele>317.85302734375</ele>
        <time>2005-09-04T09:19:44Z</time>
      </trkpt>
      <trkpt lat="45.730037782341242" lon="9.026731280609965">
        <ele>318.3336181640625</ele>
        <time>2005-09-04T09:19:50Z</time>
      </trkpt>
      <trkpt lat="45.729924542829394" lon="9.026697752997279">
        <ele>318.8143310546875</ele>
        <time>2005-09-04T09:19:55Z</time>
      </trkpt>
      <trkpt lat="45.729824295267463" lon="9.026676211506128">
        <ele>319.2950439453125</ele>
        <time>2005-09-04T09:20:02Z</time>
      </trkpt>
      <trkpt lat="45.729727735742927" lon="9.02664796449244">
        <ele>319.775634765625</ele>
        <time>2005-09-04T09:20:07Z</time>
      </trkpt>
      <trkpt lat="45.729619022458792" lon="9.026625836268067">
        <ele>320.25634765625</ele>
        <time>2005-09-04T09:20:11Z</time>
      </trkpt>
      <trkpt lat="45.729492036625743" lon="9.026580238714814">
        <ele>321.2177734375</ele>
        <time>2005-09-04T09:20:15Z</time>
      </trkpt>
      <trkpt lat="45.729366391897202" lon="9.026535479351878">
        <ele>321.2177734375</ele>
        <time>2005-09-04T09:20:19Z</time>
      </trkpt>
      <trkpt lat="45.729246446862817" lon="9.026525337249041">
        <ele>322.178955078125</ele>
        <time>2005-09-04T09:20:23Z</time>
      </trkpt>
      <trkpt lat="45.729143265634775" lon="9.026590129360557">
        <ele>321.2177734375</ele>
        <time>2005-09-04T09:20:27Z</time>
      </trkpt>
      <trkpt lat="45.729054668918252" lon="9.026734046638012">
        <ele>321.2177734375</ele>
        <time>2005-09-04T09:20:30Z</time>
      </trkpt>
      <trkpt lat="45.72898174636066" lon="9.026819206774235">
        <ele>320.737060546875</ele>
        <time>2005-09-04T09:20:32Z</time>
      </trkpt>
      <trkpt lat="45.728901699185371" lon="9.026906797662377">
        <ele>320.737060546875</ele>
        <time>2005-09-04T09:20:34Z</time>
      </trkpt>
      <trkpt lat="45.72878829203546" lon="9.027017522603273">
        <ele>320.737060546875</ele>
        <time>2005-09-04T09:20:37Z</time>
      </trkpt>
      <trkpt lat="45.728654349222779" lon="9.027104191482067">
        <ele>319.775634765625</ele>
        <time>2005-09-04T09:20:40Z</time>
      </trkpt>
      <trkpt lat="45.728588132187724" lon="9.027216676622629">
        <ele>320.737060546875</ele>
        <time>2005-09-04T09:20:42Z</time>
      </trkpt>
      <trkpt lat="45.728539098054171" lon="9.027362270280719">
        <ele>320.25634765625</ele>
        <time>2005-09-04T09:20:44Z</time>
      </trkpt>
      <trkpt lat="45.728700617328286" lon="9.028145056217909">
        <ele>320.25634765625</ele>
        <time>2005-09-04T09:20:46Z</time>
      </trkpt>
      <trkpt lat="45.72861042805016" lon="9.028205238282681">
        <ele>319.775634765625</ele>
        <time>2005-09-04T09:20:48Z</time>
      </trkpt>
      <trkpt lat="45.728573799133301" lon="9.028229713439941">
        <ele>320.25634765625</ele>
        <time>2005-09-04T09:20:50Z</time>
      </trkpt>
      <trkpt lat="45.728188566863537" lon="9.028117815032601">
        <ele>319.775634765625</ele>
        <time>2005-09-04T09:20:52Z</time>
      </trkpt>
      <trkpt lat="45.728069124743342" lon="9.028083113953471">
        <ele>319.775634765625</ele>
        <time>2005-09-04T09:20:54Z</time>
      </trkpt>
      <trkpt lat="45.727949514985085" lon="9.028048412874341">
        <ele>319.775634765625</ele>
        <time>2005-09-04T09:20:56Z</time>
      </trkpt>
      <trkpt lat="45.727832252159715" lon="9.028014382347465">
        <ele>320.25634765625</ele>
        <time>2005-09-04T09:20:58Z</time>
      </trkpt>
      <trkpt lat="45.727711971849203" lon="9.027979429811239">
        <ele>319.775634765625</ele>
        <time>2005-09-04T09:21:00Z</time>
      </trkpt>
      <trkpt lat="45.727593367919326" lon="9.027944980189204">
        <ele>319.775634765625</ele>
        <time>2005-09-04T09:21:02Z</time>
      </trkpt>
      <trkpt lat="45.727476859465241" lon="9.027911117300391">
        <ele>319.2950439453125</ele>
        <time>2005-09-04T09:21:04Z</time>
      </trkpt>
      <trkpt lat="45.727361440658569" lon="9.027877589687705">
        <ele>319.775634765625</ele>
        <time>2005-09-04T09:21:06Z</time>
      </trkpt>
      <trkpt lat="45.72724518366158" lon="9.027843810617924">
        <ele>319.775634765625</ele>
        <time>2005-09-04T09:21:08Z</time>
      </trkpt>
      <trkpt lat="45.727130519226193" lon="9.027810450643301">
        <ele>319.775634765625</ele>
        <time>2005-09-04T09:21:10Z</time>
      </trkpt>
      <trkpt lat="45.727013675495982" lon="9.027776587754488">
        <ele>319.2950439453125</ele>
        <time>2005-09-04T09:21:12Z</time>
      </trkpt>
      <trkpt lat="45.72689482010901" lon="9.027742054313421">
        <ele>319.2950439453125</ele>
        <time>2005-09-04T09:21:14Z</time>
      </trkpt>
      <trkpt lat="45.726776719093323" lon="9.027707688510418">
        <ele>318.8143310546875</ele>
        <time>2005-09-04T09:21:16Z</time>
      </trkpt>
      <trkpt lat="45.726655852049589" lon="9.027672652155161">
        <ele>319.2950439453125</ele>
        <time>2005-09-04T09:21:18Z</time>
      </trkpt>
      <trkpt lat="45.726538002490997" lon="9.027638370171189">
        <ele>318.8143310546875</ele>
        <time>2005-09-04T09:21:20Z</time>
      </trkpt>
      <trkpt lat="45.726424595341086" lon="9.027605429291725">
        <ele>319.2950439453125</ele>
        <time>2005-09-04T09:21:22Z</time>
      </trkpt>
      <trkpt lat="45.726305320858955" lon="9.027570812031627">
        <ele>318.8143310546875</ele>
        <time>2005-09-04T09:21:24Z</time>
      </trkpt>
      <trkpt lat="45.726183615624905" lon="9.027535356581211">
        <ele>319.2950439453125</ele>
        <time>2005-09-04T09:21:26Z</time>
      </trkpt>
      <trkpt lat="45.726069705560803" lon="9.027502248063684">
        <ele>319.775634765625</ele>
        <time>2005-09-04T09:21:28Z</time>
      </trkpt>
      <trkpt lat="45.725967194885015" lon="9.027472492307425">
        <ele>319.2950439453125</ele>
        <time>2005-09-04T09:21:30Z</time>
      </trkpt>
      <trkpt lat="45.725872227922082" lon="9.027444832026959">
        <ele>319.2950439453125</ele>
        <time>2005-09-04T09:21:32Z</time>
      </trkpt>
      <trkpt lat="45.725745242089033" lon="9.027408035472035">
        <ele>319.2950439453125</ele>
        <time>2005-09-04T09:21:35Z</time>
      </trkpt>
      <trkpt lat="45.725647509098053" lon="9.027379704639316">
        <ele>319.2950439453125</ele>
        <time>2005-09-04T09:21:38Z</time>
      </trkpt>
      <trkpt lat="45.725630326196551" lon="9.027374591678381">
        <ele>319.2950439453125</ele>
        <time>2005-09-04T09:21:52Z</time>
      </trkpt>
      <trkpt lat="45.72548808529973" lon="9.027333352714777">
        <ele>319.2950439453125</ele>
        <time>2005-09-04T09:28:21Z</time>
      </trkpt>
      <trkpt lat="45.725409965962172" lon="9.027310637757182">
        <ele>319.2950439453125</ele>
        <time>2005-09-04T09:28:27Z</time>
      </trkpt>
      <trkpt lat="45.725330505520105" lon="9.027438210323453">
        <ele>318.8143310546875</ele>
        <time>2005-09-04T09:28:31Z</time>
      </trkpt>
      <trkpt lat="45.725321369245648" lon="9.02753678150475">
        <ele>318.8143310546875</ele>
        <time>2005-09-04T09:28:35Z</time>
      </trkpt>
      <trkpt lat="45.72530971840024" lon="9.027662510052323">
        <ele>318.3336181640625</ele>
        <time>2005-09-04T09:28:38Z</time>
      </trkpt>
      <trkpt lat="45.725295301526785" lon="9.027819419279695">
        <ele>317.85302734375</ele>
        <time>2005-09-04T09:28:41Z</time>
      </trkpt>
      <trkpt lat="45.725281052291393" lon="9.027973227202892">
        <ele>317.3724365234375</ele>
        <time>2005-09-04T09:28:44Z</time>
      </trkpt>
      <trkpt lat="45.725267305970192" lon="9.028122508898377">
        <ele>316.4110107421875</ele>
        <time>2005-09-04T09:28:47Z</time>
      </trkpt>
      <trkpt lat="45.725253811106086" lon="9.028268270194531">
        <ele>316.4110107421875</ele>
        <time>2005-09-04T09:28:50Z</time>
      </trkpt>
      <trkpt lat="45.72523838840425" lon="9.028435992076993">
        <ele>316.8917236328125</ele>
        <time>2005-09-04T09:28:53Z</time>
      </trkpt>
      <trkpt lat="45.725221456959844" lon="9.028619052842259">
        <ele>316.4110107421875</ele>
        <time>2005-09-04T09:28:56Z</time>
      </trkpt>
      <trkpt lat="45.725203938782215" lon="9.028808819130063">
        <ele>316.4110107421875</ele>
        <time>2005-09-04T09:28:59Z</time>
      </trkpt>
      <trkpt lat="45.72518658824265" lon="9.028996406123042">
        <ele>316.4110107421875</ele>
        <time>2005-09-04T09:29:02Z</time>
      </trkpt>
      <trkpt lat="45.725168734788895" lon="9.029189860448241">
        <ele>316.4110107421875</ele>
        <time>2005-09-04T09:29:05Z</time>
      </trkpt>
      <trkpt lat="45.725156748667359" lon="9.029320534318686">
        <ele>317.3724365234375</ele>
        <time>2005-09-04T09:29:07Z</time>
      </trkpt>
      <trkpt lat="45.725139398127794" lon="9.029508288949728">
        <ele>316.8917236328125</ele>
        <time>2005-09-04T09:29:10Z</time>
      </trkpt>
      <trkpt lat="45.725121628493071" lon="9.029700485989451">
        <ele>316.8917236328125</ele>
        <time>2005-09-04T09:29:13Z</time>
      </trkpt>
      <trkpt lat="45.725103691220284" lon="9.029895281419158">
        <ele>317.3724365234375</ele>
        <time>2005-09-04T09:29:16Z</time>
      </trkpt>
      <trkpt lat="45.725091537460685" lon="9.030026877298951">
        <ele>317.3724365234375</ele>
        <time>2005-09-04T09:29:18Z</time>
      </trkpt>
      <trkpt lat="45.725074438378215" lon="9.030211865901947">
        <ele>316.8917236328125</ele>
        <time>2005-09-04T09:29:21Z</time>
      </trkpt>
      <trkpt lat="45.725057758390903" lon="9.030392244458199">
        <ele>316.8917236328125</ele>
        <time>2005-09-04T09:29:24Z</time>
      </trkpt>
      <trkpt lat="45.725041916593909" lon="9.03056382201612">
        <ele>316.8917236328125</ele>
        <time>2005-09-04T09:29:27Z</time>
      </trkpt>
      <trkpt lat="45.725026493892074" lon="9.030731040984392">
        <ele>316.8917236328125</ele>
        <time>2005-09-04T09:29:30Z</time>
      </trkpt>
      <trkpt lat="45.725011490285397" lon="9.030893230810762">
        <ele>316.8917236328125</ele>
        <time>2005-09-04T09:29:33Z</time>
      </trkpt>
      <trkpt lat="45.724995480850339" lon="9.031064305454493">
        <ele>317.3724365234375</ele>
        <time>2005-09-04T09:29:36Z</time>
      </trkpt>
      <trkpt lat="45.724978297948837" lon="9.031247282400727">
        <ele>317.85302734375</ele>
        <time>2005-09-04T09:29:39Z</time>
      </trkpt>
      <trkpt lat="45.724960779771209" lon="9.031434450298548">
        <ele>317.3724365234375</ele>
        <time>2005-09-04T09:29:42Z</time>
      </trkpt>
      <trkpt lat="45.724943010136485" lon="9.031624551862478">
        <ele>317.3724365234375</ele>
        <time>2005-09-04T09:29:45Z</time>
      </trkpt>
      <trkpt lat="45.724924821406603" lon="9.031817838549614">
        <ele>316.8917236328125</ele>
        <time>2005-09-04T09:29:48Z</time>
      </trkpt>
      <trkpt lat="45.724912667647004" lon="9.031947590410709">
        <ele>317.3724365234375</ele>
        <time>2005-09-04T09:29:50Z</time>
      </trkpt>
      <trkpt lat="45.724895820021629" lon="9.032127885147929">
        <ele>317.3724365234375</ele>
        <time>2005-09-04T09:29:53Z</time>
      </trkpt>
      <trkpt lat="45.72487922385335" lon="9.032304072752595">
        <ele>317.85302734375</ele>
        <time>2005-09-04T09:29:56Z</time>
      </trkpt>
      <trkpt lat="45.724862879142165" lon="9.032478583976626">
        <ele>317.85302734375</ele>
        <time>2005-09-04T09:29:59Z</time>
      </trkpt>
      <trkpt lat="45.724846450611949" lon="9.032654352486134">
        <ele>318.8143310546875</ele>
        <time>2005-09-04T09:30:02Z</time>
      </trkpt>
      <trkpt lat="45.724829267710447" lon="9.032837832346559">
        <ele>318.3336181640625</ele>
        <time>2005-09-04T09:30:05Z</time>
      </trkpt>
      <trkpt lat="45.72481133043766" lon="9.033028436824679">
        <ele>318.8143310546875</ele>
        <time>2005-09-04T09:30:08Z</time>
      </trkpt>
      <trkpt lat="45.724793476983905" lon="9.0332190413028">
        <ele>318.3336181640625</ele>
        <time>2005-09-04T09:30:11Z</time>
      </trkpt>
      <trkpt lat="45.724777048453689" lon="9.033394642174244">
        <ele>318.8143310546875</ele>
        <time>2005-09-04T09:30:14Z</time>
      </trkpt>
      <trkpt lat="45.724762296304107" lon="9.033551635220647">
        <ele>318.8143310546875</ele>
        <time>2005-09-04T09:30:17Z</time>
      </trkpt>
      <trkpt lat="45.724751148372889" lon="9.033724721521139">
        <ele>318.8143310546875</ele>
        <time>2005-09-04T09:30:20Z</time>
      </trkpt>
      <trkpt lat="45.724744694307446" lon="9.03390602208674">
        <ele>318.3336181640625</ele>
        <time>2005-09-04T09:30:23Z</time>
      </trkpt>
      <trkpt lat="45.724737821146846" lon="9.034098135307431">
        <ele>318.3336181640625</ele>
        <time>2005-09-04T09:30:26Z</time>
      </trkpt>
      <trkpt lat="45.72473312728107" lon="9.034230234101415">
        <ele>318.3336181640625</ele>
        <time>2005-09-04T09:30:28Z</time>
      </trkpt>
      <trkpt lat="45.724728349596262" lon="9.034363171085715">
        <ele>317.85302734375</ele>
        <time>2005-09-04T09:30:30Z</time>
      </trkpt>
      <trkpt lat="45.724723488092422" lon="9.034499377012253">
        <ele>317.3724365234375</ele>
        <time>2005-09-04T09:30:32Z</time>
      </trkpt>
      <trkpt lat="45.724718710407615" lon="9.034634325653315">
        <ele>317.85302734375</ele>
        <time>2005-09-04T09:30:34Z</time>
      </trkpt>
      <trkpt lat="45.724713765084743" lon="9.034772962331772">
        <ele>317.3724365234375</ele>
        <time>2005-09-04T09:30:36Z</time>
      </trkpt>
      <trkpt lat="45.724711418151855" lon="9.034908916801214">
        <ele>316.8917236328125</ele>
        <time>2005-09-04T09:30:38Z</time>
      </trkpt>
      <trkpt lat="45.724711418151855" lon="9.035043613985181">
        <ele>316.8917236328125</ele>
        <time>2005-09-04T09:30:40Z</time>
      </trkpt>
      <trkpt lat="45.724711418151855" lon="9.035174371674657">
        <ele>316.8917236328125</ele>
        <time>2005-09-04T09:30:42Z</time>
      </trkpt>
      <trkpt lat="45.724711418151855" lon="9.035381069406867">
        <ele>316.4110107421875</ele>
        <time>2005-09-04T09:30:45Z</time>
      </trkpt>
      <trkpt lat="45.724711418151855" lon="9.035527249798179">
        <ele>316.4110107421875</ele>
        <time>2005-09-04T09:30:47Z</time>
      </trkpt>
      <trkpt lat="45.724711418151855" lon="9.035666640847921">
        <ele>316.4110107421875</ele>
        <time>2005-09-04T09:30:49Z</time>
      </trkpt>
      <trkpt lat="45.724711418151855" lon="9.035797230899334">
        <ele>316.8917236328125</ele>
        <time>2005-09-04T09:30:51Z</time>
      </trkpt>
      <trkpt lat="45.724711418151855" lon="9.035983141511679">
        <ele>316.8917236328125</ele>
        <time>2005-09-04T09:30:54Z</time>
      </trkpt>
      <trkpt lat="45.724711418151855" lon="9.036159245297313">
        <ele>316.4110107421875</ele>
        <time>2005-09-04T09:30:57Z</time>
      </trkpt>
      <trkpt lat="45.724706053733826" lon="9.036344066262245">
        <ele>316.8917236328125</ele>
        <time>2005-09-04T09:31:00Z</time>
      </trkpt>
      <trkpt lat="45.724702198058367" lon="9.036472728475928">
        <ele>316.8917236328125</ele>
        <time>2005-09-04T09:31:02Z</time>
      </trkpt>
      <trkpt lat="45.724698258563876" lon="9.036601474508643">
        <ele>316.4110107421875</ele>
        <time>2005-09-04T09:31:04Z</time>
      </trkpt>
      <trkpt lat="45.724692726507783" lon="9.036784786731005">
        <ele>316.8917236328125</ele>
        <time>2005-09-04T09:31:07Z</time>
      </trkpt>
      <trkpt lat="45.724687278270721" lon="9.036963824182749">
        <ele>316.8917236328125</ele>
        <time>2005-09-04T09:31:10Z</time>
      </trkpt>
      <trkpt lat="45.72468183003366" lon="9.037143616005778">
        <ele>316.4110107421875</ele>
        <time>2005-09-04T09:31:13Z</time>
      </trkpt>
      <trkpt lat="45.724676717072725" lon="9.037312595173717">
        <ele>316.4110107421875</ele>
        <time>2005-09-04T09:31:16Z</time>
      </trkpt>
      <trkpt lat="45.724671436473727" lon="9.037488028407097">
        <ele>315.930419921875</ele>
        <time>2005-09-04T09:31:19Z</time>
      </trkpt>
      <trkpt lat="45.724669592455029" lon="9.037585007026792">
        <ele>316.4110107421875</ele>
        <time>2005-09-04T09:31:21Z</time>
      </trkpt>
      <trkpt lat="45.724668502807617" lon="9.038228988647461">
        <ele>316.4110107421875</ele>
        <time>2005-09-04T09:31:23Z</time>
      </trkpt>
      <trkpt lat="45.724668502807617" lon="9.037871919572353">
        <ele>316.4110107421875</ele>
        <time>2005-09-04T09:31:26Z</time>
      </trkpt>
      <trkpt lat="45.724668502807617" lon="9.03804425150156">
        <ele>315.4498291015625</ele>
        <time>2005-09-04T09:31:29Z</time>
      </trkpt>
      <trkpt lat="45.724668502807617" lon="9.038208117708564">
        <ele>315.4498291015625</ele>
        <time>2005-09-04T09:31:32Z</time>
      </trkpt>
      <trkpt lat="45.724668502807617" lon="9.038367373868823">
        <ele>314.9691162109375</ele>
        <time>2005-09-04T09:31:35Z</time>
      </trkpt>
      <trkpt lat="45.724668502807617" lon="9.038527049124241">
        <ele>315.4498291015625</ele>
        <time>2005-09-04T09:31:38Z</time>
      </trkpt>
      <trkpt lat="45.724659869447351" lon="9.038684209808707">
        <ele>315.4498291015625</ele>
        <time>2005-09-04T09:31:41Z</time>
      </trkpt>
      <trkpt lat="45.724643105641007" lon="9.038818487897515">
        <ele>315.4498291015625</ele>
        <time>2005-09-04T09:31:44Z</time>
      </trkpt>
      <trkpt lat="45.724605806171894" lon="9.039017809554935">
        <ele>314.9691162109375</ele>
        <time>2005-09-04T09:35:32Z</time>
      </trkpt>
      <trkpt lat="45.724562890827656" lon="9.039146639406681">
        <ele>315.930419921875</ele>
        <time>2005-09-04T09:35:37Z</time>
      </trkpt>
      <trkpt lat="45.724539756774902" lon="9.039362221956253">
        <ele>315.4498291015625</ele>
        <time>2005-09-04T09:35:42Z</time>
      </trkpt>
      <trkpt lat="45.724539756774902" lon="9.039529608562589">
        <ele>314.9691162109375</ele>
        <time>2005-09-04T09:35:56Z</time>
      </trkpt>
      <trkpt lat="45.724539756774902" lon="9.039712250232697">
        <ele>314.4884033203125</ele>
        <time>2005-09-04T09:36:00Z</time>
      </trkpt>
      <trkpt lat="45.724539756774902" lon="9.039880307391286">
        <ele>314.9691162109375</ele>
        <time>2005-09-04T09:36:03Z</time>
      </trkpt>
      <trkpt lat="45.724539756774902" lon="9.040060266852379">
        <ele>314.4884033203125</ele>
        <time>2005-09-04T09:36:06Z</time>
      </trkpt>
      <trkpt lat="45.724539756774902" lon="9.040236454457045">
        <ele>314.9691162109375</ele>
        <time>2005-09-04T09:36:09Z</time>
      </trkpt>
      <trkpt lat="45.724539756774902" lon="9.040406439453363">
        <ele>314.4884033203125</ele>
        <time>2005-09-04T09:36:12Z</time>
      </trkpt>
      <trkpt lat="45.724539756774902" lon="9.04057776555419">
        <ele>314.9691162109375</ele>
        <time>2005-09-04T09:36:15Z</time>
      </trkpt>
      <trkpt lat="45.724539756774902" lon="9.040755461901426">
        <ele>314.4884033203125</ele>
        <time>2005-09-04T09:36:18Z</time>
      </trkpt>
      <trkpt lat="45.7245416007936" lon="9.040930308401585">
        <ele>314.9691162109375</ele>
        <time>2005-09-04T09:36:21Z</time>
      </trkpt>
      <trkpt lat="45.724549312144518" lon="9.041100041940808">
        <ele>314.9691162109375</ele>
        <time>2005-09-04T09:36:24Z</time>
      </trkpt>
      <trkpt lat="45.724557191133499" lon="9.041274301707745">
        <ele>314.9691162109375</ele>
        <time>2005-09-04T09:36:27Z</time>
      </trkpt>
      <trkpt lat="45.724565489217639" lon="9.041457362473011">
        <ele>314.9691162109375</ele>
        <time>2005-09-04T09:36:30Z</time>
      </trkpt>
      <trkpt lat="45.724573871120811" lon="9.041640507057309">
        <ele>314.4884033203125</ele>
        <time>2005-09-04T09:36:33Z</time>
      </trkpt>
      <trkpt lat="45.72458216920495" lon="9.041823651641607">
        <ele>314.0078125</ele>
        <time>2005-09-04T09:36:36Z</time>
      </trkpt>
      <trkpt lat="45.724608739838004" lon="9.042016603052616">
        <ele>314.0078125</ele>
        <time>2005-09-04T09:36:39Z</time>
      </trkpt>
      <trkpt lat="45.724628521129489" lon="9.042155155912042">
        <ele>313.5272216796875</ele>
        <time>2005-09-04T09:36:41Z</time>
      </trkpt>
      <trkpt lat="45.724649224430323" lon="9.042299659922719">
        <ele>313.0465087890625</ele>
        <time>2005-09-04T09:36:43Z</time>
      </trkpt>
      <trkpt lat="45.724678058177233" lon="9.042446510866284">
        <ele>312.5657958984375</ele>
        <time>2005-09-04T09:36:46Z</time>
      </trkpt>
      <trkpt lat="45.724748969078064" lon="9.042535275220871">
        <ele>312.085205078125</ele>
        <time>2005-09-04T09:36:51Z</time>
      </trkpt>
      <trkpt lat="45.724812587723136" lon="9.042614735662937">
        <ele>311.6044921875</ele>
        <time>2005-09-04T09:36:56Z</time>
      </trkpt>
      <trkpt lat="45.72484016418457" lon="9.042649269104004">
        <ele>311.6044921875</ele>
        <time>2005-09-04T09:37:03Z</time>
      </trkpt>
      <trkpt lat="45.724871847778559" lon="9.042638372629881">
        <ele>310.64306640625</ele>
        <time>2005-09-04T09:39:12Z</time>
      </trkpt>
      <trkpt lat="45.72480839677155" lon="9.042958477512002">
        <ele>310.64306640625</ele>
        <time>2005-09-04T09:39:17Z</time>
      </trkpt>
      <trkpt lat="45.724729271605611" lon="9.04302871786058">
        <ele>309.201171875</ele>
        <time>2005-09-04T09:39:21Z</time>
      </trkpt>
      <trkpt lat="45.724638076499104" lon="9.043130222707987">
        <ele>308.2398681640625</ele>
        <time>2005-09-04T09:39:25Z</time>
      </trkpt>
      <trkpt lat="45.724557274952531" lon="9.043236589059234">
        <ele>306.3172607421875</ele>
        <time>2005-09-04T09:39:29Z</time>
      </trkpt>
      <trkpt lat="45.724489968270063" lon="9.04333365149796">
        <ele>306.3172607421875</ele>
        <time>2005-09-04T09:39:32Z</time>
      </trkpt>
      <trkpt lat="45.724416375160217" lon="9.04344848357141">
        <ele>305.836669921875</ele>
        <time>2005-09-04T09:39:35Z</time>
      </trkpt>
      <trkpt lat="45.724347392097116" lon="9.043563148006797">
        <ele>305.836669921875</ele>
        <time>2005-09-04T09:39:38Z</time>
      </trkpt>
      <trkpt lat="45.724279833957553" lon="9.043682422488928">
        <ele>305.35595703125</ele>
        <time>2005-09-04T09:39:41Z</time>
      </trkpt>
      <trkpt lat="45.72420397773385" lon="9.043807731941342">
        <ele>303.4332275390625</ele>
        <time>2005-09-04T09:39:44Z</time>
      </trkpt>
      <trkpt lat="45.724133905023336" lon="9.043931448832154">
        <ele>302.9525146484375</ele>
        <time>2005-09-04T09:39:47Z</time>
      </trkpt>
      <trkpt lat="45.724069615826011" lon="9.044051310047507">
        <ele>301.9913330078125</ele>
        <time>2005-09-04T09:39:50Z</time>
      </trkpt>
      <trkpt lat="45.724003398790956" lon="9.044157173484564">
        <ele>301.0299072265625</ele>
        <time>2005-09-04T09:39:53Z</time>
      </trkpt>
      <trkpt lat="45.723906252533197" lon="9.044201765209436">
        <ele>300.0687255859375</ele>
        <time>2005-09-04T09:39:56Z</time>
      </trkpt>
      <trkpt lat="45.723797203972936" lon="9.044215008616447">
        <ele>298.626708984375</ele>
        <time>2005-09-04T09:39:59Z</time>
      </trkpt>
      <trkpt lat="45.723677761852741" lon="9.044214338064194">
        <ele>298.626708984375</ele>
        <time>2005-09-04T09:40:02Z</time>
      </trkpt>
      <trkpt lat="45.723553793504834" lon="9.044190868735313">
        <ele>298.1461181640625</ele>
        <time>2005-09-04T09:40:05Z</time>
      </trkpt>
      <trkpt lat="45.723432507365942" lon="9.044155245646834">
        <ele>298.626708984375</ele>
        <time>2005-09-04T09:40:08Z</time>
      </trkpt>
      <trkpt lat="45.723321698606014" lon="9.044107804074884">
        <ele>298.1461181640625</ele>
        <time>2005-09-04T09:40:11Z</time>
      </trkpt>
      <trkpt lat="45.7232222892344" lon="9.044059943407774">
        <ele>298.1461181640625</ele>
        <time>2005-09-04T09:40:14Z</time>
      </trkpt>
      <trkpt lat="45.723126903176308" lon="9.044012501835823">
        <ele>298.1461181640625</ele>
        <time>2005-09-04T09:40:17Z</time>
      </trkpt>
      <trkpt lat="45.723033780232072" lon="9.043958270922303">
        <ele>298.1461181640625</ele>
        <time>2005-09-04T09:40:20Z</time>
      </trkpt>
      <trkpt lat="45.722947446629405" lon="9.043884007260203">
        <ele>298.1461181640625</ele>
        <time>2005-09-04T09:40:23Z</time>
      </trkpt>
      <trkpt lat="45.722885504364967" lon="9.043771773576737">
        <ele>298.626708984375</ele>
        <time>2005-09-04T09:40:26Z</time>
      </trkpt>
      <trkpt lat="45.722810570150614" lon="9.04374847188592">
        <ele>297.1846923828125</ele>
        <time>2005-09-04T09:40:29Z</time>
      </trkpt>
      <trkpt lat="45.722754579037428" lon="9.043877637013793">
        <ele>297.1846923828125</ele>
        <time>2005-09-04T09:40:33Z</time>
      </trkpt>
      <trkpt lat="45.722721219062805" lon="9.044017698615789">
        <ele>297.6654052734375</ele>
        <time>2005-09-04T09:40:37Z</time>
      </trkpt>
      <trkpt lat="45.722678890451789" lon="9.044155664741993">
        <ele>296.7041015625</ele>
        <time>2005-09-04T09:40:41Z</time>
      </trkpt>
      <trkpt lat="45.722587779164314" lon="9.044177541509271">
        <ele>297.1846923828125</ele>
        <time>2005-09-04T09:40:45Z</time>
      </trkpt>
      <trkpt lat="45.722479820251465" lon="9.044102858752012">
        <ele>296.7041015625</ele>
        <time>2005-09-04T09:40:49Z</time>
      </trkpt>
      <trkpt lat="45.7223657425493" lon="9.044035887345672">
        <ele>296.7041015625</ele>
        <time>2005-09-04T09:40:53Z</time>
      </trkpt>
      <trkpt lat="45.722273206338286" lon="9.043982159346342">
        <ele>296.2235107421875</ele>
        <time>2005-09-04T09:40:56Z</time>
      </trkpt>
      <trkpt lat="45.722176562994719" lon="9.043927676975727">
        <ele>296.2235107421875</ele>
        <time>2005-09-04T09:40:59Z</time>
      </trkpt>
      <trkpt lat="45.722082601860166" lon="9.043872356414795">
        <ele>296.2235107421875</ele>
        <time>2005-09-04T09:41:02Z</time>
      </trkpt>
      <trkpt lat="45.721991490572691" lon="9.04381250962615">
        <ele>296.7041015625</ele>
        <time>2005-09-04T09:41:05Z</time>
      </trkpt>
      <trkpt lat="45.721908593550324" lon="9.04375827871263">
        <ele>296.7041015625</ele>
        <time>2005-09-04T09:41:08Z</time>
      </trkpt>
      <trkpt lat="45.721818991005421" lon="9.043703209608793">
        <ele>297.1846923828125</ele>
        <time>2005-09-04T09:41:12Z</time>
      </trkpt>
      <trkpt lat="45.721715558320284" lon="9.043685020878911">
        <ele>297.6654052734375</ele>
        <time>2005-09-04T09:41:17Z</time>
      </trkpt>
      <trkpt lat="45.721631236374378" lon="9.043763810768724">
        <ele>298.626708984375</ele>
        <time>2005-09-04T09:41:22Z</time>
      </trkpt>
      <trkpt lat="45.721548004075885" lon="9.043856179341674">
        <ele>298.626708984375</ele>
        <time>2005-09-04T09:41:26Z</time>
      </trkpt>
      <trkpt lat="45.721462173387408" lon="9.04388920404017">
        <ele>299.1072998046875</ele>
        <time>2005-09-04T09:41:30Z</time>
      </trkpt>
      <trkpt lat="45.721369050443172" lon="9.043846623972058">
        <ele>299.5880126953125</ele>
        <time>2005-09-04T09:41:35Z</time>
      </trkpt>
      <trkpt lat="45.721293445676565" lon="9.043769259005785">
        <ele>299.5880126953125</ele>
        <time>2005-09-04T09:41:41Z</time>
      </trkpt>
      <trkpt lat="45.721226138994098" lon="9.043683176860213">
        <ele>300.54931640625</ele>
        <time>2005-09-04T09:41:47Z</time>
      </trkpt>
      <trkpt lat="45.72115832939744" lon="9.043600866571069">
        <ele>300.54931640625</ele>
        <time>2005-09-04T09:41:52Z</time>
      </trkpt>
      <trkpt lat="45.721104182302952" lon="9.043503133580089">
        <ele>301.0299072265625</ele>
        <time>2005-09-04T09:41:57Z</time>
      </trkpt>
      <trkpt lat="45.721049532294273" lon="9.043387714773417">
        <ele>301.9913330078125</ele>
        <time>2005-09-04T09:42:05Z</time>
      </trkpt>
      <trkpt lat="45.720974514260888" lon="9.043271709233522">
        <ele>302.9525146484375</ele>
        <time>2005-09-04T09:42:20Z</time>
      </trkpt>
      <trkpt lat="45.720882061868906" lon="9.04318705201149">
        <ele>302.9525146484375</ele>
        <time>2005-09-04T09:42:30Z</time>
      </trkpt>
      <trkpt lat="45.720794554799795" lon="9.043093845248222">
        <ele>303.4332275390625</ele>
        <time>2005-09-04T09:42:39Z</time>
      </trkpt>
      <trkpt lat="45.720674693584442" lon="9.042998291552067">
        <ele>303.9139404296875</ele>
        <time>2005-09-04T09:42:53Z</time>
      </trkpt>
      <trkpt lat="45.7205939758569" lon="9.04292075894773">
        <ele>303.9139404296875</ele>
        <time>2005-09-04T09:42:57Z</time>
      </trkpt>
      <trkpt lat="45.720498589798808" lon="9.042856134474278">
        <ele>304.3946533203125</ele>
        <time>2005-09-04T09:43:02Z</time>
      </trkpt>
      <trkpt lat="45.720414016395807" lon="9.042792683467269">
        <ele>305.35595703125</ele>
        <time>2005-09-04T09:43:09Z</time>
      </trkpt>
      <trkpt lat="45.720329359173775" lon="9.04274289496243">
        <ele>305.836669921875</ele>
        <time>2005-09-04T09:43:20Z</time>
      </trkpt>
      <trkpt lat="45.720235565677285" lon="9.042695453390479">
        <ele>306.3172607421875</ele>
        <time>2005-09-04T09:43:28Z</time>
      </trkpt>
      <trkpt lat="45.720133641734719" lon="9.042634516954422">
        <ele>306.7978515625</ele>
        <time>2005-09-04T09:43:37Z</time>
      </trkpt>
      <trkpt lat="45.720045967027545" lon="9.042580705136061">
        <ele>306.7978515625</ele>
        <time>2005-09-04T09:43:43Z</time>
      </trkpt>
      <trkpt lat="45.719951586797833" lon="9.042539801448584">
        <ele>307.75927734375</ele>
        <time>2005-09-04T09:43:49Z</time>
      </trkpt>
      <trkpt lat="45.7198600564152" lon="9.042488001286984">
        <ele>307.278564453125</ele>
        <time>2005-09-04T09:43:55Z</time>
      </trkpt>
      <trkpt lat="45.719780931249261" lon="9.042421029880643">
        <ele>307.75927734375</ele>
        <time>2005-09-04T09:44:02Z</time>
      </trkpt>
      <trkpt lat="45.719680348411202" lon="9.042387418448925">
        <ele>308.2398681640625</ele>
        <time>2005-09-04T09:44:29Z</time>
      </trkpt>
      <trkpt lat="45.719579765573144" lon="9.042328912764788">
        <ele>308.2398681640625</ele>
        <time>2005-09-04T09:44:35Z</time>
      </trkpt>
      <trkpt lat="45.719492342323065" lon="9.042267724871635">
        <ele>309.201171875</ele>
        <time>2005-09-04T09:44:40Z</time>
      </trkpt>
      <trkpt lat="45.719397207722068" lon="9.042212991043925">
        <ele>309.201171875</ele>
        <time>2005-09-04T09:44:45Z</time>
      </trkpt>
      <trkpt lat="45.719305509701371" lon="9.042156748473644">
        <ele>309.681884765625</ele>
        <time>2005-09-04T09:44:50Z</time>
      </trkpt>
      <trkpt lat="45.719204172492027" lon="9.042104529216886">
        <ele>309.681884765625</ele>
        <time>2005-09-04T09:44:56Z</time>
      </trkpt>
      <trkpt lat="45.719107780605555" lon="9.042051220312715">
        <ele>309.681884765625</ele>
        <time>2005-09-04T09:45:01Z</time>
      </trkpt>
      <trkpt lat="45.719012310728431" lon="9.041994726285338">
        <ele>309.681884765625</ele>
        <time>2005-09-04T09:45:06Z</time>
      </trkpt>
      <trkpt lat="45.718925893306732" lon="9.041944686323404">
        <ele>310.1624755859375</ele>
        <time>2005-09-04T09:45:10Z</time>
      </trkpt>
      <trkpt lat="45.718840984627604" lon="9.041894227266312">
        <ele>310.64306640625</ele>
        <time>2005-09-04T09:45:14Z</time>
      </trkpt>
      <trkpt lat="45.718749286606908" lon="9.041843265295029">
        <ele>310.64306640625</ele>
        <time>2005-09-04T09:45:20Z</time>
      </trkpt>
      <trkpt lat="45.718645770102739" lon="9.04178224503994">
        <ele>310.64306640625</ele>
        <time>2005-09-04T09:45:26Z</time>
      </trkpt>
      <trkpt lat="45.718562370166183" lon="9.041733965277672">
        <ele>310.64306640625</ele>
        <time>2005-09-04T09:45:30Z</time>
      </trkpt>
      <trkpt lat="45.718467403203249" lon="9.04168451204896">
        <ele>310.64306640625</ele>
        <time>2005-09-04T09:45:34Z</time>
      </trkpt>
      <trkpt lat="45.718380399048328" lon="9.041639417409897">
        <ele>311.123779296875</ele>
        <time>2005-09-04T09:45:38Z</time>
      </trkpt>
      <trkpt lat="45.718291718512774" lon="9.041589461266995">
        <ele>311.123779296875</ele>
        <time>2005-09-04T09:45:42Z</time>
      </trkpt>
      <trkpt lat="45.718191806226969" lon="9.041530201211572">
        <ele>311.123779296875</ele>
        <time>2005-09-04T09:45:47Z</time>
      </trkpt>
      <trkpt lat="45.71808778680861" lon="9.041488459333777">
        <ele>311.123779296875</ele>
        <time>2005-09-04T09:45:52Z</time>
      </trkpt>
      <trkpt lat="45.71800958365202" lon="9.041583091020584">
        <ele>311.123779296875</ele>
        <time>2005-09-04T09:45:57Z</time>
      </trkpt>
      <trkpt lat="45.717954179272056" lon="9.041682500392199">
        <ele>311.123779296875</ele>
        <time>2005-09-04T09:46:01Z</time>
      </trkpt>
      <trkpt lat="45.717845130711794" lon="9.041684428229928">
        <ele>311.123779296875</ele>
        <time>2005-09-04T09:46:06Z</time>
      </trkpt>
      <trkpt lat="45.717759048566222" lon="9.041641009971499">
        <ele>311.123779296875</ele>
        <time>2005-09-04T09:46:10Z</time>
      </trkpt>
      <trkpt lat="45.717645892873406" lon="9.041632963344455">
        <ele>311.123779296875</ele>
        <time>2005-09-04T09:46:15Z</time>
      </trkpt>
      <trkpt lat="45.717551680281758" lon="9.04163614846766">
        <ele>311.123779296875</ele>
        <time>2005-09-04T09:46:19Z</time>
      </trkpt>
      <trkpt lat="45.717474650591612" lon="9.041696917265654">
        <ele>311.123779296875</ele>
        <time>2005-09-04T09:46:23Z</time>
      </trkpt>
      <trkpt lat="45.717451851814985" lon="9.041843935847282">
        <ele>311.123779296875</ele>
        <time>2005-09-04T09:46:29Z</time>
      </trkpt>
      <trkpt lat="45.717445649206638" lon="9.042003192007542">
        <ele>311.6044921875</ele>
        <time>2005-09-04T09:46:35Z</time>
      </trkpt>
      <trkpt lat="45.717447074130177" lon="9.042135626077652">
        <ele>311.6044921875</ele>
        <time>2005-09-04T09:46:40Z</time>
      </trkpt>
      <trkpt lat="45.717448331415653" lon="9.042269317433238">
        <ele>311.6044921875</ele>
        <time>2005-09-04T09:46:45Z</time>
      </trkpt>
      <trkpt lat="45.717447493225336" lon="9.042424634099007">
        <ele>311.6044921875</ele>
        <time>2005-09-04T09:46:55Z</time>
      </trkpt>
      <trkpt lat="45.717445565387607" lon="9.042565617710352">
        <ele>311.6044921875</ele>
        <time>2005-09-04T09:46:59Z</time>
      </trkpt>
      <trkpt lat="45.717442715540528" lon="9.042720599099994">
        <ele>311.6044921875</ele>
        <time>2005-09-04T09:47:04Z</time>
      </trkpt>
      <trkpt lat="45.717438524588943" lon="9.042863510549069">
        <ele>311.6044921875</ele>
        <time>2005-09-04T09:47:08Z</time>
      </trkpt>
      <trkpt lat="45.717424945905805" lon="9.042991921305656">
        <ele>311.6044921875</ele>
        <time>2005-09-04T09:47:12Z</time>
      </trkpt>
      <trkpt lat="45.717421593144536" lon="9.043140700086951">
        <ele>311.123779296875</ele>
        <time>2005-09-04T09:47:17Z</time>
      </trkpt>
      <trkpt lat="45.717400386929512" lon="9.043280342593789">
        <ele>310.64306640625</ele>
        <time>2005-09-04T09:47:23Z</time>
      </trkpt>
      <trkpt lat="45.717306174337864" lon="9.043338680639863">
        <ele>311.123779296875</ele>
        <time>2005-09-04T09:47:28Z</time>
      </trkpt>
      <trkpt lat="45.717201568186283" lon="9.04333708807826">
        <ele>311.123779296875</ele>
        <time>2005-09-04T09:47:33Z</time>
      </trkpt>
      <trkpt lat="45.717096040025353" lon="9.043326862156391">
        <ele>311.123779296875</ele>
        <time>2005-09-04T09:47:38Z</time>
      </trkpt>
      <trkpt lat="45.716991685330868" lon="9.043316384777427">
        <ele>311.6044921875</ele>
        <time>2005-09-04T09:47:45Z</time>
      </trkpt>
      <trkpt lat="45.716882469132543" lon="9.043311271816492">
        <ele>311.123779296875</ele>
        <time>2005-09-04T09:47:51Z</time>
      </trkpt>
      <trkpt lat="45.716785406693816" lon="9.043312361463904">
        <ele>311.123779296875</ele>
        <time>2005-09-04T09:47:56Z</time>
      </trkpt>
      <trkpt lat="45.716683315113187" lon="9.043305236846209">
        <ele>311.123779296875</ele>
        <time>2005-09-04T09:48:01Z</time>
      </trkpt>
      <trkpt lat="45.716577954590321" lon="9.043301213532686">
        <ele>311.6044921875</ele>
        <time>2005-09-04T09:48:07Z</time>
      </trkpt>
      <trkpt lat="45.716480640694499" lon="9.043295430019498">
        <ele>311.123779296875</ele>
        <time>2005-09-04T09:48:14Z</time>
      </trkpt>
      <trkpt lat="45.716383913531899" lon="9.043286964297295">
        <ele>311.6044921875</ele>
        <time>2005-09-04T09:48:20Z</time>
      </trkpt>
      <trkpt lat="45.716282241046429" lon="9.043279923498631">
        <ele>311.6044921875</ele>
        <time>2005-09-04T09:48:25Z</time>
      </trkpt>
      <trkpt lat="45.716189537197351" lon="9.043265674263239">
        <ele>312.5657958984375</ele>
        <time>2005-09-04T09:48:29Z</time>
      </trkpt>
      <trkpt lat="45.71608878672123" lon="9.043258968740702">
        <ele>312.5657958984375</ele>
        <time>2005-09-04T09:48:33Z</time>
      </trkpt>
      <trkpt lat="45.715992478653789" lon="9.043246479704976">
        <ele>313.0465087890625</ele>
        <time>2005-09-04T09:48:37Z</time>
      </trkpt>
      <trkpt lat="45.715899523347616" lon="9.0432452224195">
        <ele>313.0465087890625</ele>
        <time>2005-09-04T09:48:41Z</time>
      </trkpt>
      <trkpt lat="45.715804807841778" lon="9.043235080316663">
        <ele>313.5272216796875</ele>
        <time>2005-09-04T09:48:45Z</time>
      </trkpt>
      <trkpt lat="45.715712355449796" lon="9.043231979012489">
        <ele>313.5272216796875</ele>
        <time>2005-09-04T09:48:49Z</time>
      </trkpt>
      <trkpt lat="45.715609174221754" lon="9.043232565745711">
        <ele>314.0078125</ele>
        <time>2005-09-04T09:48:54Z</time>
      </trkpt>
      <trkpt lat="45.71549853309989" lon="9.043244970962405">
        <ele>314.4884033203125</ele>
        <time>2005-09-04T09:48:59Z</time>
      </trkpt>
      <trkpt lat="45.715398788452148" lon="9.043252849951387">
        <ele>314.9691162109375</ele>
        <time>2005-09-04T09:49:03Z</time>
      </trkpt>
      <trkpt lat="45.715293763205409" lon="9.043282270431519">
        <ele>314.9691162109375</ele>
        <time>2005-09-04T09:49:07Z</time>
      </trkpt>
      <trkpt lat="45.715195778757334" lon="9.043338093906641">
        <ele>314.9691162109375</ele>
        <time>2005-09-04T09:49:13Z</time>
      </trkpt>
      <trkpt lat="45.715095782652497" lon="9.043381009250879">
        <ele>314.9691162109375</ele>
        <time>2005-09-04T09:49:17Z</time>
      </trkpt>
      <trkpt lat="45.714984554797411" lon="9.043414117768407">
        <ele>315.4498291015625</ele>
        <time>2005-09-04T09:49:21Z</time>
      </trkpt>
      <trkpt lat="45.714892437681556" lon="9.043426774442196">
        <ele>314.4884033203125</ele>
        <time>2005-09-04T09:49:24Z</time>
      </trkpt>
      <trkpt lat="45.714786574244499" lon="9.043430294841528">
        <ele>313.5272216796875</ele>
        <time>2005-09-04T09:49:27Z</time>
      </trkpt>
      <trkpt lat="45.714680626988411" lon="9.043444292619824">
        <ele>312.5657958984375</ele>
        <time>2005-09-04T09:49:30Z</time>
      </trkpt>
      <trkpt lat="45.714578032493591" lon="9.043466923758388">
        <ele>312.085205078125</ele>
        <time>2005-09-04T09:49:33Z</time>
      </trkpt>
      <trkpt lat="45.714473258703947" lon="9.043492572382093">
        <ele>310.64306640625</ele>
        <time>2005-09-04T09:49:36Z</time>
      </trkpt>
      <trkpt lat="45.714361695572734" lon="9.043522663414478">
        <ele>310.1624755859375</ele>
        <time>2005-09-04T09:49:39Z</time>
      </trkpt>
      <trkpt lat="45.714242001995444" lon="9.043524507433176">
        <ele>309.201171875</ele>
        <time>2005-09-04T09:49:42Z</time>
      </trkpt>
      <trkpt lat="45.714127840474248" lon="9.043547306209803">
        <ele>308.720458984375</ele>
        <time>2005-09-04T09:49:45Z</time>
      </trkpt>
      <trkpt lat="45.714013176038861" lon="9.043566919863224">
        <ele>306.7978515625</ele>
        <time>2005-09-04T09:49:48Z</time>
      </trkpt>
      <trkpt lat="45.713892057538033" lon="9.043587120249867">
        <ele>305.836669921875</ele>
        <time>2005-09-04T09:49:51Z</time>
      </trkpt>
      <trkpt lat="45.713775297626853" lon="9.043606566265225">
        <ele>305.35595703125</ele>
        <time>2005-09-04T09:49:54Z</time>
      </trkpt>
      <trkpt lat="45.713668260723352" lon="9.043624419718981">
        <ele>304.875244140625</ele>
        <time>2005-09-04T09:49:57Z</time>
      </trkpt>
      <trkpt lat="45.713585615158081" lon="9.043638249859214">
        <ele>303.9139404296875</ele>
        <time>2005-09-04T09:50:00Z</time>
      </trkpt>
      <trkpt lat="45.713490983471274" lon="9.043653924018145">
        <ele>302.471923828125</ele>
        <time>2005-09-04T09:50:04Z</time>
      </trkpt>
      <trkpt lat="45.71339794434607" lon="9.043903956189752">
        <ele>302.471923828125</ele>
        <time>2005-09-04T09:50:08Z</time>
      </trkpt>
      <trkpt lat="45.713437842205167" lon="9.044055249541998">
        <ele>302.471923828125</ele>
        <time>2005-09-04T09:50:12Z</time>
      </trkpt>
      <trkpt lat="45.713480589911342" lon="9.044218026101589">
        <ele>302.471923828125</ele>
        <time>2005-09-04T09:50:16Z</time>
      </trkpt>
      <trkpt lat="45.713520739227533" lon="9.044370241463184">
        <ele>302.471923828125</ele>
        <time>2005-09-04T09:50:20Z</time>
      </trkpt>
      <trkpt lat="45.713574551045895" lon="9.044512147083879">
        <ele>301.9913330078125</ele>
        <time>2005-09-04T09:50:24Z</time>
      </trkpt>
      <trkpt lat="45.713653843849897" lon="9.044578112661839">
        <ele>301.9913330078125</ele>
        <time>2005-09-04T09:50:29Z</time>
      </trkpt>
      <trkpt lat="45.713730119168758" lon="9.044641731306911">
        <ele>301.9913330078125</ele>
        <time>2005-09-04T09:50:34Z</time>
      </trkpt>
      <trkpt lat="45.713806059211493" lon="9.044705014675856">
        <ele>301.5106201171875</ele>
        <time>2005-09-04T09:50:39Z</time>
      </trkpt>
      <trkpt lat="45.713872946798801" lon="9.044724628329277">
        <ele>301.0299072265625</ele>
        <time>2005-09-04T09:50:45Z</time>
      </trkpt>
      <trkpt lat="45.713967327028513" lon="9.044748181477189">
        <ele>300.54931640625</ele>
        <time>2005-09-04T09:50:51Z</time>
      </trkpt>
      <trkpt lat="45.713986605405807" lon="9.044750025495887">
        <ele>299.1072998046875</ele>
        <time>2005-09-04T09:50:57Z</time>
      </trkpt>
      <trkpt lat="45.714035807177424" lon="9.044723957777023">
        <ele>297.6654052734375</ele>
        <time>2005-09-04T09:51:03Z</time>
      </trkpt>
      <trkpt lat="45.714084003120661" lon="9.044698476791382">
        <ele>296.2235107421875</ele>
        <time>2005-09-04T09:51:09Z</time>
      </trkpt>
      <trkpt lat="45.714150974527001" lon="9.044663105159998">
        <ele>294.30078125</ele>
        <time>2005-09-04T09:51:16Z</time>
      </trkpt>
      <trkpt lat="45.714213335886598" lon="9.04462999664247">
        <ele>293.33935546875</ele>
        <time>2005-09-04T09:51:23Z</time>
      </trkpt>
      <trkpt lat="45.714224735274911" lon="9.044623961672187">
        <ele>291.8974609375</ele>
        <time>2005-09-04T09:51:31Z</time>
      </trkpt>
      <trkpt lat="45.714408801868558" lon="9.044526480138302">
        <ele>291.8974609375</ele>
        <time>2005-09-04T09:51:39Z</time>
      </trkpt>
      <trkpt lat="45.714497650042176" lon="9.04447945766151">
        <ele>290.9361572265625</ele>
        <time>2005-09-04T09:51:45Z</time>
      </trkpt>
      <trkpt lat="45.714621283113956" lon="9.04441399499774">
        <ele>289.494140625</ele>
        <time>2005-09-04T09:51:51Z</time>
      </trkpt>
      <trkpt lat="45.714712142944336" lon="9.044365882873535">
        <ele>289.494140625</ele>
        <time>2005-09-04T09:51:56Z</time>
      </trkpt>
      <trkpt lat="45.714712142944336" lon="9.044365882873535">
        <ele>288.532958984375</ele>
        <time>2005-09-04T09:52:00Z</time>
      </trkpt>
      <trkpt lat="45.715224361047149" lon="9.045308846980333">
        <ele>288.532958984375</ele>
        <time>2005-09-04T09:52:04Z</time>
      </trkpt>
      <trkpt lat="45.715325027704239" lon="9.045313540846109">
        <ele>288.532958984375</ele>
        <time>2005-09-04T09:52:08Z</time>
      </trkpt>
      <trkpt lat="45.715456958860159" lon="9.045295771211386">
        <ele>288.532958984375</ele>
        <time>2005-09-04T09:52:12Z</time>
      </trkpt>
      <trkpt lat="45.715589560568333" lon="9.045259896665812">
        <ele>288.05224609375</ele>
        <time>2005-09-04T09:52:16Z</time>
      </trkpt>
      <trkpt lat="45.715711349621415" lon="9.045206923037767">
        <ele>288.532958984375</ele>
        <time>2005-09-04T09:52:20Z</time>
      </trkpt>
      <trkpt lat="45.715820733457804" lon="9.045179933309555">
        <ele>288.532958984375</ele>
        <time>2005-09-04T09:52:24Z</time>
      </trkpt>
      <trkpt lat="45.715851662680507" lon="9.045315133407712">
        <ele>288.05224609375</ele>
        <time>2005-09-04T09:52:27Z</time>
      </trkpt>
      <trkpt lat="45.715877814218402" lon="9.045467097312212">
        <ele>287.5714111328125</ele>
        <time>2005-09-04T09:52:30Z</time>
      </trkpt>
      <trkpt lat="45.715907737612724" lon="9.045590814203024">
        <ele>288.05224609375</ele>
        <time>2005-09-04T09:52:33Z</time>
      </trkpt>
      <trkpt lat="45.715943779796362" lon="9.045745711773634">
        <ele>287.5714111328125</ele>
        <time>2005-09-04T09:52:37Z</time>
      </trkpt>
      <trkpt lat="45.715978480875492" lon="9.045878732576966">
        <ele>287.5714111328125</ele>
        <time>2005-09-04T09:52:41Z</time>
      </trkpt>
      <trkpt lat="45.716022737324238" lon="9.046009238809347">
        <ele>287.5714111328125</ele>
        <time>2005-09-04T09:52:45Z</time>
      </trkpt>
      <trkpt lat="45.716087026521564" lon="9.04615106061101">
        <ele>287.5714111328125</ele>
        <time>2005-09-04T09:52:49Z</time>
      </trkpt>
      <trkpt lat="45.716145364567637" lon="9.046293133869767">
        <ele>288.05224609375</ele>
        <time>2005-09-04T09:52:53Z</time>
      </trkpt>
      <trkpt lat="45.716190878301859" lon="9.046414084732533">
        <ele>287.5714111328125</ele>
        <time>2005-09-04T09:52:57Z</time>
      </trkpt>
      <trkpt lat="45.716241924092174" lon="9.046545345336199">
        <ele>286.1295166015625</ele>
        <time>2005-09-04T09:53:02Z</time>
      </trkpt>
      <trkpt lat="45.716300513595343" lon="9.046670151874423">
        <ele>284.6876220703125</ele>
        <time>2005-09-04T09:53:07Z</time>
      </trkpt>
      <trkpt lat="45.71634192019701" lon="9.046809626743197">
        <ele>283.7261962890625</ele>
        <time>2005-09-04T09:53:12Z</time>
      </trkpt>
      <trkpt lat="45.716334041208029" lon="9.046956980600953">
        <ele>281.8035888671875</ele>
        <time>2005-09-04T09:53:17Z</time>
      </trkpt>
      <trkpt lat="45.716276792809367" lon="9.047071477398276">
        <ele>280.8424072265625</ele>
        <time>2005-09-04T09:53:22Z</time>
      </trkpt>
      <trkpt lat="45.716199176385999" lon="9.047193098813295">
        <ele>279.880859375</ele>
        <time>2005-09-04T09:53:28Z</time>
      </trkpt>
      <trkpt lat="45.716114100068808" lon="9.047292172908783">
        <ele>278.919677734375</ele>
        <time>2005-09-04T09:53:34Z</time>
      </trkpt>
      <trkpt lat="45.716041931882501" lon="9.047396695241332">
        <ele>277.958251953125</ele>
        <time>2005-09-04T09:53:41Z</time>
      </trkpt>
      <trkpt lat="45.716089121997356" lon="9.047469114884734">
        <ele>276.9970703125</ele>
        <time>2005-09-04T09:53:52Z</time>
      </trkpt>
      <trkpt lat="45.716178640723228" lon="9.047407591715455">
        <ele>276.516357421875</ele>
        <time>2005-09-04T09:53:59Z</time>
      </trkpt>
      <trkpt lat="45.716260364279151" lon="9.047325029969215">
        <ele>276.03564453125</ele>
        <time>2005-09-04T09:54:05Z</time>
      </trkpt>
      <trkpt lat="45.716361366212368" lon="9.047285718843341">
        <ele>275.5550537109375</ele>
        <time>2005-09-04T09:54:10Z</time>
      </trkpt>
      <trkpt lat="45.716465301811695" lon="9.047289155423641">
        <ele>275.5550537109375</ele>
        <time>2005-09-04T09:54:15Z</time>
      </trkpt>
      <trkpt lat="45.716566136106849" lon="9.047281611710787">
        <ele>276.03564453125</ele>
        <time>2005-09-04T09:54:19Z</time>
      </trkpt>
      <trkpt lat="45.716664958745241" lon="9.047197457402945">
        <ele>275.5550537109375</ele>
        <time>2005-09-04T09:54:23Z</time>
      </trkpt>
      <trkpt lat="45.716756405308843" lon="9.047082792967558">
        <ele>276.03564453125</ele>
        <time>2005-09-04T09:54:27Z</time>
      </trkpt>
      <trkpt lat="45.716841397807002" lon="9.046979192644358">
        <ele>276.03564453125</ele>
        <time>2005-09-04T09:54:31Z</time>
      </trkpt>
      <trkpt lat="45.716928318142891" lon="9.046869305893779">
        <ele>276.516357421875</ele>
        <time>2005-09-04T09:54:35Z</time>
      </trkpt>
      <trkpt lat="45.717003000900149" lon="9.046772411093116">
        <ele>276.516357421875</ele>
        <time>2005-09-04T09:54:39Z</time>
      </trkpt>
      <trkpt lat="45.717100817710161" lon="9.046729579567909">
        <ele>276.516357421875</ele>
        <time>2005-09-04T09:54:44Z</time>
      </trkpt>
      <trkpt lat="45.717210788279772" lon="9.046745002269745">
        <ele>276.9970703125</ele>
        <time>2005-09-04T09:54:50Z</time>
      </trkpt>
      <trkpt lat="45.717314723879099" lon="9.046673169359565">
        <ele>276.9970703125</ele>
        <time>2005-09-04T09:54:55Z</time>
      </trkpt>
      <trkpt lat="45.71741396561265" lon="9.046594044193626">
        <ele>276.9970703125</ele>
        <time>2005-09-04T09:55:00Z</time>
      </trkpt>
      <trkpt lat="45.717517985031009" lon="9.046494802460074">
        <ele>276.516357421875</ele>
        <time>2005-09-04T09:55:04Z</time>
      </trkpt>
      <trkpt lat="45.717605911195278" lon="9.046413497999311">
        <ele>276.516357421875</ele>
        <time>2005-09-04T09:55:07Z</time>
      </trkpt>
      <trkpt lat="45.717702889814973" lon="9.046363541856408">
        <ele>276.9970703125</ele>
        <time>2005-09-04T09:55:10Z</time>
      </trkpt>
      <trkpt lat="45.717815374955535" lon="9.046346694231033">
        <ele>277.4776611328125</ele>
        <time>2005-09-04T09:55:14Z</time>
      </trkpt>
      <trkpt lat="45.717924255877733" lon="9.046381646767259">
        <ele>276.9970703125</ele>
        <time>2005-09-04T09:55:18Z</time>
      </trkpt>
      <trkpt lat="45.71801251731813" lon="9.046422718092799">
        <ele>276.9970703125</ele>
        <time>2005-09-04T09:55:21Z</time>
      </trkpt>
      <trkpt lat="45.718095330521464" lon="9.046466806903482">
        <ele>277.4776611328125</ele>
        <time>2005-09-04T09:55:24Z</time>
      </trkpt>
      <trkpt lat="45.718201696872711" lon="9.046544590964913">
        <ele>277.4776611328125</ele>
        <time>2005-09-04T09:55:28Z</time>
      </trkpt>
      <trkpt lat="45.718300687149167" lon="9.046628996729851">
        <ele>277.4776611328125</ele>
        <time>2005-09-04T09:55:32Z</time>
      </trkpt>
      <trkpt lat="45.718383584171534" lon="9.046727232635021">
        <ele>277.958251953125</ele>
        <time>2005-09-04T09:55:36Z</time>
      </trkpt>
      <trkpt lat="45.718469833955169" lon="9.046819349750876">
        <ele>277.958251953125</ele>
        <time>2005-09-04T09:55:40Z</time>
      </trkpt>
      <trkpt lat="45.718550635501742" lon="9.04690652154386">
        <ele>278.43896484375</ele>
        <time>2005-09-04T09:55:44Z</time>
      </trkpt>
      <trkpt lat="45.718615846708417" lon="9.047005763277412">
        <ele>278.43896484375</ele>
        <time>2005-09-04T09:55:48Z</time>
      </trkpt>
      <trkpt lat="45.718688685446978" lon="9.047108190134168">
        <ele>277.958251953125</ele>
        <time>2005-09-04T09:55:52Z</time>
      </trkpt>
      <trkpt lat="45.718767559155822" lon="9.047212461009622">
        <ele>277.958251953125</ele>
        <time>2005-09-04T09:55:56Z</time>
      </trkpt>
      <trkpt lat="45.718850623816252" lon="9.047316228970885">
        <ele>277.958251953125</ele>
        <time>2005-09-04T09:56:00Z</time>
      </trkpt>
      <trkpt lat="45.718926815316081" lon="9.047425948083401">
        <ele>278.43896484375</ele>
        <time>2005-09-04T09:56:04Z</time>
      </trkpt>
      <trkpt lat="45.71900300681591" lon="9.04754463583231">
        <ele>278.43896484375</ele>
        <time>2005-09-04T09:56:08Z</time>
      </trkpt>
      <trkpt lat="45.719083473086357" lon="9.047660054638982">
        <ele>278.919677734375</ele>
        <time>2005-09-04T09:56:12Z</time>
      </trkpt>
      <trkpt lat="45.719168549403548" lon="9.047763654962182">
        <ele>280.3616943359375</ele>
        <time>2005-09-04T09:56:16Z</time>
      </trkpt>
      <trkpt lat="45.719266701489687" lon="9.047862896695733">
        <ele>281.322998046875</ele>
        <time>2005-09-04T09:56:20Z</time>
      </trkpt>
      <trkpt lat="45.719360327348113" lon="9.047958198934794">
        <ele>280.8424072265625</ele>
        <time>2005-09-04T09:56:24Z</time>
      </trkpt>
      <trkpt lat="45.719442637637258" lon="9.048045203089714">
        <ele>279.880859375</ele>
        <time>2005-09-04T09:56:28Z</time>
      </trkpt>
      <trkpt lat="45.719518661499023" lon="9.048119131475687">
        <ele>279.880859375</ele>
        <time>2005-09-04T09:56:32Z</time>
      </trkpt>
      <trkpt lat="45.719627207145095" lon="9.048163387924433">
        <ele>279.4002685546875</ele>
        <time>2005-09-04T09:56:36Z</time>
      </trkpt>
      <trkpt lat="45.719744134694338" lon="9.0481823310256">
        <ele>279.880859375</ele>
        <time>2005-09-04T09:56:40Z</time>
      </trkpt>
      <trkpt lat="45.719860475510359" lon="9.04818668961525">
        <ele>280.3616943359375</ele>
        <time>2005-09-04T09:56:44Z</time>
      </trkpt>
      <trkpt lat="45.719977486878633" lon="9.048188533633947">
        <ele>280.3616943359375</ele>
        <time>2005-09-04T09:56:48Z</time>
      </trkpt>
      <trkpt lat="45.720094330608845" lon="9.048172859475017">
        <ele>280.8424072265625</ele>
        <time>2005-09-04T09:56:52Z</time>
      </trkpt>
      <trkpt lat="45.720201535150409" lon="9.048151234164834">
        <ele>281.322998046875</ele>
        <time>2005-09-04T09:56:56Z</time>
      </trkpt>
      <trkpt lat="45.720296753570437" lon="9.048189707100391">
        <ele>282.2843017578125</ele>
        <time>2005-09-04T09:57:01Z</time>
      </trkpt>
      <trkpt lat="45.720375375822186" lon="9.04827956110239">
        <ele>283.24560546875</ele>
        <time>2005-09-04T09:57:10Z</time>
      </trkpt>
      <trkpt lat="45.720441928133368" lon="9.048330523073673">
        <ele>283.24560546875</ele>
        <time>2005-09-04T09:57:19Z</time>
      </trkpt>
      <trkpt lat="45.720479227602482" lon="9.048463962972164">
        <ele>283.7261962890625</ele>
        <time>2005-09-04T09:57:35Z</time>
      </trkpt>
      <trkpt lat="45.720544438809156" lon="9.048587596043944">
        <ele>285.168212890625</ele>
        <time>2005-09-04T09:57:39Z</time>
      </trkpt>
      <trkpt lat="45.720599256455898" lon="9.048710055649281">
        <ele>286.1295166015625</ele>
        <time>2005-09-04T09:57:43Z</time>
      </trkpt>
      <trkpt lat="45.720661701634526" lon="9.048830168321729">
        <ele>286.6102294921875</ele>
        <time>2005-09-04T09:57:47Z</time>
      </trkpt>
      <trkpt lat="45.720727499574423" lon="9.048938043415546">
        <ele>287.0908203125</ele>
        <time>2005-09-04T09:57:51Z</time>
      </trkpt>
      <trkpt lat="45.720786256715655" lon="9.049067124724388">
        <ele>287.5714111328125</ele>
        <time>2005-09-04T09:57:56Z</time>
      </trkpt>
      <trkpt lat="45.720837218686938" lon="9.049183716997504">
        <ele>288.532958984375</ele>
        <time>2005-09-04T09:58:01Z</time>
      </trkpt>
      <trkpt lat="45.720895724371076" lon="9.049297040328383">
        <ele>289.0135498046875</ele>
        <time>2005-09-04T09:58:06Z</time>
      </trkpt>
      <trkpt lat="45.720963282510638" lon="9.049404915422201">
        <ele>289.494140625</ele>
        <time>2005-09-04T09:58:12Z</time>
      </trkpt>
      <trkpt lat="45.721039474010468" lon="9.049504743888974">
        <ele>290.45556640625</ele>
        <time>2005-09-04T09:58:18Z</time>
      </trkpt>
      <trkpt lat="45.721122371032834" lon="9.049599962309003">
        <ele>291.416748046875</ele>
        <time>2005-09-04T09:58:24Z</time>
      </trkpt>
      <trkpt lat="45.721191605553031" lon="9.049684451892972">
        <ele>290.9361572265625</ele>
        <time>2005-09-04T09:58:29Z</time>
      </trkpt>
      <trkpt lat="45.721274670213461" lon="9.049781346693635">
        <ele>292.378173828125</ele>
        <time>2005-09-04T09:58:35Z</time>
      </trkpt>
      <trkpt lat="45.721348347142339" lon="9.04987933114171">
        <ele>293.33935546875</ele>
        <time>2005-09-04T09:58:41Z</time>
      </trkpt>
      <trkpt lat="45.721413055434823" lon="9.049996342509985">
        <ele>294.30078125</ele>
        <time>2005-09-04T09:58:47Z</time>
      </trkpt>
      <trkpt lat="45.721427639946342" lon="9.050143361091614">
        <ele>295.74267578125</ele>
        <time>2005-09-04T09:58:54Z</time>
      </trkpt>
      <trkpt lat="45.72135086171329" lon="9.050220977514982">
        <ele>297.6654052734375</ele>
        <time>2005-09-04T09:59:11Z</time>
      </trkpt>
      <trkpt lat="45.721239550039172" lon="9.050201028585434">
        <ele>298.626708984375</ele>
        <time>2005-09-04T09:59:24Z</time>
      </trkpt>
      <trkpt lat="45.721147768199444" lon="9.050164734944701">
        <ele>300.54931640625</ele>
        <time>2005-09-04T09:59:38Z</time>
      </trkpt>
      <trkpt lat="45.721044922247529" lon="9.050161214545369">
        <ele>301.9913330078125</ele>
        <time>2005-09-04T09:59:49Z</time>
      </trkpt>
      <trkpt lat="45.72094869799912" lon="9.050108240917325">
        <ele>302.9525146484375</ele>
        <time>2005-09-04T10:00:03Z</time>
      </trkpt>
      <trkpt lat="45.720841409638524" lon="9.05004252679646">
        <ele>305.836669921875</ele>
        <time>2005-09-04T10:00:24Z</time>
      </trkpt>
      <trkpt lat="45.720735043287277" lon="9.050023835152388">
        <ele>306.7978515625</ele>
        <time>2005-09-04T10:00:37Z</time>
      </trkpt>
      <trkpt lat="45.72060763835907" lon="9.050012603402138">
        <ele>308.720458984375</ele>
        <time>2005-09-04T10:00:50Z</time>
      </trkpt>
      <trkpt lat="45.720490710809827" lon="9.049985781311989">
        <ele>310.1624755859375</ele>
        <time>2005-09-04T10:01:02Z</time>
      </trkpt>
      <trkpt lat="45.720385350286961" lon="9.050004724413157">
        <ele>312.085205078125</ele>
        <time>2005-09-04T10:01:14Z</time>
      </trkpt>
      <trkpt lat="45.720278481021523" lon="9.050061972811818">
        <ele>313.5272216796875</ele>
        <time>2005-09-04T10:01:26Z</time>
      </trkpt>
      <trkpt lat="45.720161385834217" lon="9.050123998895288">
        <ele>314.9691162109375</ele>
        <time>2005-09-04T10:01:52Z</time>
      </trkpt>
      <trkpt lat="45.720060970634222" lon="9.050197927281261">
        <ele>315.930419921875</ele>
        <time>2005-09-04T10:02:00Z</time>
      </trkpt>
      <trkpt lat="45.71999198757112" lon="9.05032834969461">
        <ele>317.85302734375</ele>
        <time>2005-09-04T10:02:09Z</time>
      </trkpt>
      <trkpt lat="45.719967344775796" lon="9.050499172881246">
        <ele>318.8143310546875</ele>
        <time>2005-09-04T10:02:18Z</time>
      </trkpt>
      <trkpt lat="45.719936499372125" lon="9.050680221989751">
        <ele>319.2950439453125</ele>
        <time>2005-09-04T10:02:30Z</time>
      </trkpt>
      <trkpt lat="45.719909509643912" lon="9.050834365189076">
        <ele>321.2177734375</ele>
        <time>2005-09-04T10:02:36Z</time>
      </trkpt>
      <trkpt lat="45.71987958624959" lon="9.050985239446163">
        <ele>321.6983642578125</ele>
        <time>2005-09-04T10:02:41Z</time>
      </trkpt>
      <trkpt lat="45.719856368377805" lon="9.05114877037704">
        <ele>322.65966796875</ele>
        <time>2005-09-04T10:02:46Z</time>
      </trkpt>
      <trkpt lat="45.719847986474633" lon="9.051296794787049">
        <ele>323.140380859375</ele>
        <time>2005-09-04T10:02:50Z</time>
      </trkpt>
      <trkpt lat="45.719841364771128" lon="9.05144389718771">
        <ele>323.140380859375</ele>
        <time>2005-09-04T10:02:54Z</time>
      </trkpt>
      <trkpt lat="45.719842789694667" lon="9.051579851657152">
        <ele>324.1015625</ele>
        <time>2005-09-04T10:02:58Z</time>
      </trkpt>
      <trkpt lat="45.719840694218874" lon="9.051727037876844">
        <ele>324.1015625</ele>
        <time>2005-09-04T10:03:03Z</time>
      </trkpt>
      <trkpt lat="45.719838179647923" lon="9.051892915740609">
        <ele>324.582275390625</ele>
        <time>2005-09-04T10:03:09Z</time>
      </trkpt>
      <trkpt lat="45.719832731410861" lon="9.052023505792022">
        <ele>324.582275390625</ele>
        <time>2005-09-04T10:03:15Z</time>
      </trkpt>
      <trkpt lat="45.719830468297005" lon="9.052184605970979">
        <ele>325.06298828125</ele>
        <time>2005-09-04T10:03:23Z</time>
      </trkpt>
      <trkpt lat="45.719826864078641" lon="9.052314190194011">
        <ele>325.5435791015625</ele>
        <time>2005-09-04T10:03:30Z</time>
      </trkpt>
      <trkpt lat="45.719822756946087" lon="9.052447630092502">
        <ele>325.5435791015625</ele>
        <time>2005-09-04T10:03:43Z</time>
      </trkpt>
      <trkpt lat="45.71979115717113" lon="9.052571263164282">
        <ele>325.5435791015625</ele>
        <time>2005-09-04T10:04:06Z</time>
      </trkpt>
      <trkpt lat="45.719759808853269" lon="9.052686262875795">
        <ele>327.4661865234375</ele>
        <time>2005-09-04T10:09:48Z</time>
      </trkpt>
      <trkpt lat="45.719668110832572" lon="9.052721550688148">
        <ele>327.94677734375</ele>
        <time>2005-09-04T10:09:55Z</time>
      </trkpt>
      <trkpt lat="45.719569539651275" lon="9.052747786045075">
        <ele>327.4661865234375</ele>
        <time>2005-09-04T10:10:00Z</time>
      </trkpt>
      <trkpt lat="45.719473399221897" lon="9.052776368334889">
        <ele>326.985595703125</ele>
        <time>2005-09-04T10:10:04Z</time>
      </trkpt>
      <trkpt lat="45.719365272670984" lon="9.052804782986641">
        <ele>327.4661865234375</ele>
        <time>2005-09-04T10:10:09Z</time>
      </trkpt>
      <trkpt lat="45.71927173063159" lon="9.052843926474452">
        <ele>327.4661865234375</ele>
        <time>2005-09-04T10:10:13Z</time>
      </trkpt>
      <trkpt lat="45.719176847487688" lon="9.052886422723532">
        <ele>327.94677734375</ele>
        <time>2005-09-04T10:10:17Z</time>
      </trkpt>
      <trkpt lat="45.719070145860314" lon="9.05293227173388">
        <ele>326.985595703125</ele>
        <time>2005-09-04T10:10:21Z</time>
      </trkpt>
      <trkpt lat="45.718957493081689" lon="9.052983149886131">
        <ele>327.4661865234375</ele>
        <time>2005-09-04T10:10:25Z</time>
      </trkpt>
      <trkpt lat="45.7188705727458" lon="9.053022209554911">
        <ele>327.4661865234375</ele>
        <time>2005-09-04T10:10:28Z</time>
      </trkpt>
      <trkpt lat="45.718781473115087" lon="9.05306470580399">
        <ele>326.985595703125</ele>
        <time>2005-09-04T10:10:31Z</time>
      </trkpt>
      <trkpt lat="45.718692373484373" lon="9.0531091298908">
        <ele>326.5048828125</ele>
        <time>2005-09-04T10:10:34Z</time>
      </trkpt>
      <trkpt lat="45.718605285510421" lon="9.053149782121182">
        <ele>326.985595703125</ele>
        <time>2005-09-04T10:10:37Z</time>
      </trkpt>
      <trkpt lat="45.718515431508422" lon="9.053190853446722">
        <ele>326.5048828125</ele>
        <time>2005-09-04T10:10:40Z</time>
      </trkpt>
      <trkpt lat="45.718422560021281" lon="9.053235361352563">
        <ele>326.024169921875</ele>
        <time>2005-09-04T10:10:43Z</time>
      </trkpt>
      <trkpt lat="45.718324659392238" lon="9.053277438506484">
        <ele>326.024169921875</ele>
        <time>2005-09-04T10:10:46Z</time>
      </trkpt>
      <trkpt lat="45.718224830925465" lon="9.05331876128912">
        <ele>325.5435791015625</ele>
        <time>2005-09-04T10:10:49Z</time>
      </trkpt>
      <trkpt lat="45.718129947781563" lon="9.053356647491455">
        <ele>325.5435791015625</ele>
        <time>2005-09-04T10:10:52Z</time>
      </trkpt>
      <trkpt lat="45.718039674684405" lon="9.053395455703139">
        <ele>326.024169921875</ele>
        <time>2005-09-04T10:10:55Z</time>
      </trkpt>
      <trkpt lat="45.717953089624643" lon="9.053432252258062">
        <ele>326.024169921875</ele>
        <time>2005-09-04T10:10:58Z</time>
      </trkpt>
      <trkpt lat="45.717867091298103" lon="9.053464187309146">
        <ele>326.5048828125</ele>
        <time>2005-09-04T10:11:01Z</time>
      </trkpt>
      <trkpt lat="45.717776734381914" lon="9.0534976311028">
        <ele>326.5048828125</ele>
        <time>2005-09-04T10:11:04Z</time>
      </trkpt>
      <trkpt lat="45.717683108523488" lon="9.05352252535522">
        <ele>326.985595703125</ele>
        <time>2005-09-04T10:11:07Z</time>
      </trkpt>
      <trkpt lat="45.717589817941189" lon="9.053547671064735">
        <ele>326.985595703125</ele>
        <time>2005-09-04T10:11:10Z</time>
      </trkpt>
      <trkpt lat="45.717493677511811" lon="9.053568625822663">
        <ele>327.94677734375</ele>
        <time>2005-09-04T10:11:13Z</time>
      </trkpt>
      <trkpt lat="45.717395609244704" lon="9.053588071838021">
        <ele>327.4661865234375</ele>
        <time>2005-09-04T10:11:16Z</time>
      </trkpt>
      <trkpt lat="45.717294188216329" lon="9.053608607500792">
        <ele>327.94677734375</ele>
        <time>2005-09-04T10:11:19Z</time>
      </trkpt>
      <trkpt lat="45.717194359749556" lon="9.053633082658052">
        <ele>327.94677734375</ele>
        <time>2005-09-04T10:11:22Z</time>
      </trkpt>
      <trkpt lat="45.717099728062749" lon="9.053653283044696">
        <ele>327.4661865234375</ele>
        <time>2005-09-04T10:11:25Z</time>
      </trkpt>
      <trkpt lat="45.717006102204323" lon="9.053674405440688">
        <ele>326.985595703125</ele>
        <time>2005-09-04T10:11:28Z</time>
      </trkpt>
      <trkpt lat="45.716908955946565" lon="9.053697371855378">
        <ele>326.985595703125</ele>
        <time>2005-09-04T10:11:31Z</time>
      </trkpt>
      <trkpt lat="45.716807534918189" lon="9.053726708516479">
        <ele>327.94677734375</ele>
        <time>2005-09-04T10:11:34Z</time>
      </trkpt>
      <trkpt lat="45.716704521328211" lon="9.053767444565892">
        <ele>327.94677734375</ele>
        <time>2005-09-04T10:11:37Z</time>
      </trkpt>
      <trkpt lat="45.716609889641404" lon="9.053810695186257">
        <ele>327.4661865234375</ele>
        <time>2005-09-04T10:11:40Z</time>
      </trkpt>
      <trkpt lat="45.716513581573963" lon="9.053857550024986">
        <ele>327.4661865234375</ele>
        <time>2005-09-04T10:11:43Z</time>
      </trkpt>
      <trkpt lat="45.716414423659444" lon="9.053908344358206">
        <ele>327.4661865234375</ele>
        <time>2005-09-04T10:11:46Z</time>
      </trkpt>
      <trkpt lat="45.716308141127229" lon="9.053961904719472">
        <ele>326.985595703125</ele>
        <time>2005-09-04T10:11:49Z</time>
      </trkpt>
      <trkpt lat="45.716185430064797" lon="9.054010519757867">
        <ele>326.5048828125</ele>
        <time>2005-09-04T10:11:52Z</time>
      </trkpt>
      <trkpt lat="45.716061880812049" lon="9.054075563326478">
        <ele>326.024169921875</ele>
        <time>2005-09-04T10:11:55Z</time>
      </trkpt>
      <trkpt lat="45.715945204719901" lon="9.054137170314789">
        <ele>325.5435791015625</ele>
        <time>2005-09-04T10:11:58Z</time>
      </trkpt>
      <trkpt lat="45.71583179756999" lon="9.054196933284402">
        <ele>325.06298828125</ele>
        <time>2005-09-04T10:12:01Z</time>
      </trkpt>
      <trkpt lat="45.715717719867826" lon="9.054257115349174">
        <ele>324.582275390625</ele>
        <time>2005-09-04T10:12:04Z</time>
      </trkpt>
      <trkpt lat="45.715598110109568" lon="9.054320231080055">
        <ele>323.6209716796875</ele>
        <time>2005-09-04T10:12:07Z</time>
      </trkpt>
      <trkpt lat="45.715482020750642" lon="9.054381335154176">
        <ele>321.6983642578125</ele>
        <time>2005-09-04T10:12:10Z</time>
      </trkpt>
      <trkpt lat="45.715360147878528" lon="9.054445708170533">
        <ele>321.2177734375</ele>
        <time>2005-09-04T10:12:13Z</time>
      </trkpt>
      <trkpt lat="45.715270712971687" lon="9.054492814466357">
        <ele>320.737060546875</ele>
        <time>2005-09-04T10:12:15Z</time>
      </trkpt>
      <trkpt lat="45.715180356055498" lon="9.054540423676372">
        <ele>320.737060546875</ele>
        <time>2005-09-04T10:12:17Z</time>
      </trkpt>
      <trkpt lat="45.715085808187723" lon="9.054590296000242">
        <ele>320.737060546875</ele>
        <time>2005-09-04T10:12:19Z</time>
      </trkpt>
      <trkpt lat="45.714989919215441" lon="9.054640838876367">
        <ele>320.737060546875</ele>
        <time>2005-09-04T10:12:21Z</time>
      </trkpt>
      <trkpt lat="45.714890509843826" lon="9.054693309590221">
        <ele>320.25634765625</ele>
        <time>2005-09-04T10:12:23Z</time>
      </trkpt>
      <trkpt lat="45.714794620871544" lon="9.054743852466345">
        <ele>319.775634765625</ele>
        <time>2005-09-04T10:12:25Z</time>
      </trkpt>
      <trkpt lat="45.714700408279896" lon="9.054793557152152">
        <ele>319.2950439453125</ele>
        <time>2005-09-04T10:12:27Z</time>
      </trkpt>
      <trkpt lat="45.714608123525977" lon="9.054842172190547">
        <ele>319.775634765625</ele>
        <time>2005-09-04T10:12:29Z</time>
      </trkpt>
      <trkpt lat="45.714523047208786" lon="9.054887099191546">
        <ele>319.775634765625</ele>
        <time>2005-09-04T10:12:31Z</time>
      </trkpt>
      <trkpt lat="45.714410310611129" lon="9.054945269599557">
        <ele>319.2950439453125</ele>
        <time>2005-09-04T10:12:34Z</time>
      </trkpt>
      <trkpt lat="45.71431752294302" lon="9.054991621524096">
        <ele>319.775634765625</ele>
        <time>2005-09-04T10:12:37Z</time>
      </trkpt>
      <trkpt lat="45.714231440797448" lon="9.055037554353476">
        <ele>318.8143310546875</ele>
        <time>2005-09-04T10:12:40Z</time>
      </trkpt>
      <trkpt lat="45.714119710028172" lon="9.055099580436945">
        <ele>319.2950439453125</ele>
        <time>2005-09-04T10:12:44Z</time>
      </trkpt>
      <trkpt lat="45.714028598740697" lon="9.055150290951133">
        <ele>319.2950439453125</ele>
        <time>2005-09-04T10:12:47Z</time>
      </trkpt>
      <trkpt lat="45.713938325643539" lon="9.05520049855113">
        <ele>319.775634765625</ele>
        <time>2005-09-04T10:12:50Z</time>
      </trkpt>
      <trkpt lat="45.713880825787783" lon="9.05527132563293">
        <ele>320.737060546875</ele>
        <time>2005-09-04T10:12:53Z</time>
      </trkpt>
      <trkpt lat="45.713461646810174" lon="9.055167473852634">
        <ele>321.6983642578125</ele>
        <time>2005-09-04T10:13:06Z</time>
      </trkpt>
      <trkpt lat="45.713347569108009" lon="9.055145680904388">
        <ele>321.2177734375</ele>
        <time>2005-09-04T10:13:09Z</time>
      </trkpt>
      <trkpt lat="45.713236760348082" lon="9.055132269859314">
        <ele>320.737060546875</ele>
        <time>2005-09-04T10:13:12Z</time>
      </trkpt>
      <trkpt lat="45.713129220530391" lon="9.055090108886361">
        <ele>320.737060546875</ele>
        <time>2005-09-04T10:13:16Z</time>
      </trkpt>
      <trkpt lat="45.713048838078976" lon="9.055037638172507">
        <ele>320.25634765625</ele>
        <time>2005-09-04T10:13:20Z</time>
      </trkpt>
      <trkpt lat="45.712965773418546" lon="9.054977539926767">
        <ele>319.775634765625</ele>
        <time>2005-09-04T10:13:24Z</time>
      </trkpt>
      <trkpt lat="45.712870471179485" lon="9.054909646511078">
        <ele>319.2950439453125</ele>
        <time>2005-09-04T10:13:28Z</time>
      </trkpt>
      <trkpt lat="45.712781120091677" lon="9.054854242131114">
        <ele>318.3336181640625</ele>
        <time>2005-09-04T10:13:32Z</time>
      </trkpt>
      <trkpt lat="45.712694870308042" lon="9.05480177141726">
        <ele>318.3336181640625</ele>
        <time>2005-09-04T10:13:36Z</time>
      </trkpt>
      <trkpt lat="45.712597221136093" lon="9.054739661514759">
        <ele>317.3724365234375</ele>
        <time>2005-09-04T10:13:40Z</time>
      </trkpt>
      <trkpt lat="45.712518179789186" lon="9.054672354832292">
        <ele>317.3724365234375</ele>
        <time>2005-09-04T10:13:43Z</time>
      </trkpt>
      <trkpt lat="45.71244559250772" lon="9.054595325142145">
        <ele>317.3724365234375</ele>
        <time>2005-09-04T10:13:46Z</time>
      </trkpt>
      <trkpt lat="45.71236789226532" lon="9.05449683777988">
        <ele>316.8917236328125</ele>
        <time>2005-09-04T10:13:49Z</time>
      </trkpt>
      <trkpt lat="45.712291114032269" lon="9.054409498348832">
        <ele>316.4110107421875</ele>
        <time>2005-09-04T10:13:52Z</time>
      </trkpt>
      <trkpt lat="45.712189609184861" lon="9.054318051785231">
        <ele>315.930419921875</ele>
        <time>2005-09-04T10:13:56Z</time>
      </trkpt>
      <trkpt lat="45.712085757404566" lon="9.05423984862864">
        <ele>315.4498291015625</ele>
        <time>2005-09-04T10:14:00Z</time>
      </trkpt>
      <trkpt lat="45.711983833462" lon="9.054154856130481">
        <ele>314.9691162109375</ele>
        <time>2005-09-04T10:14:04Z</time>
      </trkpt>
      <trkpt lat="45.711903283372521" lon="9.054074557498097">
        <ele>314.0078125</ele>
        <time>2005-09-04T10:14:08Z</time>
      </trkpt>
      <trkpt lat="45.711821308359504" lon="9.053987804800272">
        <ele>312.5657958984375</ele>
        <time>2005-09-04T10:14:13Z</time>
      </trkpt>
      <trkpt lat="45.711740758270025" lon="9.053924353793263">
        <ele>312.5657958984375</ele>
        <time>2005-09-04T10:14:17Z</time>
      </trkpt>
      <trkpt lat="45.711640175431967" lon="9.053859729319811">
        <ele>312.085205078125</ele>
        <time>2005-09-04T10:14:21Z</time>
      </trkpt>
      <trkpt lat="45.711533641442657" lon="9.053809270262718">
        <ele>310.64306640625</ele>
        <time>2005-09-04T10:14:25Z</time>
      </trkpt>
      <trkpt lat="45.711428448557854" lon="9.053764929994941">
        <ele>310.1624755859375</ele>
        <time>2005-09-04T10:14:29Z</time>
      </trkpt>
      <trkpt lat="45.711329709738493" lon="9.053724277764559">
        <ele>309.201171875</ele>
        <time>2005-09-04T10:14:33Z</time>
      </trkpt>
      <trkpt lat="45.711220996454358" lon="9.053723691031337">
        <ele>308.720458984375</ele>
        <time>2005-09-04T10:14:38Z</time>
      </trkpt>
      <trkpt lat="45.711123263463378" lon="9.053741125389934">
        <ele>308.720458984375</ele>
        <time>2005-09-04T10:14:43Z</time>
      </trkpt>
      <trkpt lat="45.711017902940512" lon="9.053742047399283">
        <ele>308.2398681640625</ele>
        <time>2005-09-04T10:14:47Z</time>
      </trkpt>
      <trkpt lat="45.710916733369231" lon="9.053688822314143">
        <ele>306.7978515625</ele>
        <time>2005-09-04T10:14:51Z</time>
      </trkpt>
      <trkpt lat="45.710805589333177" lon="9.053602237254381">
        <ele>306.7978515625</ele>
        <time>2005-09-04T10:14:57Z</time>
      </trkpt>
      <trkpt lat="45.710703497752547" lon="9.053535684943199">
        <ele>305.836669921875</ele>
        <time>2005-09-04T10:15:01Z</time>
      </trkpt>
      <trkpt lat="45.710603501647711" lon="9.053464774042368">
        <ele>305.35595703125</ele>
        <time>2005-09-04T10:15:05Z</time>
      </trkpt>
      <trkpt lat="45.710514318197966" lon="9.053353294730187">
        <ele>304.875244140625</ele>
        <time>2005-09-04T10:15:09Z</time>
      </trkpt>
      <trkpt lat="45.710421446710825" lon="9.053252125158906">
        <ele>303.9139404296875</ele>
        <time>2005-09-04T10:15:13Z</time>
      </trkpt>
      <trkpt lat="45.710316505283117" lon="9.053192781284452">
        <ele>303.4332275390625</ele>
        <time>2005-09-04T10:15:17Z</time>
      </trkpt>
      <trkpt lat="45.710204858332872" lon="9.053140562027693">
        <ele>303.9139404296875</ele>
        <time>2005-09-04T10:15:21Z</time>
      </trkpt>
      <trkpt lat="45.710093043744564" lon="9.053094042465091">
        <ele>303.4332275390625</ele>
        <time>2005-09-04T10:15:25Z</time>
      </trkpt>
      <trkpt lat="45.709983995184302" lon="9.053044756874442">
        <ele>302.9525146484375</ele>
        <time>2005-09-04T10:15:29Z</time>
      </trkpt>
      <trkpt lat="45.70986757054925" lon="9.053009888157249">
        <ele>302.9525146484375</ele>
        <time>2005-09-04T10:15:33Z</time>
      </trkpt>
      <trkpt lat="45.709755923599005" lon="9.052977617830038">
        <ele>302.471923828125</ele>
        <time>2005-09-04T10:15:37Z</time>
      </trkpt>
      <trkpt lat="45.709641175344586" lon="9.052934367209673">
        <ele>301.9913330078125</ele>
        <time>2005-09-04T10:15:41Z</time>
      </trkpt>
      <trkpt lat="45.709529025480151" lon="9.05289757065475">
        <ele>301.9913330078125</ele>
        <time>2005-09-04T10:15:45Z</time>
      </trkpt>
      <trkpt lat="45.70940924808383" lon="9.052868066355586">
        <ele>302.471923828125</ele>
        <time>2005-09-04T10:15:49Z</time>
      </trkpt>
      <trkpt lat="45.709288800135255" lon="9.052828503772616">
        <ele>301.9913330078125</ele>
        <time>2005-09-04T10:15:53Z</time>
      </trkpt>
      <trkpt lat="45.709164664149284" lon="9.052785253152251">
        <ele>301.9913330078125</ele>
        <time>2005-09-04T10:15:57Z</time>
      </trkpt>
      <trkpt lat="45.709068942815065" lon="9.052752396091819">
        <ele>301.9913330078125</ele>
        <time>2005-09-04T10:16:00Z</time>
      </trkpt>
      <trkpt lat="45.708982441574335" lon="9.052720628678799">
        <ele>301.9913330078125</ele>
        <time>2005-09-04T10:16:03Z</time>
      </trkpt>
      <trkpt lat="45.708878254517913" lon="9.052682910114527">
        <ele>301.9913330078125</ele>
        <time>2005-09-04T10:16:07Z</time>
      </trkpt>
      <trkpt lat="45.708788484334946" lon="9.052646867930889">
        <ele>301.5106201171875</ele>
        <time>2005-09-04T10:16:11Z</time>
      </trkpt>
      <trkpt lat="45.70867482572794" lon="9.052598839625716">
        <ele>301.9913330078125</ele>
        <time>2005-09-04T10:16:16Z</time>
      </trkpt>
      <trkpt lat="45.708578685298562" lon="9.052556091919541">
        <ele>301.9913330078125</ele>
        <time>2005-09-04T10:16:20Z</time>
      </trkpt>
      <trkpt lat="45.70848137140274" lon="9.052510913461447">
        <ele>301.5106201171875</ele>
        <time>2005-09-04T10:16:24Z</time>
      </trkpt>
      <trkpt lat="45.708368634805083" lon="9.052454000338912">
        <ele>301.9913330078125</ele>
        <time>2005-09-04T10:16:28Z</time>
      </trkpt>
      <trkpt lat="45.7082589995116" lon="9.052395578473806">
        <ele>301.0299072265625</ele>
        <time>2005-09-04T10:16:32Z</time>
      </trkpt>
      <trkpt lat="45.708158416673541" lon="9.052342856302857">
        <ele>301.0299072265625</ele>
        <time>2005-09-04T10:16:36Z</time>
      </trkpt>
      <trkpt lat="45.708041908219457" lon="9.05228485353291">
        <ele>300.54931640625</ele>
        <time>2005-09-04T10:16:40Z</time>
      </trkpt>
      <trkpt lat="45.707954401150346" lon="9.052242944017053">
        <ele>300.54931640625</ele>
        <time>2005-09-04T10:16:43Z</time>
      </trkpt>
      <trkpt lat="45.707852561026812" lon="9.052190724760294">
        <ele>300.54931640625</ele>
        <time>2005-09-04T10:16:47Z</time>
      </trkpt>
      <trkpt lat="45.707746362313628" lon="9.052141439169645">
        <ele>300.54931640625</ele>
        <time>2005-09-04T10:16:51Z</time>
      </trkpt>
      <trkpt lat="45.707648210227489" lon="9.052094584330916">
        <ele>300.0687255859375</ele>
        <time>2005-09-04T10:16:55Z</time>
      </trkpt>
      <trkpt lat="45.707547459751368" lon="9.052050663158298">
        <ele>300.54931640625</ele>
        <time>2005-09-04T10:16:59Z</time>
      </trkpt>
      <trkpt lat="45.707455091178417" lon="9.052016045898199">
        <ele>300.0687255859375</ele>
        <time>2005-09-04T10:17:02Z</time>
      </trkpt>
      <trkpt lat="45.707352329045534" lon="9.051982015371323">
        <ele>299.5880126953125</ele>
        <time>2005-09-04T10:17:05Z</time>
      </trkpt>
      <trkpt lat="45.707241604104638" lon="9.05194915831089">
        <ele>299.5880126953125</ele>
        <time>2005-09-04T10:17:08Z</time>
      </trkpt>
      <trkpt lat="45.707128113135695" lon="9.051911691203713">
        <ele>299.5880126953125</ele>
        <time>2005-09-04T10:17:11Z</time>
      </trkpt>
      <trkpt lat="45.707021411508322" lon="9.051870116963983">
        <ele>299.5880126953125</ele>
        <time>2005-09-04T10:17:14Z</time>
      </trkpt>
      <trkpt lat="45.706935413181782" lon="9.051834661513567">
        <ele>299.1072998046875</ele>
        <time>2005-09-04T10:17:17Z</time>
      </trkpt>
      <trkpt lat="45.70682686753571" lon="9.05178839340806">
        <ele>298.1461181640625</ele>
        <time>2005-09-04T10:17:21Z</time>
      </trkpt>
      <trkpt lat="45.706732487305999" lon="9.051743382588029">
        <ele>297.6654052734375</ele>
        <time>2005-09-04T10:17:25Z</time>
      </trkpt>
      <trkpt lat="45.706642968580127" lon="9.051681691780686">
        <ele>297.6654052734375</ele>
        <time>2005-09-04T10:17:29Z</time>
      </trkpt>
      <trkpt lat="45.706560323014855" lon="9.051614971831441">
        <ele>297.1846923828125</ele>
        <time>2005-09-04T10:17:33Z</time>
      </trkpt>
      <trkpt lat="45.70647943764925" lon="9.051541965454817">
        <ele>296.7041015625</ele>
        <time>2005-09-04T10:17:37Z</time>
      </trkpt>
      <trkpt lat="45.706392433494329" lon="9.051460577175021">
        <ele>295.74267578125</ele>
        <time>2005-09-04T10:17:41Z</time>
      </trkpt>
      <trkpt lat="45.706307776272297" lon="9.05138430185616">
        <ele>295.261962890625</ele>
        <time>2005-09-04T10:17:46Z</time>
      </trkpt>
      <trkpt lat="45.706213479861617" lon="9.051299225538969">
        <ele>293.820068359375</ele>
        <time>2005-09-04T10:17:52Z</time>
      </trkpt>
      <trkpt lat="45.706123458221555" lon="9.051236612722278">
        <ele>293.33935546875</ele>
        <time>2005-09-04T10:17:58Z</time>
      </trkpt>
      <trkpt lat="45.706030335277319" lon="9.051157487556338">
        <ele>292.378173828125</ele>
        <time>2005-09-04T10:18:04Z</time>
      </trkpt>
      <trkpt lat="45.705932853743434" lon="9.051132425665855">
        <ele>290.9361572265625</ele>
        <time>2005-09-04T10:18:09Z</time>
      </trkpt>
      <trkpt lat="45.705858506262302" lon="9.051226219162345">
        <ele>290.45556640625</ele>
        <time>2005-09-04T10:18:14Z</time>
      </trkpt>
      <trkpt lat="45.705844508484006" lon="9.051390839740634">
        <ele>290.45556640625</ele>
        <time>2005-09-04T10:18:18Z</time>
      </trkpt>
      <trkpt lat="45.705837048590183" lon="9.051542803645134">
        <ele>290.45556640625</ele>
        <time>2005-09-04T10:18:21Z</time>
      </trkpt>
      <trkpt lat="45.705833109095693" lon="9.051689403131604">
        <ele>289.974853515625</ele>
        <time>2005-09-04T10:18:24Z</time>
      </trkpt>
      <trkpt lat="45.705832941457629" lon="9.051836924627423">
        <ele>289.974853515625</ele>
        <time>2005-09-04T10:18:29Z</time>
      </trkpt>
      <trkpt lat="45.705834785476327" lon="9.051986206322908">
        <ele>289.494140625</ele>
        <time>2005-09-04T10:18:35Z</time>
      </trkpt>
      <trkpt lat="45.705830678343773" lon="9.05215292237699">
        <ele>289.494140625</ele>
        <time>2005-09-04T10:18:40Z</time>
      </trkpt>
      <trkpt lat="45.705821542069316" lon="9.052311675623059">
        <ele>289.974853515625</ele>
        <time>2005-09-04T10:18:44Z</time>
      </trkpt>
      <trkpt lat="45.705798827111721" lon="9.052471937611699">
        <ele>290.45556640625</ele>
        <time>2005-09-04T10:18:48Z</time>
      </trkpt>
      <trkpt lat="45.705752559006214" lon="9.052619123831391">
        <ele>291.416748046875</ele>
        <time>2005-09-04T10:18:53Z</time>
      </trkpt>
      <trkpt lat="45.705688185989857" lon="9.052723981440067">
        <ele>291.416748046875</ele>
        <time>2005-09-04T10:18:58Z</time>
      </trkpt>
      <trkpt lat="45.705611910670996" lon="9.052829425781965">
        <ele>291.8974609375</ele>
        <time>2005-09-04T10:19:03Z</time>
      </trkpt>
      <trkpt lat="45.705531779676676" lon="9.052950041368604">
        <ele>292.378173828125</ele>
        <time>2005-09-04T10:19:08Z</time>
      </trkpt>
      <trkpt lat="45.705453576520085" lon="9.053058251738548">
        <ele>292.8587646484375</ele>
        <time>2005-09-04T10:19:13Z</time>
      </trkpt>
      <trkpt lat="45.70538149215281" lon="9.05316143296659">
        <ele>292.8587646484375</ele>
        <time>2005-09-04T10:19:18Z</time>
      </trkpt>
      <trkpt lat="45.705312341451645" lon="9.053275426849723">
        <ele>293.33935546875</ele>
        <time>2005-09-04T10:19:23Z</time>
      </trkpt>
      <trkpt lat="45.705258278176188" lon="9.053413728252053">
        <ele>293.820068359375</ele>
        <time>2005-09-04T10:19:28Z</time>
      </trkpt>
      <trkpt lat="45.7052231580019" lon="9.053568793460727">
        <ele>293.820068359375</ele>
        <time>2005-09-04T10:19:34Z</time>
      </trkpt>
      <trkpt lat="45.705216536298394" lon="9.05374389141798">
        <ele>293.820068359375</ele>
        <time>2005-09-04T10:19:42Z</time>
      </trkpt>
      <trkpt lat="45.705190300941467" lon="9.053908092901111">
        <ele>293.820068359375</ele>
        <time>2005-09-04T10:19:49Z</time>
      </trkpt>
      <trkpt lat="45.705154929310083" lon="9.054073467850685">
        <ele>293.820068359375</ele>
        <time>2005-09-04T10:19:55Z</time>
      </trkpt>
      <trkpt lat="45.705099776387215" lon="9.054226605221629">
        <ele>293.820068359375</ele>
        <time>2005-09-04T10:20:01Z</time>
      </trkpt>
      <trkpt lat="45.705042276531458" lon="9.054366750642657">
        <ele>293.820068359375</ele>
        <time>2005-09-04T10:20:06Z</time>
      </trkpt>
      <trkpt lat="45.704980669543147" lon="9.054509326815605">
        <ele>293.33935546875</ele>
        <time>2005-09-04T10:20:11Z</time>
      </trkpt>
      <trkpt lat="45.704893162474036" lon="9.05465517193079">
        <ele>294.30078125</ele>
        <time>2005-09-04T10:20:16Z</time>
      </trkpt>
      <trkpt lat="45.704777576029301" lon="9.054747205227613">
        <ele>294.30078125</ele>
        <time>2005-09-04T10:20:21Z</time>
      </trkpt>
      <trkpt lat="45.704664923250675" lon="9.054800514131784">
        <ele>294.7813720703125</ele>
        <time>2005-09-04T10:20:26Z</time>
      </trkpt>
      <trkpt lat="45.704553779214621" lon="9.054799843579531">
        <ele>295.261962890625</ele>
        <time>2005-09-04T10:20:31Z</time>
      </trkpt>
      <trkpt lat="45.704447831958532" lon="9.054775955155492">
        <ele>295.261962890625</ele>
        <time>2005-09-04T10:20:35Z</time>
      </trkpt>
      <trkpt lat="45.704342471435666" lon="9.054751479998231">
        <ele>295.74267578125</ele>
        <time>2005-09-04T10:20:39Z</time>
      </trkpt>
      <trkpt lat="45.704243648797274" lon="9.054725747555494">
        <ele>294.7813720703125</ele>
        <time>2005-09-04T10:20:43Z</time>
      </trkpt>
      <trkpt lat="45.704127224162221" lon="9.054719712585211">
        <ele>294.30078125</ele>
        <time>2005-09-04T10:20:48Z</time>
      </trkpt>
      <trkpt lat="45.704022534191608" lon="9.054710073396564">
        <ele>294.30078125</ele>
        <time>2005-09-04T10:20:52Z</time>
      </trkpt>
      <trkpt lat="45.703916000202298" lon="9.054701020941138">
        <ele>294.30078125</ele>
        <time>2005-09-04T10:20:57Z</time>
      </trkpt>
      <trkpt lat="45.703883562237024" lon="9.054581830278039">
        <ele>294.7813720703125</ele>
        <time>2005-09-04T10:21:02Z</time>
      </trkpt>
      <trkpt lat="45.703916754573584" lon="9.054422238841653">
        <ele>294.7813720703125</ele>
        <time>2005-09-04T10:21:06Z</time>
      </trkpt>
      <trkpt lat="45.70397425442934" lon="9.054277399554849">
        <ele>294.7813720703125</ele>
        <time>2005-09-04T10:21:09Z</time>
      </trkpt>
      <trkpt lat="45.703989677131176" lon="9.054066091775894">
        <ele>294.7813720703125</ele>
        <time>2005-09-04T10:21:12Z</time>
      </trkpt>
      <trkpt lat="45.70406754501164" lon="9.053932651877403">
        <ele>295.261962890625</ele>
        <time>2005-09-04T10:21:15Z</time>
      </trkpt>
      <trkpt lat="45.704141221940517" lon="9.053806252777576">
        <ele>295.261962890625</ele>
        <time>2005-09-04T10:21:18Z</time>
      </trkpt>
      <trkpt lat="45.704203583300114" lon="9.053699467331171">
        <ele>295.74267578125</ele>
        <time>2005-09-04T10:21:21Z</time>
      </trkpt>
      <trkpt lat="45.704252785071731" lon="9.053569380193949">
        <ele>295.261962890625</ele>
        <time>2005-09-04T10:21:25Z</time>
      </trkpt>
      <trkpt lat="45.704278768971562" lon="9.053426720201969">
        <ele>296.2235107421875</ele>
        <time>2005-09-04T10:21:29Z</time>
      </trkpt>
      <trkpt lat="45.704309111461043" lon="9.053259501233697">
        <ele>296.2235107421875</ele>
        <time>2005-09-04T10:21:33Z</time>
      </trkpt>
      <trkpt lat="45.704326629638672" lon="9.053163528442383">
        <ele>296.7041015625</ele>
        <time>2005-09-04T10:21:36Z</time>
      </trkpt>
      <trkpt lat="45.704326629638672" lon="9.053163528442383">
        <ele>296.7041015625</ele>
        <time>2005-09-04T10:21:39Z</time>
      </trkpt>
      <trkpt lat="45.704326629638672" lon="9.053163528442383">
        <ele>296.2235107421875</ele>
        <time>2005-09-04T10:21:43Z</time>
      </trkpt>
      <trkpt lat="45.704326629638672" lon="9.053163528442383">
        <ele>296.2235107421875</ele>
        <time>2005-09-04T10:21:47Z</time>
      </trkpt>
      <trkpt lat="45.704326629638672" lon="9.053163528442383">
        <ele>296.2235107421875</ele>
        <time>2005-09-04T10:21:51Z</time>
      </trkpt>
      <trkpt lat="45.704393265768886" lon="9.05244410969317">
        <ele>295.74267578125</ele>
        <time>2005-09-04T10:21:56Z</time>
      </trkpt>
      <trkpt lat="45.704338448122144" lon="9.05232198536396">
        <ele>296.2235107421875</ele>
        <time>2005-09-04T10:22:01Z</time>
      </trkpt>
      <trkpt lat="45.704308021813631" lon="9.05218075029552">
        <ele>295.74267578125</ele>
        <time>2005-09-04T10:22:06Z</time>
      </trkpt>
      <trkpt lat="45.704279858618975" lon="9.05203222297132">
        <ele>295.74267578125</ele>
        <time>2005-09-04T10:22:11Z</time>
      </trkpt>
      <trkpt lat="45.704254629090428" lon="9.051898950710893">
        <ele>296.2235107421875</ele>
        <time>2005-09-04T10:22:16Z</time>
      </trkpt>
      <trkpt lat="45.704228980466723" lon="9.051754781976342">
        <ele>295.261962890625</ele>
        <time>2005-09-04T10:22:21Z</time>
      </trkpt>
      <trkpt lat="45.704193189740181" lon="9.05162419192493">
        <ele>295.261962890625</ele>
        <time>2005-09-04T10:22:26Z</time>
      </trkpt>
      <trkpt lat="45.704146083444357" lon="9.051495529711247">
        <ele>294.30078125</ele>
        <time>2005-09-04T10:22:31Z</time>
      </trkpt>
      <trkpt lat="45.704093361273408" lon="9.051372399553657">
        <ele>294.7813720703125</ele>
        <time>2005-09-04T10:22:36Z</time>
      </trkpt>
      <trkpt lat="45.704034855589271" lon="9.051260584965348">
        <ele>294.30078125</ele>
        <time>2005-09-04T10:22:41Z</time>
      </trkpt>
      <trkpt lat="45.703976433724165" lon="9.051149692386389">
        <ele>294.30078125</ele>
        <time>2005-09-04T10:22:48Z</time>
      </trkpt>
      <trkpt lat="45.703970147296786" lon="9.051104346290231">
        <ele>293.820068359375</ele>
        <time>2005-09-04T10:23:07Z</time>
      </trkpt>
    </trkseg>
  </trk>

</gpx>
